[[{"header":{"parameterUnit":"m.s-1","parameterCategory":1,"la1":30.6,"la2":29.2853,"lo1":-89.7004,"lo2":-87.6739,"dy":0.0162,"dx":0.0183,"nx":112,"ny":82,"refTime":"2024-04-11T12:00:00:Z","depth":0,"parameterNumber":2,"parameterNumberName":"U-component_of_WINDS"},"data":[0.0,0.0,0.0,0.0,0.0,0.0,0.0,0.0,0.0,0.0,0.0,0.0,0.0,0.0,0.0,0.0,0.0,0.0,0.0,0.0,0.0,0.0,0.0,0.0,0.0,0.0,0.0,0.0,0.0,0.0,0.0,0.0,0.0,0.0,0.0,0.0,0.0,0.0,0.0,0.0,0.0,0.0,0.0,0.0,0.0,0.0,0.0,0.0,0.0,0.0,0.0,0.0,0.0,0.0,0.0,0.0,0.0,0.0,0.0,0.0,0.0,0.0,0.0,0.0,0.0,0.0,0.0,0.0,0.0,0.0,0.0,0.0,0.0,0.0,0.0,0.0,0.0,0.0,0.0,0.0,0.0,0.0,0.0,0.0,0.0,0.0,0.0,0.0,0.0,0.0,-2.0439,-2.0487,-2.0554,-2.0561,-2.0507,-1.982,-1.9007,-1.8067,0.0,0.0,0.0,0.0,0.0,0.0,0.0,0.0,0.0,0.0,0.0,0.0,0.0,0.0,0.0,0.0,0.0,0.0,0.0,0.0,0.0,0.0,0.0,0.0,0.0,0.0,0.0,0.0,0.0,0.0,0.0,0.0,0.0,0.0,0.0,0.0,0.0,0.0,0.0,0.0,0.0,0.0,0.0,0.0,0.0,0.0,0.0,0.0,0.0,0.0,0.0,0.0,0.0,0.0,0.0,0.0,0.0,0.0,0.0,0.0,0.0,0.0,0.0,0.0,0.0,0.0,0.0,0.0,0.0,0.0,0.0,0.0,0.0,0.0,0.0,0.0,0.0,0.0,0.0,0.0,0.0,0.0,0.0,0.0,0.0,0.0,0.0,0.0,0.0,0.0,0.0,0.0,0.0,0.0,0.0,0.0,0.0,0.0,0.0,0.0,0.0,0.0,0.0,0.0,-2.0428,-2.0489,-2.0561,-2.0561,-2.0507,-2.0379,-1.991,-1.8966,0.0,0.0,0.0,0.0,0.0,0.0,0.0,0.0,0.0,0.0,0.0,0.0,0.0,0.0,0.0,0.0,0.0,0.0,0.0,0.0,0.0,0.0,0.0,0.0,0.0,0.0,0.0,0.0,0.0,0.0,0.0,0.0,0.0,0.0,0.0,0.0,0.0,0.0,0.0,0.0,0.0,0.0,0.0,0.0,0.0,0.0,0.0,0.0,0.0,0.0,0.0,0.0,0.0,0.0,0.0,0.0,0.0,0.0,0.0,0.0,0.0,0.0,0.0,0.0,0.0,0.0,0.0,0.0,0.0,0.0,0.0,0.0,0.0,0.0,0.0,0.0,0.0,0.0,0.0,0.0,0.0,0.0,0.0,0.0,0.0,0.0,0.0,0.0,0.0,0.0,0.0,0.0,0.0,0.0,0.0,0.0,0.0,0.0,0.0,0.0,0.0,0.0,0.0,-2.0425,-2.0476,-2.0494,-2.052,-2.0536,-2.0497,-2.0478,-2.0063,-1.9154,-1.7904,0.0,0.0,0.0,0.0,0.0,0.0,0.0,0.0,0.0,0.0,0.0,0.0,0.0,0.0,0.0,0.0,0.0,0.0,0.0,0.0,0.0,0.0,0.0,0.0,0.0,0.0,0.0,0.0,0.0,0.0,0.0,0.0,0.0,0.0,0.0,0.0,0.0,0.0,0.0,0.0,0.0,0.0,0.0,0.0,0.0,0.0,0.0,0.0,0.0,0.0,0.0,0.0,0.0,0.0,0.0,0.0,0.0,0.0,0.0,0.0,0.0,0.0,0.0,0.0,0.0,0.0,0.0,0.0,0.0,0.0,0.0,0.0,0.0,0.0,0.0,0.0,0.0,0.0,0.0,0.0,0.0,0.0,0.0,0.0,0.0,0.0,0.0,0.0,0.0,0.0,0.0,0.0,0.0,0.0,0.0,0.0,0.0,0.0,0.0,0.0,0.0,0.0,-2.0467,-2.051,-2.0492,-2.0494,-2.0506,-2.0503,-2.0439,-2.0117,-1.9426,-1.8365,0.0,0.0,0.0,0.0,0.0,0.0,0.0,0.0,0.0,0.0,0.0,0.0,0.0,0.0,0.0,0.0,0.0,0.0,0.0,0.0,0.0,0.0,0.0,0.0,0.0,0.0,0.0,0.0,0.0,0.0,0.0,0.0,0.0,0.0,0.0,0.0,0.0,0.0,0.0,0.0,0.0,0.0,0.0,0.0,0.0,0.0,0.0,0.0,0.0,0.0,0.0,0.0,0.0,0.0,0.0,0.0,0.0,0.0,0.0,0.0,0.0,0.0,0.0,0.0,0.0,0.0,0.0,0.0,0.0,0.0,0.0,0.0,0.0,0.0,0.0,0.0,0.0,0.0,0.0,0.0,0.0,0.0,0.0,0.0,0.0,0.0,0.0,0.0,0.0,0.0,0.0,0.0,0.0,0.0,0.0,0.0,0.0,0.0,0.0,0.0,0.0,0.0,-2.0454,-2.0498,-2.0498,-2.05,-2.0494,-2.049,-2.0434,-2.034,-2.0212,-1.8638,0.0,0.0,0.0,0.0,0.0,0.0,0.0,0.0,0.0,0.0,0.0,0.0,0.0,0.0,0.0,0.0,0.0,0.0,0.0,0.0,0.0,0.0,0.0,0.0,0.0,0.0,0.0,0.0,0.0,0.0,0.0,0.0,0.0,0.0,0.0,0.0,0.0,0.0,0.0,0.0,0.0,0.0,0.0,0.0,0.0,0.0,0.0,0.0,0.0,0.0,0.0,0.0,0.0,0.0,0.0,0.0,0.0,0.0,0.0,0.0,0.0,0.0,0.0,0.0,0.0,0.0,0.0,0.0,0.0,0.0,0.0,0.0,0.0,0.0,0.0,0.0,0.0,0.0,0.0,0.0,0.0,0.0,0.0,0.0,0.0,0.0,0.0,0.0,0.0,0.0,0.0,0.0,0.0,0.0,0.0,0.0,0.0,0.0,0.0,0.0,0.0,0.0,-2.0415,-2.0459,0.0,-2.0499,-2.0472,-2.0433,-2.0413,-2.0379,-2.0311,0.0,0.0,0.0,0.0,0.0,0.0,0.0,0.0,0.0,0.0,0.0,0.0,0.0,0.0,0.0,0.0,0.0,0.0,0.0,0.0,0.0,0.0,0.0,0.0,0.0,0.0,0.0,0.0,0.0,0.0,0.0,0.0,0.0,0.0,0.0,0.0,0.0,0.0,0.0,0.0,0.0,0.0,0.0,0.0,0.0,0.0,0.0,0.0,0.0,0.0,0.0,0.0,0.0,0.0,0.0,0.0,0.0,0.0,0.0,0.0,0.0,0.0,0.0,0.0,0.0,0.0,0.0,0.0,0.0,0.0,0.0,0.0,0.0,0.0,0.0,0.0,0.0,0.0,0.0,0.0,0.0,0.0,0.0,0.0,0.0,0.0,0.0,0.0,0.0,0.0,0.0,0.0,0.0,0.0,0.0,0.0,0.0,0.0,0.0,0.0,0.0,0.0,-2.0395,-2.0399,-2.0422,0.0,-2.0497,-2.047,-2.0415,-2.0377,-2.0344,-2.0297,0.0,0.0,0.0,0.0,0.0,0.0,0.0,0.0,0.0,0.0,0.0,0.0,0.0,0.0,0.0,0.0,0.0,0.0,0.0,0.0,0.0,0.0,0.0,0.0,0.0,0.0,0.0,0.0,0.0,0.0,0.0,0.0,0.0,0.0,0.0,0.0,0.0,0.0,0.0,0.0,0.0,0.0,0.0,0.0,0.0,0.0,0.0,0.0,0.0,0.0,0.0,0.0,0.0,0.0,0.0,0.0,0.0,0.0,0.0,0.0,0.0,0.0,0.0,0.0,0.0,0.0,0.0,0.0,0.0,0.0,0.0,0.0,0.0,0.0,0.0,0.0,0.0,0.0,0.0,0.0,0.0,0.0,0.0,0.0,0.0,0.0,0.0,0.0,0.0,0.0,0.0,0.0,0.0,0.0,0.0,0.0,0.0,0.0,0.0,0.0,0.0,0.0,-2.0395,-2.0408,-2.0427,-2.0487,-2.0497,-2.0466,-2.0417,-2.0346,-2.0299,0.0,0.0,0.0,0.0,0.0,0.0,0.0,0.0,0.0,0.0,0.0,0.0,0.0,0.0,0.0,0.0,0.0,0.0,0.0,0.0,0.0,0.0,0.0,0.0,0.0,0.0,0.0,0.0,0.0,0.0,0.0,0.0,0.0,0.0,0.0,0.0,0.0,0.0,0.0,0.0,0.0,0.0,0.0,0.0,0.0,0.0,0.0,0.0,0.0,0.0,0.0,0.0,0.0,0.0,0.0,0.0,0.0,0.0,0.0,0.0,0.0,0.0,0.0,0.0,0.0,0.0,0.0,0.0,0.0,0.0,0.0,0.0,0.0,0.0,0.0,0.0,0.0,0.0,0.0,0.0,0.0,0.0,0.0,0.0,0.0,0.0,0.0,0.0,0.0,0.0,0.0,0.0,0.0,0.0,0.0,0.0,0.0,0.0,0.0,0.0,0.0,0.0,0.0,-2.0398,-2.0441,-2.0471,-2.0506,-2.0497,-2.0488,-2.0466,-2.0413,-2.035,-2.0299,0.0,0.0,0.0,0.0,0.0,0.0,0.0,0.0,0.0,0.0,0.0,0.0,0.0,0.0,0.0,0.0,0.0,0.0,0.0,0.0,0.0,0.0,0.0,0.0,0.0,0.0,0.0,0.0,0.0,0.0,0.0,0.0,0.0,0.0,0.0,0.0,0.0,0.0,0.0,0.0,0.0,0.0,0.0,0.0,0.0,0.0,0.0,0.0,0.0,0.0,0.0,0.0,0.0,0.0,0.0,0.0,0.0,0.0,0.0,0.0,0.0,0.0,0.0,0.0,0.0,0.0,0.0,0.0,0.0,0.0,0.0,0.0,0.0,0.0,0.0,0.0,0.0,0.0,0.0,0.0,0.0,0.0,0.0,0.0,0.0,0.0,0.0,0.0,0.0,0.0,0.0,0.0,0.0,0.0,0.0,0.0,0.0,0.0,0.0,0.0,0.0,0.0,-2.0385,-2.0464,-2.0491,-2.0509,-2.0495,-2.0504,-2.0504,-2.0438,-2.0379,-2.0344,0.0,0.0,0.0,0.0,0.0,0.0,0.0,0.0,0.0,0.0,0.0,0.0,0.0,0.0,0.0,0.0,0.0,0.0,0.0,0.0,0.0,0.0,0.0,0.0,0.0,0.0,0.0,0.0,0.0,0.0,0.0,0.0,0.0,0.0,0.0,0.0,0.0,0.0,0.0,0.0,0.0,0.0,0.0,0.0,0.0,0.0,0.0,0.0,0.0,0.0,0.0,0.0,0.0,0.0,0.0,0.0,0.0,0.0,0.0,0.0,0.0,0.0,0.0,0.0,0.0,0.0,0.0,0.0,0.0,0.0,0.0,0.0,0.0,0.0,0.0,0.0,0.0,0.0,0.0,0.0,0.0,0.0,0.0,0.0,0.0,0.0,0.0,0.0,0.0,0.0,0.0,0.0,0.0,0.0,0.0,0.0,0.0,0.0,0.0,0.0,0.0,0.0,-2.0417,-2.0452,-2.0499,-2.0498,-2.0505,-2.0492,-2.049,-2.0449,-2.041,-2.0393,0.0,0.0,0.0,0.0,0.0,0.0,0.0,0.0,0.0,0.0,0.0,0.0,0.0,0.0,0.0,0.0,0.0,0.0,0.0,0.0,0.0,0.0,0.0,0.0,0.0,0.0,0.0,0.0,0.0,0.0,0.0,0.0,0.0,0.0,0.0,0.0,0.0,0.0,0.0,0.0,0.0,0.0,0.0,0.0,0.0,0.0,0.0,0.0,0.0,0.0,0.0,0.0,0.0,0.0,0.0,0.0,0.0,0.0,0.0,0.0,-2.8537,0.0,0.0,0.0,0.0,0.0,0.0,0.0,0.0,0.0,0.0,0.0,0.0,0.0,0.0,0.0,0.0,0.0,0.0,0.0,0.0,0.0,0.0,0.0,0.0,0.0,0.0,0.0,0.0,0.0,0.0,0.0,0.0,0.0,0.0,0.0,0.0,0.0,0.0,0.0,0.0,0.0,-2.0472,-2.0499,-2.0498,-2.0493,-2.0504,-2.0497,-2.0494,-2.0482,-2.0464,-2.0391,-2.0157,0.0,0.0,0.0,0.0,0.0,0.0,0.0,0.0,0.0,0.0,0.0,0.0,0.0,0.0,0.0,0.0,0.0,0.0,0.0,0.0,0.0,0.0,0.0,0.0,0.0,0.0,0.0,0.0,0.0,0.0,0.0,0.0,0.0,0.0,0.0,0.0,0.0,0.0,0.0,0.0,0.0,0.0,0.0,0.0,0.0,0.0,0.0,0.0,0.0,0.0,0.0,0.0,0.0,0.0,0.0,0.0,0.0,0.0,0.0,0.0,-2.8912,0.0,0.0,0.0,0.0,0.0,0.0,0.0,0.0,0.0,0.0,0.0,0.0,0.0,0.0,0.0,0.0,0.0,0.0,0.0,0.0,0.0,0.0,0.0,0.0,0.0,0.0,0.0,0.0,0.0,0.0,0.0,0.0,0.0,0.0,0.0,0.0,0.0,0.0,0.0,0.0,-2.0498,-2.0498,-2.0514,-2.0545,-2.054,-2.0535,-2.0509,-2.0505,-2.0472,-2.041,-2.0372,0.0,0.0,0.0,0.0,0.0,0.0,0.0,0.0,0.0,0.0,0.0,0.0,0.0,0.0,0.0,0.0,0.0,0.0,0.0,0.0,0.0,0.0,0.0,0.0,0.0,0.0,0.0,0.0,0.0,0.0,0.0,0.0,0.0,0.0,0.0,0.0,0.0,0.0,0.0,0.0,0.0,0.0,0.0,0.0,0.0,0.0,0.0,0.0,0.0,0.0,0.0,0.0,0.0,0.0,-3.2739,-3.2801,-3.2808,-3.4333,-3.6871,-3.4102,-3.3962,-3.533,0.0,0.0,0.0,0.0,0.0,0.0,0.0,0.0,0.0,0.0,0.0,0.0,0.0,0.0,0.0,0.0,0.0,0.0,0.0,0.0,0.0,0.0,0.0,0.0,0.0,-2.0597,-2.1315,0.0,0.0,0.0,0.0,0.0,0.0,0.0,0.0,0.0,0.0,0.0,0.0,-2.0711,-2.0863,-2.0973,-2.1022,-2.0902,-2.0798,-2.0731,-2.0594,-2.0465,-2.0398,-2.0387,-2.0025,0.0,0.0,0.0,0.0,0.0,0.0,0.0,0.0,0.0,0.0,0.0,0.0,0.0,0.0,0.0,0.0,0.0,0.0,0.0,0.0,0.0,0.0,0.0,0.0,0.0,0.0,0.0,0.0,0.0,0.0,0.0,0.0,-3.2808,-3.0058,0.0,0.0,0.0,0.0,0.0,0.0,0.0,0.0,0.0,0.0,0.0,0.0,0.0,0.0,-4.025,-4.0288,-4.0685,-4.1443,-4.1443,-4.1465,-4.154,-4.1543,-4.1828,-4.2291,-4.1895,0.0,-3.5636,-3.4841,0.0,0.0,0.0,0.0,0.0,0.0,0.0,0.0,0.0,0.0,0.0,0.0,0.0,0.0,0.0,0.0,0.0,0.0,0.0,0.0,0.0,0.0,-2.7808,-2.7926,-2.6391,-2.4907,0.0,-2.2581,-2.0464,-2.039,0.0,0.0,0.0,0.0,0.0,0.0,0.0,0.0,-2.1636,-2.2295,-2.2754,-2.2779,-2.2093,-2.1637,-2.1624,-2.0937,-2.0472,-2.0402,-2.0356,-2.0253,-2.013,-1.9288,0.0,0.0,0.0,0.0,0.0,0.0,0.0,0.0,0.0,0.0,0.0,0.0,0.0,0.0,0.0,0.0,0.0,0.0,0.0,0.0,0.0,0.0,0.0,0.0,0.0,0.0,0.0,0.0,0.0,-2.9308,-3.1365,-2.7942,-2.9654,-2.9173,0.0,0.0,0.0,0.0,0.0,0.0,0.0,0.0,0.0,-3.6776,-3.7373,-3.9219,-4.2508,-4.2527,-4.2725,-4.3092,-4.3092,-4.3135,-4.3204,-4.3209,-4.3218,-4.3253,-4.3305,-4.2034,-3.9816,-3.841,-3.623,-3.355,0.0,0.0,0.0,0.0,0.0,-2.9473,-3.2526,0.0,0.0,0.0,0.0,0.0,0.0,0.0,0.0,0.0,0.0,0.0,0.0,0.0,0.0,-2.9477,-2.937,-2.9258,-2.9258,-2.6928,-2.4103,0.0,-2.1575,-2.191,-2.1877,0.0,0.0,0.0,0.0,0.0,-2.2529,-2.2867,-2.3105,-2.3091,-2.2756,-2.2534,-2.2539,-2.1708,-2.1158,-2.1125,-2.0611,-2.029,-2.0304,-1.9465,-1.8816,0.0,0.0,0.0,0.0,0.0,0.0,0.0,0.0,0.0,0.0,0.0,0.0,0.0,0.0,0.0,0.0,0.0,0.0,0.0,0.0,0.0,0.0,0.0,0.0,0.0,0.0,0.0,0.0,-2.9,-3.0769,-2.8212,-3.0731,-3.0852,0.0,0.0,0.0,0.0,0.0,0.0,-3.4545,-3.518,-3.6668,-3.9219,-3.9931,-4.1277,-4.3393,-4.3412,-4.3525,-4.3731,-4.3731,-4.3766,-4.3809,-4.3802,-4.3824,-4.3832,-4.39,-4.3892,-4.3665,-4.139,-3.9998,-3.9059,-3.6509,-3.511,-3.4526,-3.4545,-3.4545,-3.4988,-3.82,-3.9296,-3.9623,-4.1527,0.0,-4.0123,-3.6315,0.0,0.0,0.0,0.0,-2.9916,-3.1231,0.0,-3.3005,-3.3092,-3.3426,-3.3731,-3.373,-3.1683,-2.8573,0.0,-2.327,-2.3077,-2.3028,0.0,0.0,0.0,0.0,-2.3421,-2.3429,-2.3626,-2.3766,-2.3771,-2.3569,-2.3422,-2.3405,-2.2566,-2.1931,-2.1685,-2.1013,-2.0523,-2.0312,-1.9658,-1.9208,-1.8997,0.0,0.0,0.0,0.0,0.0,0.0,0.0,0.0,0.0,0.0,0.0,0.0,0.0,0.0,0.0,0.0,0.0,0.0,0.0,0.0,0.0,0.0,0.0,0.0,0.0,0.0,0.0,0.0,0.0,-3.5019,-3.5173,0.0,0.0,0.0,0.0,-3.8361,-3.6584,-3.7423,-4.2277,-4.0315,-4.02,-4.2758,-4.2893,-4.3335,-4.422,-4.4239,-4.4671,-4.546,-4.546,-4.5479,-4.5479,-4.5488,-4.5513,-4.5574,-4.5574,-4.5574,-4.5439,-4.3717,-4.155,-3.9271,-3.9099,-3.7565,-3.5712,-3.8104,-3.8977,-3.9361,-4.1931,-4.2835,-4.2854,-4.2989,-4.0835,-3.8142,-3.7892,-3.5353,0.0,0.0,-3.685,-3.8105,-4.0636,-4.1981,-4.274,-4.2864,-4.0484,-3.8182,-3.8188,-3.6124,-3.3024,0.0,-2.5339,-2.3109,-2.3101,0.0,-2.3098,-2.3092,-2.3798,-2.4329,-2.4329,-2.506,-2.5573,-2.5573,-2.4836,-2.431,-2.425,-2.3437,-2.2543,-2.1664,-2.1563,-2.1163,-2.0327,-2.02,-1.9788,-1.9016,-1.8897,0.0,0.0,0.0,0.0,0.0,0.0,0.0,0.0,0.0,0.0,0.0,0.0,0.0,0.0,0.0,0.0,0.0,0.0,0.0,0.0,0.0,0.0,0.0,0.0,0.0,0.0,0.0,0.0,-3.2481,-3.5115,0.0,-3.4872,-3.6103,-3.7649,-3.9188,-3.9988,-4.1181,-4.3008,-4.272,-4.2931,-4.3835,-4.4412,-4.5124,-4.597,-4.597,-4.6394,-4.7201,-4.7201,-4.7201,-4.7201,-4.7201,-4.721,-4.7248,-4.7248,-4.6959,-4.6439,-4.5832,-4.4696,-4.336,-4.3344,-4.2805,-4.2104,-4.3017,-4.3344,-4.3478,-4.4402,-4.471,-4.4624,-4.4047,-4.2701,-4.1181,-4.0623,-3.9585,-3.8815,-3.9731,-4.025,-4.0887,-4.2447,-4.3079,-4.3373,-4.3501,-4.3004,-4.2492,-4.2537,-4.0505,-3.8206,-3.6709,-3.3665,-3.1343,-3.1349,-2.9511,-2.8055,-2.8054,-2.6445,-2.5221,-2.519,-2.5446,-2.564,-2.5634,-2.5364,-2.5148,-2.5082,-2.4271,-2.3616,-2.3223,-2.2681,-2.1974,-2.1119,-2.1054,-2.0642,-1.9788,-1.9788,-1.9381,0.0,0.0,0.0,0.0,0.0,0.0,0.0,0.0,0.0,0.0,0.0,0.0,0.0,0.0,0.0,0.0,0.0,0.0,0.0,0.0,0.0,0.0,0.0,0.0,0.0,0.0,-3.4769,-3.2769,-3.6519,-3.8604,-3.6911,-3.9315,-4.1112,-4.1401,-4.2989,-4.4066,-4.4374,-4.4893,-4.5297,-4.5566,-4.6144,-4.6721,-4.7298,-4.7288,-4.7567,-4.8105,-4.8105,-4.8105,-4.8105,-4.8105,-4.8105,-4.8105,-4.8105,-4.7798,-4.7288,-4.7288,-4.6971,-4.6394,-4.5825,-4.5594,-4.5594,-4.5594,-4.5594,-4.5594,-4.5594,-4.5594,-4.5498,-4.494,-4.4374,-4.3835,-4.3258,-4.3085,-4.3085,-4.3085,-4.311,-4.3304,-4.3943,-4.4102,-4.4131,-4.4257,-4.4699,-4.5129,-4.5156,-4.3806,-4.2597,-4.2592,-3.8961,-3.5862,-3.5866,-3.399,-3.2497,-3.2493,-2.958,-2.7367,-2.7307,-2.6276,-2.5576,-2.5563,-2.5562,-2.5541,-2.5473,-2.4942,-2.4451,-2.4129,-2.355,-2.2855,-2.1966,-2.1658,-2.1231,-2.0642,-2.0419,-1.9862,-1.9008,0.0,0.0,0.0,0.0,0.0,0.0,0.0,0.0,0.0,0.0,0.0,0.0,0.0,0.0,0.0,0.0,0.0,0.0,0.0,0.0,0.0,0.0,0.0,-3.1058,-3.3538,-3.6,-3.6788,-3.9846,-4.2527,-4.4143,-4.4316,-4.4701,-4.5575,-4.5633,-4.6009,-4.6885,-4.6942,-4.7288,-4.8086,-4.8105,-4.8105,-4.8144,-4.8144,-4.8144,-4.8182,-4.8182,-4.8182,-4.8182,-4.8182,-4.8182,-4.8182,-4.8182,-4.8163,-4.8144,-4.8144,-4.8125,-4.7952,-4.6278,-4.5633,-4.5633,-4.5614,-4.5594,-4.5594,-4.5594,-4.5594,-4.5594,-4.5594,-4.5594,-4.5594,-4.5594,-4.5594,-4.5594,-4.5594,-4.5594,-4.5622,-4.5684,-4.5695,-4.5723,-4.5786,-4.5847,-4.588,-4.5899,-4.5886,-4.5886,-4.5886,-4.0592,-3.6105,-3.6112,-3.6034,-3.5952,-3.5954,-3.3048,0.0,-3.0762,-2.7856,-2.5819,-2.5802,-2.5816,-2.5774,-2.5677,-2.5663,-2.5301,-2.443,-2.4369,-2.3971,-2.3105,-2.2274,-2.1812,-2.1773,-2.1,-2.0196,-1.9357,0.0,0.0,0.0,0.0,0.0,0.0,0.0,0.0,0.0,0.0,0.0,0.0,0.0,0.0,0.0,0.0,0.0,0.0,0.0,0.0,0.0,-3.4096,-3.6038,-3.5096,-3.7904,-4.0385,-4.1239,-4.2681,-4.3797,-4.4259,-4.4874,-4.5605,-4.649,-4.6547,-4.6894,-4.774,-4.7778,-4.7875,-4.8086,-4.8105,-4.8394,-4.9048,-4.9048,-4.9356,-4.999,-4.999,-4.999,-4.999,-4.999,-4.999,-4.999,-4.999,-4.9625,-4.9048,-4.9048,-4.8663,-4.8009,-4.6951,-4.6547,-4.6471,-4.5825,-4.5594,-4.5594,-4.5594,-4.5594,-4.5594,-4.5594,-4.5594,-4.5594,-4.5594,-4.5594,-4.5594,-4.5594,-4.5594,-4.5622,-4.5684,-4.5709,-4.5695,-4.5731,-4.5746,-4.5761,-4.5749,-4.5757,-4.5757,-4.5757,-4.4257,-4.3015,-4.3103,-4.1067,-3.9409,-3.9364,0.0,0.0,-3.4226,-3.3404,-3.28,-3.2759,-3.2748,-3.2486,-3.1846,-3.1777,-3.1413,-3.0537,-3.0473,-3.0102,-2.9294,-2.9025,-2.8602,-2.7962,-2.7731,-2.75,0.0,0.0,0.0,0.0,0.0,0.0,0.0,0.0,0.0,0.0,0.0,0.0,0.0,0.0,0.0,0.0,0.0,0.0,0.0,0.0,0.0,0.0,-3.7719,-3.9508,-3.9835,-4.1296,-4.2662,-4.3508,-4.4028,-4.4586,-4.5316,-4.5855,-4.649,-4.7336,-4.7413,-4.7778,-4.8606,-4.8644,-4.8817,-4.9183,-4.9183,-4.9433,-4.9933,-4.9933,-5.0212,-5.0712,-5.0712,-5.0712,-5.0712,-5.0712,-5.0712,0.0,-5.0712,-5.0423,-4.9933,-4.9933,-4.9644,0.0,0.0,0.0,0.0,0.0,-4.6144,-4.6086,-4.5729,-4.5594,-4.5594,-4.5594,-4.5594,-4.5594,-4.5594,-4.5594,-4.5594,-4.5594,-4.5594,-4.5622,-4.5648,-4.5657,-4.5657,-4.5662,-4.5651,-4.5651,-4.5651,-4.5651,-4.5651,-4.5651,0.0,0.0,-4.5765,-4.4148,-4.284,-4.2806,-3.9882,-3.7687,0.0,-3.644,-3.5541,-3.5496,-3.5489,-3.529,-3.4796,-3.4417,0.0,0.0,0.0,-3.2545,-3.1737,-3.1698,0.0,0.0,0.0,-3.0404,0.0,0.0,0.0,0.0,-2.552,-2.5506,0.0,0.0,0.0,0.0,0.0,0.0,0.0,0.0,0.0,0.0,0.0,0.0,0.0,0.0,0.0,0.0,-4.1566,-4.3528,-4.4335,-4.3835,-4.3643,-4.4355,-4.4528,-4.5201,-4.675,-4.6981,-4.7375,-4.8202,-4.8259,-4.8625,-4.949,0.0,0.0,0.0,0.0,-5.0846,-5.0846,-5.0943,-5.0981,-5.0981,-5.0981,-5.0981,-5.0981,-5.0981,-5.0943,-5.0846,-5.0846,-5.0789,-5.0712,-5.0712,-5.0712,-5.0539,-4.8894,-4.8202,-4.8009,-4.7298,-4.7038,0.0,0.0,0.0,0.0,-4.5787,-4.5748,-4.5729,-4.5633,-4.5594,-4.5594,-4.5594,-4.5594,-4.5594,-4.5594,-4.5594,-4.5594,-4.5594,-4.5594,-4.5594,-4.5594,-4.5594,-4.5594,-4.5594,-4.5594,-4.5594,-4.5594,-4.5643,-4.5692,-4.5692,-4.3119,0.0,-4.1154,-3.852,-3.6631,-3.6642,0.0,0.0,-3.65,-3.5776,-3.5264,-3.5071,-3.4237,-3.3449,-3.2718,-3.2699,-3.2333,-3.1558,-3.1538,-3.1538,-3.1538,-3.1615,-3.2859,-3.5035,-3.1588,-2.9742,0.0,0.0,0.0,0.0,0.0,0.0,0.0,0.0,0.0,0.0,0.0,0.0,0.0,0.0,0.0,-3.9919,-4.2412,-4.4374,-4.5229,-4.521,-4.5171,-4.5325,-4.597,-4.6528,-4.6865,-4.749,-4.8221,-4.9086,-4.9144,-4.9529,-5.0404,-5.0462,0.0,-5.0693,-5.1337,-5.1673,-5.1673,-5.2375,-5.2722,-5.2722,0.0,0.0,-5.2722,-5.2722,-5.2337,-5.1673,-5.1673,-5.1298,-5.0712,-5.0712,-5.0712,-5.0596,-4.9548,-4.8721,-4.8086,-4.7932,-4.7875,-4.7836,-4.7663,-4.7625,-4.7509,-4.6855,-4.6644,-4.6528,-4.5806,-4.5594,0.0,-4.5594,-4.5594,-4.5594,-4.5594,-4.5594,-4.5594,-4.5594,-4.5594,-4.5594,-4.5594,-4.5594,-4.5594,-4.5594,-4.5594,-4.5594,-4.5594,-4.5612,-4.562,-4.562,-4.5062,-4.463,-4.4622,-4.4064,-4.3651,-4.3651,-4.3651,-4.3355,-4.2662,-4.2431,-4.1777,-4.0431,-3.9508,-3.8957,-3.8803,-3.8803,-3.8726,-3.8553,-3.8553,-3.8553,-3.8553,-3.8671,-3.9012,-3.947,-3.539,-3.4554,0.0,0.0,0.0,0.0,0.0,0.0,0.0,0.0,0.0,0.0,0.0,-3.4237,-3.6868,0.0,-4.0092,-4.2651,-4.4132,-4.5094,-4.5537,-4.597,-4.624,-4.624,-4.6624,-4.724,-4.8067,-4.8509,-4.9106,-4.999,-5.0048,-5.025,-5.0673,-5.1087,-5.1298,-5.1298,-5.2106,-5.2538,-5.2538,-5.2991,-5.3203,-5.3203,-5.3203,-5.3203,-5.3203,-5.3203,-5.2972,-5.2519,-5.2096,-5.1673,-5.1279,-5.0856,-5.0712,-5.0654,-5.0231,-4.9779,-4.9356,-4.8913,-4.8759,-4.8682,-4.8259,-4.8105,-4.8029,-4.7625,-4.7509,-4.7432,-4.6971,-4.6855,-4.6759,-4.6355,-4.624,-4.6144,-4.571,-4.5594,-4.5594,-4.5594,-4.5594,-4.5594,-4.5594,-4.5594,-4.5594,-4.5594,-4.5594,-4.5594,-4.5594,-4.5594,-4.5594,-4.5594,-4.5594,-4.5594,-4.5594,-4.5594,-4.5594,-4.5594,-4.5594,-4.5421,-4.4998,-4.4547,-4.3585,-4.1904,-4.1393,-4.095,-4.0516,-4.0496,-4.0496,-4.0496,-4.0496,-4.0496,-4.0496,-4.061,-4.0674,-4.0699,-3.8622,-3.8388,0.0,0.0,0.0,0.0,0.0,0.0,0.0,0.0,-3.3907,-3.4014,-3.5695,-3.8017,-4.0949,-4.15,-4.2382,-4.5152,-4.5594,-4.5671,-4.5825,-4.6471,-4.7019,-4.7355,-4.7394,-4.7913,-4.926,-4.9548,-4.9933,-5.0654,-5.0712,-5.077,-5.0914,-5.1548,-5.1981,-5.2154,-5.301,-5.3453,-5.3453,-5.3606,-5.3683,-5.3683,-5.3683,-5.3683,-5.3683,-5.3683,-5.3606,-5.3395,-5.2346,-5.1904,-5.1846,-5.1029,-5.0712,-5.0712,-5.0712,-5.0712,-5.0616,-4.9913,-4.9644,-4.9548,-4.8856,-4.8606,-4.8586,-4.8413,-4.8355,-4.8317,-4.8144,-4.8105,-4.7971,-4.7317,-4.7135,-4.6951,-4.6086,-4.5845,-4.5806,-4.5633,-4.5594,-4.5594,-4.5594,-4.5594,-4.5594,-4.5594,-4.5594,-4.5594,-4.5594,-4.5594,-4.5594,-4.5594,-4.5594,-4.5594,-4.5594,-4.5594,-4.5594,-4.5594,-4.5594,-4.5594,-4.5594,-4.4797,-4.372,-4.2374,-4.2143,-4.1662,-4.0785,-4.0746,-4.0669,-4.0496,-4.0496,-4.0496,-4.0496,-4.0573,-4.0619,-4.0681,-4.0751,-4.0873,-3.1759,-3.3395,-3.5253,-3.6255,-3.5022,-3.3555,0.0,0.0,-3.8386,-3.8481,-4.105,-4.3669,-4.4827,-4.5037,-4.5152,-4.5537,-4.5594,-4.5883,-4.6644,-4.6827,-4.7451,-4.8933,-4.9125,-4.9183,-4.9375,-5.0087,-5.0596,-5.0693,-5.0712,-5.101,-5.1731,-5.1846,-5.225,-5.3029,-5.3895,-5.4357,-5.4357,-5.5049,-5.5415,-5.5415,-5.5415,-5.5415,-5.5415,-5.5415,-5.503,-5.426,-5.2596,-5.1904,-5.1846,-5.1029,-5.0712,-5.0712,-5.0712,-5.0712,-5.0693,-5.0596,-5.0558,-5.0539,-5.0442,-5.0423,-5.0289,-4.951,-4.924,-4.9106,-4.8336,-4.8105,-4.8086,-4.799,-4.7971,-4.7778,-4.6971,-4.6759,-4.6567,-4.5787,-4.5594,-4.5594,-4.5594,-4.5594,-4.5594,-4.5594,-4.5594,-4.5594,-4.5594,-4.5594,-4.5594,-4.5594,-4.5594,-4.5594,-4.5594,-4.5594,-4.5594,-4.5594,-4.5594,-4.5594,-4.5594,-4.4797,-4.422,-4.4028,-4.3355,-4.2566,-4.17,-4.1662,-4.1296,-4.0516,-4.0496,-4.0496,-4.0496,-4.0573,-4.0591,-4.0609,-4.0745,-4.0878,-3.6337,-3.7935,-3.9157,-3.969,-3.9507,-3.9182,-3.9235,-4.0729,-4.2136,-4.2168,-4.3714,-4.5164,-4.5528,-4.5594,-4.5594,0.0,-4.5594,-4.5893,-4.6778,-4.7288,-4.8048,-4.926,-4.9856,-5.0173,-5.0173,-5.05,-5.0712,-5.0712,-5.0712,-5.1048,-5.1865,-5.2385,-5.3068,-5.3933,-5.4761,-5.5203,-5.5203,-5.553,-5.5703,-5.5703,-5.5703,-5.5703,-5.5703,-5.5703,-5.5261,-5.4434,-5.3203,-5.2365,-5.1846,-5.1029,-5.0712,-5.0712,-5.0712,-5.0712,-5.0712,-5.0712,-5.0712,-5.0712,-5.0712,-5.0712,-5.0635,-5.0289,-5.0173,-5.0087,-4.9721,-4.9606,-4.951,-4.899,-4.8856,-4.8663,-4.7817,-4.7605,-4.7394,-4.6547,-4.6355,-4.622,-4.571,-4.5594,-4.5594,-4.5594,-4.5594,-4.5594,-4.5594,-4.5594,-4.5594,-4.5594,-4.5594,-4.5594,-4.5594,-4.5594,-4.5594,-4.5594,-4.5594,-4.5594,-4.5594,-4.5267,-4.4836,-4.4335,-4.397,-4.3412,-4.2585,-4.2066,-4.1643,-4.1258,-4.0766,-4.0496,-4.0496,-4.0531,-4.0554,-4.0598,-4.0668,-4.075,-3.8585,-4.0227,0.0,-4.2135,-4.2765,-4.3365,-4.3658,-4.4215,-4.4666,-4.4662,-4.5171,-4.5594,-4.5594,-4.5594,-4.5594,-4.5594,-4.5806,-4.6259,-4.7105,-4.7952,-4.8779,-4.9644,-5.0327,-5.0712,-5.0712,-5.0712,-5.0712,-5.0712,-5.0914,-5.1395,-5.2212,-5.3087,-5.3953,-5.4799,-5.5395,-5.5703,-5.5703,-5.5703,-5.5703,-5.5703,-5.5703,-5.5703,-5.5703,-5.5703,-5.5376,-5.478,-5.3933,-5.3068,-5.2192,-5.1375,-5.0894,-5.0712,-5.0712,-5.0712,-5.0712,-5.0712,-5.0712,-5.0712,-5.0712,-5.0712,-5.0712,-5.0712,-5.0712,-5.0712,-5.0712,-5.0712,-5.0577,-4.9933,-4.976,-4.9548,-4.8682,-4.8471,-4.8259,-4.7432,-4.7058,-4.674,-4.6086,-4.5768,-4.5594,-4.5594,-4.5594,-4.5594,-4.5594,-4.5594,-4.5594,-4.5594,-4.5594,-4.5594,-4.5594,-4.5594,-4.5594,-4.5594,-4.5594,-4.5594,-4.5594,-4.5594,-4.5325,-4.4701,-4.4662,-4.4297,-4.347,-4.2816,-4.2393,-4.2162,-4.1296,-4.0854,-4.0854,-4.0631,-4.0531,-4.0573,-4.0598,-4.0641,-3.7928,-3.9859,-4.272,-4.3829,-4.4189,-4.4489,-4.5316,-4.5537,-4.5556,-4.5556,-4.5575,-4.5594,-4.5594,-4.5594,-4.5594,-4.5594,-4.6317,-4.7144,-4.7952,-4.8817,-4.9683,-5.0558,-5.0693,-5.0712,0.0,-5.0712,-5.0712,-5.0712,-5.1414,-5.2231,-5.3106,-5.3991,-5.4818,-5.5645,-5.5684,-5.5703,-5.5703,-5.5703,-5.5703,-5.5703,-5.5703,-5.5703,-5.5703,-5.5703,-5.5684,-5.5607,-5.4799,-5.3972,-5.3087,-5.2212,-5.1395,-5.0712,-5.0712,-5.0712,-5.0712,-5.0712,-5.0712,-5.0712,-5.0712,-5.0712,-5.0712,-5.0712,-5.0712,-5.0712,-5.0712,-5.0712,-5.0693,-5.0673,-5.0654,-5.0462,-4.9586,-4.9356,-4.9144,-4.8279,-4.7471,-4.6885,-4.6865,-4.6201,-4.5594,-4.5594,-4.5594,-4.5594,-4.5594,-4.5594,-4.5594,-4.5594,-4.5594,-4.5594,-4.5594,-4.5594,-4.5594,-4.5594,-4.5594,-4.5594,-4.5594,-4.5594,-4.5594,-4.5556,-4.5556,-4.5171,-4.4297,-4.4239,-4.3855,-4.3085,-4.22,-4.175,-4.175,-4.0912,-4.0496,-4.0496,-4.0573,-4.0591,-4.0111,-4.1923,-4.3503,-4.4068,-4.4688,-4.5248,-4.5537,-4.5594,-4.5594,-4.5594,-4.3805,-4.2401,-4.297,-4.2604,-4.242,-4.2989,-4.524,-4.7173,-4.799,-4.8856,-4.9721,-5.0596,-5.0712,0.0,0.0,0.0,0.0,-5.1471,-5.175,-5.2519,-5.3991,-5.4337,-5.4876,-5.5665,-5.5703,-5.5703,-5.5703,-5.5703,-5.5703,-5.5703,-5.5703,-5.5703,-5.5703,-5.5703,-5.5703,-5.5665,-5.4857,-5.4337,-5.3953,-5.25,-5.1731,-5.1433,-5.0914,-5.0712,-5.0712,-5.0712,-5.0712,-5.0712,-5.0712,-5.0712,-5.0712,-5.0712,-5.0712,-5.0712,-5.0712,-5.0712,-5.0712,-5.0712,-5.0712,-5.0635,-5.0346,-5.0269,-5.0029,-4.9163,-4.8759,-4.8259,-4.7144,-4.6682,-4.6297,-4.571,-4.5594,-4.5594,-4.5594,-4.5594,-4.5594,-4.5594,-4.5594,-4.5594,-4.5594,-4.5594,-4.5594,-4.5594,-4.5594,-4.5594,-4.5594,-4.5594,-4.5594,-4.5594,-4.5594,-4.5479,-4.5171,-4.4605,-4.4162,-4.3893,-4.3085,-4.2662,-4.2662,-4.2374,-4.222,-4.222,-4.2255,-4.2268,-4.0928,-4.2777,-4.4312,-4.4566,-4.512,-4.5594,-4.5594,-4.5594,-4.5594,-4.5594,-4.3132,-4.1143,-4.17,-4.1335,-4.1143,-4.1712,-4.4904,-4.7509,-4.8029,-4.9125,-5.0067,-5.0635,-5.0712,-5.0712,0.0,0.0,0.0,-5.1865,-5.2192,-5.2991,-5.4414,-5.4761,-5.5164,-5.5684,-5.5703,-5.5703,-5.5703,-5.5703,-5.5703,-5.5703,-5.5703,-5.5703,-5.5703,-5.5703,-5.5703,-5.5665,-5.5145,-5.4761,-5.4414,-5.3299,-5.2462,-5.1846,-5.1337,-5.0952,-5.0712,-5.0712,-5.0712,-5.0712,-5.0712,-5.0712,-5.0712,-5.0712,-5.0712,-5.0712,-5.0712,-5.0712,-5.0712,-5.0712,-5.0712,-5.0712,-5.0712,-5.0712,-5.0558,-4.999,-4.9625,-4.9106,-4.8029,-4.7317,-4.674,-4.6163,-4.5806,-4.5594,-4.5594,-4.5594,-4.5594,-4.5594,-4.5594,-4.5594,-4.5594,-4.5594,-4.5594,-4.5594,-4.5594,-4.5594,-4.5594,-4.5594,-4.5594,-4.5594,-4.5594,-4.5594,-4.5594,-4.5056,-4.4759,-4.4759,-4.3951,-4.3528,-4.3528,-4.3239,-4.3104,-4.3104,-4.3104,-4.3102,-4.0556,-4.2523,-4.514,-4.5351,-4.5504,-4.5594,-4.5594,-4.5594,-4.5586,-4.5586,-4.3431,-4.1558,0.0,0.0,-4.1365,-4.1404,-4.5028,-4.7855,-4.7894,-4.9471,-5.0654,0.0,0.0,0.0,0.0,0.0,0.0,-5.1962,0.0,-5.3645,-5.4511,-5.528,-5.5703,-5.5703,-5.5703,-5.5703,-5.5703,-5.5703,-5.5703,-5.5703,-5.5703,-5.5703,-5.5703,-5.5703,-5.5703,-5.5703,-5.5703,-5.5261,-5.4549,-5.4511,-5.353,-5.2019,-5.1981,-5.1471,-5.077,-5.077,-5.075,-5.0712,-5.0712,-5.0712,-5.0712,-5.0712,-5.0712,-5.0712,-5.0712,-5.0712,-5.0712,-5.0712,-5.0712,-5.0712,-5.0712,-5.0712,-5.0712,-5.0712,-5.0067,-4.9452,-4.9413,-4.8125,-4.6942,-4.6904,-4.6201,-4.5594,-4.5594,-4.5594,-4.5594,-4.5594,-4.5594,-4.5594,-4.5594,-4.5594,-4.5594,-4.5594,-4.5594,-4.5594,-4.5594,-4.5594,-4.5594,-4.5594,-4.5594,-4.5594,-4.5594,-4.5594,-4.5594,-4.5594,-4.4778,-4.4374,-4.4355,-4.3605,-4.322,-4.322,-4.322,-4.322,-4.2888,-4.4251,-4.514,-4.5351,-4.5504,-4.5594,-4.5594,-4.5568,-4.5541,-4.5541,-4.1481,-3.8116,0.0,0.0,0.0,-3.6026,-4.0777,0.0,-4.5182,-4.7836,0.0,-5.0616,0.0,-5.0712,-5.0712,-5.1433,0.0,0.0,-5.3683,-5.453,-5.5338,-5.5588,-5.5703,-5.5703,-5.5703,-5.5703,-5.5703,-5.5703,-5.5703,-5.5703,-5.5703,-5.5703,-5.5703,-5.5703,-5.5703,-5.5703,-5.5703,-5.5568,-5.5338,-5.4741,-5.4241,-5.378,-5.3126,-5.2356,-5.1587,-5.1587,-5.1202,-5.0712,-5.0712,-5.0712,-5.0712,-5.0712,-5.0712,-5.0712,-5.0712,-5.0712,-5.0712,-5.0712,-5.0712,-5.0712,-5.0712,-5.0712,-5.0712,-5.0712,-5.0539,-5.0183,-4.9529,-4.8548,-4.7625,-4.7019,-4.6201,-4.5594,-4.5594,-4.5594,-4.5594,-4.5594,-4.5594,-4.5594,-4.5594,-4.5594,-4.5594,-4.5594,-4.5594,-4.5594,-4.5594,-4.5594,-4.5594,-4.5594,-4.5594,-4.5594,-4.5594,-4.5594,-4.5594,-4.5594,-4.5383,-4.5267,-4.5267,-4.5056,-4.496,-4.496,-4.496,-4.496,-4.4124,-4.4914,-4.514,-4.5351,-4.5504,-4.5201,-4.3712,-4.3611,-4.3403,-4.1871,-3.829,-3.5611,-3.6105,-3.4678,0.0,0.0,0.0,0.0,-4.5701,-4.7952,-4.9721,0.0,-5.0712,0.0,-5.1183,-5.1991,-5.2837,0.0,-5.4222,-5.4857,-5.5665,-5.5703,-5.5703,-5.5703,-5.5703,-5.5703,-5.5703,-5.5703,-5.5703,-5.5703,-5.5703,-5.5703,-5.5703,-5.5703,-5.5703,-5.5703,0.0,-5.5703,-5.5665,-5.5203,-5.4818,-5.4453,-5.3953,-5.3241,-5.2462,-5.2462,-5.1952,-5.1221,-5.1221,-5.0991,-5.0712,-5.0712,-5.0712,-5.0712,-5.0712,-5.0712,-5.0712,-5.0712,-5.0712,-5.0712,-5.0712,-5.0712,-5.0712,-5.0712,-5.0712,-5.0577,-5.0067,-4.899,-4.7759,-4.6567,-4.5932,-4.5594,-4.5594,-4.5594,-4.5594,-4.5594,-4.5594,-4.5594,-4.5594,-4.5594,-4.5594,-4.5594,-4.5594,-4.5594,-4.5594,-4.5577,-4.5559,-4.5559,-4.5522,-4.5541,-4.554,-4.5559,-4.5568,-4.5594,-4.5594,-4.5594,-4.5594,-4.5594,-4.5594,-4.5594,-4.5594,-4.5594,-4.4632,-4.4914,-4.514,-4.5351,-4.5495,-4.4731,-4.141,-4.1187,-4.0713,-3.7334,-3.5218,-3.396,-3.3975,-3.4037,-3.469,-3.6584,0.0,-4.3528,-4.6644,-4.8029,-4.9202,-5.0539,-5.0712,-5.101,-5.1808,-5.2692,-5.3568,-5.4434,-5.4607,-5.4953,-5.5665,-5.5703,-5.5703,-5.5703,-5.5703,-5.5703,-5.5703,-5.5703,-5.5703,-5.5703,-5.5703,-5.5703,-5.5703,-5.5703,-5.5703,-5.5703,0.0,0.0,-5.5703,-5.5703,-5.528,-5.4664,-5.4664,-5.4126,-5.3376,-5.3376,-5.2818,-5.2058,-5.1942,-5.1433,-5.0846,-5.0731,-5.0712,-5.0712,-5.0712,-5.0712,-5.0712,-5.0712,-5.0712,-5.0712,-5.0712,-5.0712,-5.0712,-5.0712,-5.0712,-5.0712,-5.0712,-4.9336,-4.7644,-4.6067,-4.5691,-4.5594,-4.5594,-4.5594,-4.5594,-4.5594,-4.5594,-4.5594,-4.5594,-4.5594,-4.5594,-4.5594,-4.5594,-4.5594,-4.5594,-4.555,-4.5504,-4.5504,-4.5438,-4.5429,-4.5485,-4.5495,-4.5522,-4.5586,-4.5605,-4.5594,-4.5594,-4.5594,-4.5594,-4.5594,-4.5594,-4.5594,-4.4632,-4.4914,-4.514,-4.5351,-4.5448,-4.4812,-4.2117,-4.1512,0.0,-3.7918,-3.5417,-3.3774,-3.3813,-3.3933,-3.3489,-3.1885,-3.5717,-3.9565,-4.1535,-4.3758,-4.6547,0.0,-5.0712,-5.101,-5.1808,-5.2692,0.0,0.0,0.0,-5.5549,-5.5684,-5.5703,-5.5703,-5.5703,-5.5703,-5.5703,-5.5703,-5.5703,-5.5703,-5.5703,-5.5703,-5.5703,-5.5703,-5.5703,-5.5703,-5.5703,0.0,0.0,-5.5703,-5.5703,-5.5607,-5.5491,-5.5491,-5.4991,-5.426,-5.426,-5.3722,-5.2876,-5.2154,-5.1808,-5.1587,-5.0914,-5.0712,-5.0712,-5.0712,-5.0712,-5.0712,-5.0712,-5.0712,-5.0712,-5.0712,-5.0712,-5.0712,-5.0712,-5.0712,-5.0712,-5.0712,-4.9336,-4.7817,-4.6855,-4.6086,-4.5594,-4.5594,-4.5594,-4.5594,-4.5594,-4.5594,-4.5594,-4.5594,-4.5594,-4.5594,-4.5594,-4.5594,-4.5594,-4.5594,-4.555,-4.5504,-4.5504,-4.5438,-4.541,-4.5419,-4.5476,-4.5504,-4.5513,-4.5568,-4.5594,-4.5594,-4.5594,-4.5594,-4.5594,-4.5594,-4.5594,-4.4632,-4.4914,-4.514,-4.5351,-4.5419,-4.4316,-3.9985,0.0,0.0,-3.3724,-3.2173,-3.1644,-3.1758,-3.2964,-3.3578,-3.2453,-3.5491,-3.9046,-4.2055,-4.3528,-4.5893,-5.0192,-5.0712,-5.1183,0.0,-5.2953,0.0,0.0,0.0,0.0,-5.5703,-5.5703,-5.5703,-5.5703,-5.5703,-5.5703,-5.5703,-5.5703,-5.5703,-5.5703,-5.5703,-5.5703,-5.5703,-5.5703,-5.5703,-5.5703,0.0,0.0,-5.5703,-5.5703,-5.5703,-5.5703,-5.5703,-5.5453,-5.5126,-5.5126,-5.4587,-5.376,-5.2876,-5.2269,-5.1769,-5.0952,-5.0712,-5.0712,-5.0712,-5.0712,-5.0712,-5.0712,-5.0712,-5.0712,-5.0712,-5.0712,-5.0712,-5.0712,-5.0712,-5.0577,-5.0106,-4.9375,-4.8529,-4.7702,-4.7182,-4.6759,-4.6355,-4.6278,-4.6124,-4.5671,-4.5594,-4.5594,-4.5594,-4.5594,-4.5594,-4.5594,-4.5594,-4.5586,-4.5559,-4.5495,-4.5448,-4.5448,-4.539,-4.5351,-4.54,-4.5429,-4.5467,-4.5504,-4.5522,-4.5568,-4.5594,-4.5594,-4.5594,-4.5594,-4.5594,-4.5594,-4.4431,-4.487,-4.5117,-4.5301,-4.5351,-4.3848,-3.8044,-3.7091,-3.5778,-2.9935,-2.925,-2.9727,-2.9851,-3.2072,-3.3757,0.0,-3.5484,-3.8661,-4.2893,-4.3489,-4.5278,0.0,-5.0712,0.0,-5.3049,-5.3203,0.0,0.0,0.0,0.0,-5.5703,-5.5703,-5.5703,-5.5703,-5.5703,-5.5703,-5.5703,-5.5703,-5.5703,-5.5703,-5.5703,-5.5703,-5.5703,-5.5703,-5.5703,-5.5703,0.0,0.0,0.0,-5.5703,-5.5703,-5.5703,-5.5703,-5.5703,-5.5703,-5.5703,-5.5299,-5.4626,-5.378,-5.2914,-5.2038,-5.1221,-5.0846,-5.0712,-5.0712,-5.0712,-5.0712,-5.0712,-5.0712,-5.0712,-5.0712,-5.0712,-5.0712,-5.0712,-5.0712,-5.0519,-4.9817,-4.9529,-4.9202,-4.8509,-4.824,-4.7894,-4.7278,-4.7,-4.6682,-4.597,-4.5729,-4.5594,-4.5594,-4.5594,-4.5586,-4.5577,-4.5577,-4.5559,-4.5504,-4.5448,-4.539,-4.5408,-4.5338,-4.5317,-4.5388,-4.5398,-4.5429,-4.5486,-4.5485,-4.5541,-4.5577,-4.5586,-4.5594,-4.5594,-4.5594,-4.5594,-4.3737,-4.4796,-4.5038,-4.5192,-4.5224,-4.3848,-3.8604,0.0,-3.5765,-3.0564,-2.9561,-2.9645,-2.9782,-3.2003,-3.3126,-3.1001,-3.2833,-3.6014,-4.0265,-4.0843,-4.3305,-4.9904,0.0,0.0,-5.3049,0.0,0.0,0.0,0.0,0.0,0.0,-5.5703,-5.5703,-5.5703,-5.5703,-5.5703,-5.5703,-5.5703,-5.5703,-5.5703,-5.5703,-5.5703,-5.5703,-5.5703,-5.5703,-5.5703,0.0,0.0,0.0,-5.5703,-5.5703,-5.5703,-5.5703,-5.5703,-5.5703,-5.5703,-5.5645,-5.5472,-5.4664,-5.3818,-5.2953,-5.2058,-5.1298,-5.0712,-5.0712,-5.0712,-5.0712,-5.0712,-5.0712,-5.0712,-5.0712,-5.0712,-5.0712,-5.0712,-5.0712,-5.0673,-5.0596,-4.9952,-4.9375,-4.9298,-4.8644,-4.8086,-4.8009,-4.7394,-4.6865,-4.6797,-4.6105,-4.5594,-4.5594,-4.5594,-4.5577,-4.5513,-4.5504,-4.5504,-4.5504,-4.5429,-4.5389,-4.5408,-4.5338,-4.5307,-4.5307,-4.5378,-4.5389,-4.5399,-4.5477,-4.5504,-4.5504,-4.5568,-4.5594,-4.5594,-4.5594,-4.5594,-4.3581,-4.4712,-4.4907,-4.5057,-4.5014,-4.3634,-3.8527,0.0,-3.5578,-3.0519,-2.9511,-2.957,-2.9727,-3.1967,-3.3015,-3.0642,-3.2474,0.0,-3.9919,-4.0496,-4.3036,-4.9885,-5.1125,0.0,0.0,0.0,0.0,0.0,0.0,0.0,0.0,-5.5703,-5.5703,-5.5703,-5.5703,-5.5703,-5.5703,-5.5703,-5.5703,-5.5703,-5.5703,-5.5703,-5.5703,-5.5703,-5.5703,-5.5703,0.0,0.0,0.0,-5.5703,-5.5703,-5.5703,-5.5703,-5.5703,-5.5703,-5.5703,-5.5703,-5.5568,-5.478,-5.3933,-5.3068,-5.2173,-5.1356,-5.0712,-5.0712,-5.0712,-5.0712,-5.0712,-5.0712,-5.0712,-5.0712,-5.0712,-5.0712,-5.0712,-5.0663,-5.0633,-5.0633,-5.0364,-5.0115,-5.0115,-4.9875,-4.949,-4.8971,-4.8625,-4.8067,-4.7038,-4.6605,-4.6182,-4.5671,-4.5568,-4.5522,-4.5504,-4.5504,-4.5476,-4.5438,-4.5409,-4.5369,-4.5338,-4.5317,-4.5307,-4.5307,-4.5328,-4.5348,-4.5408,-4.5438,-4.5448,-4.5504,-4.5568,-4.5594,-4.5594,-4.5594,-4.5594,-4.2894,-4.4363,-4.4719,-4.4821,-4.4235,-4.2498,-3.8169,0.0,-3.4573,-3.0259,-2.9443,-2.9522,-2.9663,-3.1318,-3.2133,-3.0466,0.0,-3.5673,-3.8911,-4.0239,-4.2758,0.0,0.0,0.0,0.0,0.0,0.0,0.0,0.0,0.0,0.0,-5.5703,-5.5703,-5.5703,-5.5703,-5.5703,-5.5703,-5.5703,-5.5703,-5.5703,-5.5692,-5.5662,-5.5662,-5.564,-5.564,0.0,0.0,0.0,0.0,-5.5703,-5.5703,-5.5703,-5.5703,-5.5703,-5.5703,-5.5703,-5.5692,-5.5585,-5.5028,-5.4237,-5.3381,-5.2517,-5.1671,-5.0941,-5.072,-5.0663,-5.0712,-5.0712,-5.0712,-5.0712,-5.0712,-5.0712,-5.0683,-5.0682,-5.0633,-5.0593,-5.0563,-5.0572,-5.0582,-5.0593,-5.0633,-5.0481,-4.9894,-4.9567,-4.899,-4.7817,-4.7221,-4.6673,-4.603,-4.5695,-4.5485,-4.5477,-4.5477,-4.5448,-4.5389,-4.5369,-4.5348,-4.5307,-4.5307,-4.5307,-4.5307,-4.5307,-4.5317,-4.5359,-4.539,-4.5419,-4.5476,-4.5559,-4.5594,-4.5594,-4.5594,-4.5594,-4.1352,-4.3689,-4.4501,-4.4496,-4.265,-4.014,-3.7517,-3.4946,-3.2415,-2.9834,-2.9404,-2.9531,-2.9589,-2.9841,-3.0072,-3.0171,-3.313,0.0,-3.6615,-3.9654,-4.2143,0.0,0.0,0.0,0.0,0.0,0.0,0.0,0.0,0.0,0.0,-5.5703,-5.5703,-5.5703,-5.5703,-5.5703,-5.5703,-5.5703,-5.5703,-5.5703,-5.5629,-5.5596,-5.5596,-5.5527,0.0,0.0,0.0,0.0,0.0,-5.5703,-5.5703,-5.5703,-5.5703,-5.5703,-5.5703,-5.5703,-5.5671,-5.5596,-5.5596,-5.5013,-5.4143,-5.3261,-5.2398,-5.1544,-5.073,-5.0584,-5.0712,-5.0712,-5.0712,-5.0712,-5.0712,-5.0712,-5.0673,-5.0613,-5.0603,-5.0582,-5.0511,-5.05,-5.0521,-5.0593,-5.0603,-5.0623,-5.0683,-4.9971,-4.9394,-4.9375,-4.7971,-4.6876,-4.6801,-4.6032,-4.5467,-4.5418,-4.5408,-4.5408,-4.5408,-4.5338,-4.5307,-4.5307,-4.5307,-4.5307,-4.5307,-4.5307,-4.5307,-4.5307,-4.537,-4.541,-4.541,-4.5522,-4.5594,-4.5594,-4.5594,-4.5594,-3.5844,-3.723,-3.7536,-3.7536,-3.7331,-3.646,-3.3983,-3.3138,-3.2196,-2.9797,-2.9341,-2.9414,-2.956,-2.9736,-3.0467,-3.2289,-3.4097,0.0,0.0,0.0,0.0,-4.211,0.0,0.0,0.0,0.0,0.0,0.0,0.0,0.0,0.0,0.0,-5.5703,-5.5703,-5.5703,-5.5703,-5.5703,-5.5703,-5.5682,-5.5629,-5.5607,-5.5573,-5.5527,-5.5516,0.0,0.0,0.0,0.0,0.0,-5.5673,-5.5703,-5.5703,-5.5703,-5.5703,-5.5684,-5.564,-5.5618,-5.5596,-5.5551,-5.4998,-5.415,-5.328,-5.2417,-5.1544,-5.073,-5.0553,-5.0633,-5.0702,-5.0712,-5.0712,-5.0712,-5.0712,-5.0673,-5.0613,-5.0553,-5.0511,-5.0446,-5.0435,-5.0435,-5.0457,-5.05,-5.0542,-5.0623,-5.0393,-5.0028,-4.949,-4.8443,-4.7511,-4.6877,-4.5995,-4.5419,-4.5408,-4.5348,-4.5328,-4.5328,-4.5317,-4.5307,-4.5307,-4.5307,-4.5307,-4.5307,-4.5307,-4.5317,-4.5378,-4.539,-4.5419,-4.5476,-4.5559,-4.5594,-4.5594,-4.5594,-4.5594,-3.2538,-3.3944,-3.4216,-3.4216,-3.4086,-3.3574,-3.2068,-3.157,-3.1041,-2.9565,-3.003,-3.0469,-2.9669,-3.0396,-3.1365,-3.2115,-3.4923,-3.6809,0.0,0.0,0.0,0.0,0.0,0.0,0.0,0.0,0.0,0.0,0.0,0.0,0.0,0.0,-5.564,-5.5618,-5.5662,-5.5692,-5.5651,-5.5651,-5.564,-5.5596,-5.5551,-5.5504,-5.5468,0.0,0.0,0.0,0.0,0.0,0.0,-5.5662,-5.5703,-5.5703,-5.5703,-5.5673,-5.5671,-5.5607,-5.5562,-5.5516,-5.548,-5.5119,-5.4559,-5.3709,-5.2617,-5.1507,-5.0706,-5.0521,-5.0603,-5.0643,-5.0673,-5.0712,-5.0712,-5.0673,-5.0643,-5.0582,-5.0511,-5.0427,-5.039,-5.0348,-5.0379,-5.0401,-5.0435,-5.0489,-5.0542,-5.0582,-5.044,-4.9932,-4.9106,-4.8231,-4.7367,-4.6435,-4.5742,-4.5397,-4.5328,-4.5307,-4.5307,-4.5307,-4.5307,-4.5307,-4.5307,-4.5307,-4.5307,-4.5307,-4.5317,-4.5359,-4.539,-4.5419,-4.5457,-4.554,-4.5594,-4.5594,-4.5594,-4.5594,0.0,-3.2773,-3.3395,-3.3395,-3.2323,-3.1246,-3.1243,-3.0178,0.0,-2.9189,-3.1221,-3.2258,-2.9839,-3.153,-3.2582,-3.0394,-3.5638,-3.8023,0.0,-3.7934,0.0,0.0,0.0,0.0,0.0,0.0,0.0,0.0,0.0,0.0,0.0,0.0,-5.5562,-5.5492,-5.5618,-5.5671,-5.5596,-5.5585,-5.5585,-5.5585,-5.5468,-5.5395,-5.5395,0.0,0.0,0.0,0.0,0.0,0.0,-5.5671,-5.5703,-5.5703,-5.5684,-5.5651,-5.5596,-5.5585,-5.5504,-5.5408,-5.5395,-5.5396,-5.525,-5.4314,-5.2919,-5.1448,-5.0646,-5.0478,-5.0593,-5.0593,-5.0643,-5.0683,-5.0712,-5.0643,-5.0582,-5.0511,-5.0457,-5.039,-5.0314,-5.0302,-5.0314,-5.039,-5.0401,-5.0424,-5.0489,-5.0532,-5.0593,-5.0593,-4.9853,-4.8969,-4.8114,-4.7171,-4.6247,-4.5383,-4.5307,-4.5307,-4.5307,-4.5307,-4.5307,-4.5307,-4.5307,-4.5307,-4.5307,-4.5307,-4.5307,-4.5307,-4.538,-4.541,-4.5419,-4.555,-4.5594,-4.5594,-4.5594,-4.5594,-2.5854,0.0,-2.6528,-2.6528,-2.7161,-2.7776,0.0,-2.8426,-2.9085,-2.9178,-3.1182,-3.2203,-2.9847,-3.1446,-3.3004,-3.2553,-3.6578,-3.8445,-3.4613,0.0,0.0,0.0,0.0,0.0,0.0,0.0,0.0,0.0,0.0,0.0,0.0,0.0,-5.5492,-5.5432,-5.5504,-5.5539,-5.5527,-5.5527,-5.5504,-5.5444,-5.542,-5.539,-5.5396,0.0,0.0,0.0,0.0,0.0,-5.5527,-5.5596,-5.5651,-5.5684,-5.564,-5.5607,-5.5585,-5.548,-5.5432,-5.5395,-5.5403,-5.5396,-5.5154,-5.3607,-5.2422,-5.1448,-5.0581,-5.0371,-5.0468,-5.0572,-5.0613,-5.0633,-5.0692,-5.0643,-5.0582,-5.0511,-5.0457,-5.039,-5.0314,-5.0302,-5.0302,-5.0314,-5.0314,-5.0337,-5.0412,-5.0435,-5.0468,-5.0511,-4.9731,-4.8856,-4.8033,-4.7089,-4.6205,-4.5403,-4.5307,-4.5307,-4.5307,-4.5307,-4.5307,-4.5307,-4.5307,-4.5307,-4.5307,-4.5307,-4.5317,-4.5388,-4.5429,-4.5504,-4.5559,-4.5586,-4.5594,-4.5594,-4.5594,-4.5594,-2.419,-2.419,-2.419,-2.419,-2.5419,-2.6602,-2.6602,-2.7849,-2.904,-2.9123,-3.1131,-3.2138,0.0,-3.1303,-3.263,0.0,-3.4767,0.0,0.0,0.0,0.0,0.0,0.0,0.0,0.0,0.0,0.0,0.0,0.0,0.0,0.0,0.0,-5.5451,-5.5396,-5.5434,-5.5451,-5.5456,-5.5456,-5.5444,-5.5408,-5.5409,-5.539,-5.5403,-5.5403,0.0,0.0,0.0,0.0,-5.5468,-5.5527,-5.5573,-5.5596,-5.5562,-5.5539,-5.5504,-5.5432,-5.5402,-5.5403,-5.5396,-5.5403,-5.5116,-5.3359,-5.2499,-5.1926,-5.0684,-5.0325,-5.039,-5.0478,-5.0521,-5.0553,-5.0603,-5.0572,-5.0489,-5.0468,-5.0393,-5.0337,-5.0302,-5.0302,-5.0302,-5.0302,-5.0302,-5.0314,-5.0337,-5.039,-5.0412,-5.0457,-5.0033,-4.9398,-4.8556,-4.766,-4.6787,-4.5946,-4.5507,-4.5307,-4.5307,-4.5307,-4.5307,-4.5307,-4.5307,-4.5307,-4.5307,-4.5307,-4.5319,-4.54,-4.5457,-4.5522,-4.5594,-4.5594,-4.5594,-4.5594,-4.5594,-4.5594,-2.419,-2.419,-2.419,-2.419,-2.5419,-2.6602,-2.6602,-2.7849,-2.9028,-2.9096,-3.1083,0.0,0.0,-3.1177,0.0,0.0,0.0,0.0,0.0,0.0,0.0,0.0,0.0,0.0,0.0,0.0,0.0,0.0,0.0,0.0,0.0,0.0,0.0,-5.5403,-5.5403,-5.5409,-5.5402,-5.5402,-5.5402,-5.5402,-5.5409,-5.5403,-5.5403,-5.5403,0.0,0.0,0.0,0.0,-5.5408,-5.5468,-5.5492,-5.5504,-5.5492,-5.5456,-5.5395,-5.5395,-5.5403,-5.5403,-5.5403,-5.5403,-5.5135,-5.3511,-5.29,-5.2499,-5.0971,-5.0417,-5.0314,-5.0379,-5.0435,-5.0489,-5.05,-5.0457,-5.0401,-5.0401,-5.0348,-5.0302,-5.0302,-5.0302,-5.0302,-5.0302,-5.0302,-5.0302,-5.0302,-5.0337,-5.0371,-5.0371,-5.0371,-5.0065,-4.9215,-4.8463,-4.7597,-4.6615,-4.5889,-4.543,-4.5307,-4.5307,-4.5307,-4.5307,-4.5307,-4.5307,-4.5307,-4.5307,-4.5339,-4.54,-4.5476,-4.5522,-4.5594,-4.5594,-4.5594,-4.5594,-4.5594,-4.5594,-2.419,-2.419,-2.419,-2.419,-2.5419,-2.6602,-2.6602,-2.7849,-2.9028,0.0,0.0,0.0,0.0,-3.1214,-3.3007,0.0,0.0,0.0,0.0,0.0,0.0,0.0,0.0,0.0,0.0,0.0,0.0,0.0,0.0,0.0,0.0,0.0,0.0,-5.5403,-5.5403,-5.5403,-5.5396,-5.5396,-5.5396,-5.5396,-5.5403,-5.5403,-5.5403,-5.5403,-5.5403,0.0,0.0,0.0,-5.5408,-5.542,-5.5456,-5.5492,-5.5444,-5.5408,-5.5395,-5.539,-5.5403,-5.5403,-5.5403,-5.5403,-5.5231,-5.4237,-5.3397,-5.2614,-5.1697,-5.0894,-5.0302,-5.0314,-5.0359,-5.0435,-5.0489,-5.0457,-5.0401,-5.0401,-5.0348,-5.0302,-5.0302,-5.0302,-5.0302,-5.0302,-5.0302,-5.0302,-5.0302,-5.0302,-5.0314,-5.0314,-5.0314,-5.0027,-4.9197,-4.8976,-4.8277,-4.6672,-4.6385,-4.6042,-4.5364,-4.5307,-4.5307,-4.5307,-4.5307,-4.5307,-4.5307,-4.5348,-4.538,-4.54,-4.5476,-4.5522,-4.5594,-4.5594,-4.5594,-4.5594,-4.5594,-4.5594,-2.419,-2.419,-2.43,-2.475,-2.5731,-2.6602,-2.6602,-2.7849,-2.9017,0.0,0.0,0.0,0.0,0.0,-3.3511,-3.5875,0.0,0.0,0.0,0.0,0.0,0.0,0.0,0.0,0.0,0.0,0.0,0.0,0.0,0.0,0.0,0.0,0.0,0.0,-5.5403,-5.5403,-5.5403,-5.5403,-5.5403,-5.5403,-5.5403,-5.5403,-5.5403,-5.5403,-5.5403,0.0,0.0,-5.5396,-5.5403,-5.5403,-5.5428,-5.5453,-5.5415,-5.5403,-5.5403,-5.5396,-5.5403,-5.5403,-5.5403,-5.5403,-5.5193,-5.3836,-5.3129,-5.2556,-5.1276,-5.0627,-5.0302,-5.0302,-5.0314,-5.0348,-5.0382,-5.0359,-5.0356,-5.0356,-5.0314,-5.0302,-5.0302,-5.0302,-5.0302,-5.0302,-5.0302,-5.0302,-5.0302,-5.0302,-5.0302,-5.0302,-5.0302,-5.0168,-4.9805,-4.9366,-4.8804,-4.799,-4.7054,-4.6347,-4.5984,-4.5545,-4.5307,-4.5307,-4.5307,-4.5307,-4.5307,-4.536,-4.54,-4.54,-4.5504,-4.5568,-4.5594,-4.5594,-4.5594,-4.5594,-4.5594,-4.5845,-2.419,-2.419,-2.4392,-2.5191,-2.5988,-2.6649,-2.6851,-2.7978,-2.9005,-2.9005,0.0,0.0,0.0,-3.1782,0.0,0.0,0.0,0.0,0.0,0.0,0.0,0.0,0.0,0.0,0.0,0.0,0.0,0.0,0.0,0.0,0.0,0.0,0.0,0.0,-5.5403,-5.5403,-5.5403,-5.5403,-5.5403,-5.5403,-5.5403,-5.5403,-5.5403,-5.5403,-5.5403,-5.5403,-5.5403,-5.5403,-5.5403,-5.5403,-5.5403,-5.5403,-5.5403,-5.5288,-5.5078,-5.4868,-5.4791,-5.4791,-5.4791,-5.4791,-5.4581,-5.3225,-5.2671,-5.2289,-5.099,-5.0455,-5.0302,-5.0302,-5.0302,-5.0302,-5.0302,-5.0302,-5.0302,-5.0302,-5.0302,-5.0302,-5.0302,-5.0302,-5.0302,-5.0302,-5.0302,-5.0302,-5.0302,-5.0302,-5.0302,-5.0302,-5.0302,-5.0302,-5.0302,-4.9767,-4.932,-4.9129,-4.7914,-4.694,-4.6538,-4.5755,-4.5307,-4.5307,-4.5307,-4.5307,-4.5307,-4.5361,-4.539,-4.54,-4.5513,-4.5577,-4.5594,-4.5594,-4.571,-4.5893,-4.5893,-4.6355,-2.419,-2.419,-2.4392,-2.5191,-2.5988,-2.6796,-2.753,-2.8381,-2.9005,-2.9005,0.0,0.0,0.0,-3.4131,0.0,0.0,0.0,0.0,0.0,0.0,0.0,0.0,0.0,0.0,0.0,0.0,0.0,0.0,0.0,0.0,0.0,0.0,0.0,0.0,0.0,-5.5403,-5.5403,-5.5403,-5.5403,-5.5403,-5.5403,-5.5403,-5.5403,-5.5403,-5.5403,-5.5403,-5.5403,-5.5403,-5.5403,-5.5403,-5.5403,-5.5403,-5.5403,-5.4906,-5.4104,-5.3282,-5.2977,-5.2977,-5.2977,-5.2977,-5.2957,-5.2843,-5.2289,-5.1658,-5.1532,-5.0951,-5.0302,-5.0302,-5.0302,-5.0302,-5.0302,-5.0302,-5.0302,-5.0302,-5.0302,-5.0302,-5.0302,-5.0302,-5.0302,-5.0302,-5.0302,-5.0302,-5.0302,-5.0302,-5.0302,-5.0302,-5.0302,-5.0302,-5.0302,-5.0245,-4.992,-4.9186,-4.8995,-4.8258,-4.6634,-4.5755,-4.5307,-4.5307,-4.5307,-4.5307,-4.5307,-4.5359,-4.54,-4.54,-4.5476,-4.555,-4.5594,-4.5594,-4.6009,-4.6817,-4.6817,-4.724,-2.419,-2.4566,-2.5136,-2.5952,-2.6741,-2.7824,-2.9634,-3.0668,-3.1684,-3.322,-3.2307,0.0,0.0,0.0,0.0,0.0,0.0,0.0,0.0,0.0,0.0,0.0,0.0,0.0,0.0,0.0,0.0,0.0,0.0,0.0,0.0,0.0,0.0,0.0,0.0,-5.5403,-5.5403,-5.5403,-5.5403,-5.5403,-5.5403,-5.5403,-5.5403,-5.5403,-5.5403,-5.5403,-5.5403,-5.5403,-5.5403,-5.5403,-5.5078,-5.4543,-5.3989,-5.3569,-5.3244,-5.2919,-5.2805,-5.2805,-5.2805,-5.2805,-5.2709,-5.2212,-5.1849,-5.1493,-5.0971,-5.0569,-5.0302,-5.0302,-5.0302,-5.0302,-5.0302,-5.0302,-5.0302,-5.0302,-5.0302,-5.0302,-5.0302,-5.0302,-5.0302,-5.0302,-5.0302,-5.0302,-5.0302,-5.0302,-5.0302,-5.0302,-5.0302,-5.0302,-5.0302,-5.0302,-5.0187,-4.9882,-4.9396,-4.8391,-4.6653,-4.6214,-4.5831,-4.5326,-4.5307,-4.5307,-4.5307,-4.5359,-4.5399,-4.54,-4.5429,-4.5476,-4.555,-4.555,-4.6001,-4.6904,-4.6904,-4.7625,-2.419,-2.4787,-2.5595,-2.641,-2.72,-2.8686,-3.2168,-3.2779,-3.3298,-3.5789,-3.5147,-3.3917,-3.3115,0.0,0.0,0.0,0.0,0.0,0.0,0.0,0.0,0.0,0.0,0.0,0.0,0.0,0.0,0.0,0.0,0.0,0.0,0.0,0.0,0.0,0.0,0.0,-5.5403,-5.5403,-5.5403,-5.5403,-5.5403,-5.5403,-5.5403,-5.5403,-5.5403,-5.5403,-5.5403,-5.5403,-5.5384,-5.5097,-5.4486,-5.3607,-5.2747,-5.2422,-5.2384,-5.2117,-5.2002,-5.2002,-5.2002,-5.2002,-5.1926,-5.1372,-5.1188,-5.1085,-5.0474,-5.0302,-5.0302,-5.0302,-5.0302,-5.0302,-5.0302,-5.0302,-5.0302,-5.0302,-5.0302,-5.0302,-5.0302,-5.0302,-5.0302,-5.0302,-5.0302,-5.0302,-5.0302,-5.0302,-5.0302,-5.0302,-5.0302,-5.0302,-5.0302,-5.0302,-5.0302,-5.0302,-4.9576,-4.8621,-4.7417,-4.6825,-4.6271,-4.5698,-4.543,-4.5307,-4.5307,-4.5338,-4.5388,-4.5408,-4.54,-4.5429,-4.5476,-4.5745,-4.6349,-4.7251,-4.7511,-4.8385,-2.4208,-2.4824,-2.5631,-2.6447,-2.7255,-2.934,-3.5037,-3.4431,-3.3335,-3.5826,-3.6997,-3.6795,-3.4302,0.0,0.0,0.0,0.0,0.0,0.0,0.0,0.0,0.0,0.0,0.0,0.0,0.0,0.0,0.0,0.0,0.0,0.0,0.0,0.0,0.0,0.0,0.0,-5.5403,-5.5403,-5.5403,-5.5403,-5.5403,-5.5403,-5.5403,-5.5403,-5.5403,-5.5403,-5.5403,-5.5384,-5.5307,-5.4448,-5.3569,-5.2709,-5.1907,-5.1589,-5.1486,-5.0627,-5.0302,-5.0302,-5.0302,-5.0302,-5.0302,-5.0302,-5.0302,-5.0302,-5.0302,-5.0302,-5.0302,-5.0302,-5.0302,-5.0302,-5.0302,-5.0302,-5.0302,-5.0302,-5.0302,-5.0302,-5.0302,-5.0302,-5.0302,-5.0302,-5.0302,-5.0302,-5.0302,-5.0302,-5.0302,-5.0302,-5.0302,-5.0302,-5.0302,-5.0302,-5.0302,-5.0302,-4.9595,-4.911,-4.911,-4.7513,-4.6519,-4.6519,-4.5755,-4.5307,-4.5307,-4.5307,-4.5328,-4.5408,-4.5408,-4.539,-4.54,-4.6263,-4.7145,-4.8018,-4.8832,-4.9676,-2.4897,-2.688,-2.8962,-2.9781,0.0,0.0,0.0,-3.6945,0.0,0.0,-4.0322,-4.012,-3.7698,0.0,0.0,0.0,0.0,0.0,0.0,0.0,0.0,0.0,0.0,0.0,0.0,0.0,0.0,0.0,0.0,0.0,0.0,0.0,0.0,0.0,0.0,0.0,-5.5403,-5.5403,-5.5403,-5.5403,-5.5403,-5.5403,-5.5403,-5.5403,-5.5078,-5.4486,-5.4486,-5.4142,-5.3511,-5.269,-5.2193,-5.1868,-5.1028,-5.0684,-5.0646,-5.0397,-5.0302,-5.0302,-5.0302,-5.0302,-5.0302,-5.0302,-5.0302,-5.0302,-5.0302,-5.0302,-5.0302,-5.0302,-5.0302,-5.0302,-5.0302,-5.0302,-5.0302,-5.0302,-5.0302,-5.0302,-5.0302,-5.0302,-5.0302,-5.0302,-5.0302,-5.0302,-5.0302,-5.0302,-5.0302,-5.0302,-5.0302,-5.0302,-5.0302,-5.0302,-5.0302,-5.0302,-5.0092,-4.971,-4.9148,-4.8621,-4.8067,-4.7444,-4.6615,-4.5889,-4.5326,-4.5307,-4.5307,-4.5328,-4.5328,-4.5359,-4.5409,-4.6222,-4.7104,-4.8018,-4.8832,-4.9676,-2.7651,-2.9193,-3.0797,-3.1286,-3.2008,-3.3628,-3.7569,0.0,0.0,0.0,-4.2746,-4.3479,-4.1056,0.0,0.0,0.0,0.0,0.0,0.0,0.0,0.0,0.0,0.0,0.0,0.0,0.0,0.0,0.0,0.0,0.0,0.0,0.0,0.0,0.0,0.0,0.0,-5.5403,-5.5403,-5.5403,-5.5403,-5.5403,-5.5231,-5.4887,-5.4887,-5.46,-5.4085,-5.3722,-5.3091,-5.2289,-5.1811,-5.141,-5.1028,-5.0512,-5.0302,-5.0302,-5.0302,-5.0302,-5.0302,-5.0302,-5.0302,-5.0302,-5.0302,-5.0302,-5.0302,-5.0302,-5.0302,-5.0302,-5.0302,-5.0302,-5.0302,-5.0302,-5.0302,-5.0302,-5.0302,-5.0302,-5.0302,-5.0302,-5.0302,-5.0302,-5.0302,-5.0302,-5.0302,-5.0302,-5.0302,-5.0302,-5.0302,-5.0302,-5.0302,-5.0302,-5.0302,-5.0302,-5.0302,-5.0302,-5.0092,-4.9614,-4.927,-4.8869,-4.8353,-4.7513,-4.6634,-4.5812,-4.5468,-4.5307,-4.5307,-4.5307,-4.5317,-4.5348,-4.6171,-4.7023,-4.7945,-4.8769,-4.9611,-3.1488,-3.1623,-3.1745,-3.1837,-3.2724,0.0,-3.6156,-4.0873,-4.4195,-4.1994,0.0,-4.6526,0.0,0.0,0.0,0.0,0.0,0.0,0.0,0.0,0.0,0.0,0.0,0.0,0.0,0.0,0.0,0.0,0.0,0.0,0.0,0.0,0.0,0.0,0.0,0.0,-5.5403,-5.5403,-5.5403,0.0,-5.5326,-5.4868,-5.4104,-5.4104,-5.4027,-5.3817,-5.2938,-5.2155,-5.1486,-5.1486,-5.1009,-5.0302,-5.0302,-5.0302,-5.0302,-5.0302,-5.0302,-5.0302,-5.0302,-5.0302,-5.0302,-5.0302,-5.0302,-5.0302,-5.0302,-5.0302,-5.0302,-5.0302,-5.0302,-5.0302,-5.0302,-5.0302,-5.0302,-5.0302,-5.0302,-5.0302,-5.0302,-5.0302,-5.0302,-5.0302,-5.0302,-5.0302,-5.0302,-5.0302,-5.0302,-5.0302,-5.0302,-5.0302,-5.0302,-5.0302,-5.0302,-5.0302,-5.0302,-5.0302,-5.0302,-4.9633,-4.9224,-4.9224,-4.8411,-4.7559,-4.6768,-4.587,-4.5373,-4.5307,-4.5307,-4.5307,-4.5307,-4.6118,-4.692,-4.7693,-4.8582,-4.9423,-3.2173,-3.3261,0.0,-3.5073,-3.8212,-4.0799,-3.9439,-4.2506,-4.5498,-4.4966,-4.6562,0.0,0.0,0.0,0.0,0.0,0.0,0.0,0.0,0.0,0.0,0.0,0.0,0.0,0.0,0.0,0.0,0.0,0.0,0.0,0.0,0.0,0.0,0.0,0.0,-5.5294,-5.5403,-5.5403,-5.5403,0.0,-5.4715,-5.4276,-5.4104,-5.4104,-5.3378,-5.2098,-5.1219,-5.0741,-5.0588,-5.0588,-5.0474,-5.0302,-5.0302,-5.0302,-5.0302,-5.0302,-5.0302,-5.0302,-5.0302,-5.0302,-5.0302,-5.0302,-5.0302,-5.0302,-5.0302,-5.0302,-5.0302,-5.0302,-5.0302,-5.0302,-5.0302,-5.0302,-5.0302,-5.0302,-5.0302,-5.0302,-5.0302,-5.0302,-5.0302,-5.0302,-5.0302,-5.0302,-5.0302,-5.0302,-5.0302,-5.0302,-5.0302,-5.0302,-5.0302,-5.0302,-5.0302,-5.0302,-5.0302,-5.0302,-5.0302,-5.0149,-5.0034,-5.0034,-4.927,-4.8735,-4.8556,-4.7054,-4.5946,-4.5307,-4.5307,-4.5307,-4.5307,-4.6118,-4.6596,-4.6806,-4.7674,-4.8544,-3.4394,-3.5275,0.0,-3.7624,0.0,-4.2872,-4.0451,-4.3002,-4.5902,-4.5902,0.0,0.0,0.0,0.0,0.0,0.0,0.0,0.0,0.0,0.0,0.0,0.0,0.0,0.0,0.0,0.0,0.0,0.0,0.0,0.0,0.0,0.0,0.0,0.0,-5.4585,-5.4861,-5.5403,-5.5002,-5.4791,-5.4772,-5.3894,-5.3282,-5.29,-5.29,-5.2212,-5.0951,-5.0512,-5.0302,-5.0302,-5.0302,-5.0302,-5.0302,-5.0302,-5.0302,-5.0302,-5.0302,-5.0302,-5.0302,-5.0302,-5.0302,-5.0302,-5.0302,-5.0302,-5.0302,-5.0302,-5.0302,-5.0302,-5.0302,-5.0302,-5.0302,-5.0302,-5.0302,-5.0302,-5.0302,-5.0302,-5.0302,-5.0302,-5.0302,-5.0302,-5.0302,-5.0302,-5.0302,-5.0302,-5.0302,-5.0302,-5.0302,-5.0302,-5.0302,-5.0302,-5.0302,-5.0302,-5.0302,-5.0302,-5.0302,-5.0302,-5.0302,-5.0302,-5.0302,-4.9901,-4.95,-4.9129,-4.7837,-4.6729,-4.5889,-4.5488,-4.5307,-4.5307,-4.5717,-4.6118,-4.6519,-4.6978,-4.7646,-3.6648,-3.7217,-3.7496,-3.9918,-4.2011,0.0,-4.0981,-4.3314,-4.5902,0.0,0.0,0.0,0.0,0.0,0.0,0.0,0.0,0.0,0.0,0.0,0.0,0.0,0.0,0.0,0.0,0.0,0.0,0.0,0.0,0.0,0.0,0.0,-5.2489,-5.3514,-5.3666,-5.4129,-5.4919,-5.4225,-5.3874,-5.3874,-5.2996,-5.2174,-5.1391,-5.1391,-5.099,-5.0302,-5.0302,-5.0302,-5.0302,-5.0302,-5.0302,-5.0302,-5.0302,-5.0302,-5.0302,-5.0302,-5.0302,-5.0302,-5.0302,-5.0302,-5.0302,-5.0302,-5.0302,-5.0302,-5.0302,-5.0302,-5.0302,-5.0302,-5.0302,-5.0302,-5.0302,-5.0302,-5.0302,-5.0302,-5.0302,-5.0302,-5.0302,-5.0302,-5.0302,-5.0302,-5.0302,-5.0302,-5.0302,-5.0302,-5.0302,-5.0302,-5.0302,-5.0302,-5.0302,-5.0302,-5.0302,-5.0302,-5.0302,-5.0302,-5.0302,-5.0302,-5.0302,-5.0302,-5.0302,-4.9996,-4.9328,-4.8334,-4.7463,-4.6748,-4.5793,-4.5307,-4.5307,-4.5307,-4.564,-4.629,-4.629,-4.6748,-3.6795,0.0,-3.9992,0.0,-4.3258,-4.3423,0.0,0.0,-4.5902,0.0,0.0,0.0,0.0,0.0,0.0,0.0,0.0,0.0,0.0,0.0,0.0,0.0,0.0,0.0,0.0,0.0,0.0,0.0,0.0,0.0,0.0,-5.1552,-5.1909,-5.2479,-5.2622,-5.2816,-5.3061,-5.3009,-5.2957,-5.2957,-5.2155,-5.1314,-5.0474,-5.0474,-5.0417,-5.0302,-5.0302,-5.0302,-5.0302,-5.0302,-5.0302,-5.0302,-5.0302,-5.0302,-5.0302,-5.0302,-5.0302,-5.0302,-5.0302,-5.0302,-5.0302,-5.0302,-5.0302,-5.0302,-5.0302,-5.0302,-5.0302,-5.0302,-5.0302,-5.0302,-5.0302,-5.0302,-5.0302,-5.0302,-5.0302,-5.0302,-5.0302,-5.0302,-5.0302,-5.0302,-5.0302,-5.0302,-5.0302,-5.0302,-5.0302,-5.0302,-5.0302,-5.0302,-5.0302,-5.0302,-5.0302,-5.0302,-5.0302,-5.0302,-5.0302,-5.0302,-5.0302,-5.0302,-5.0302,-5.0245,-5.0149,-4.864,-4.775,-4.7635,-4.608,-4.5307,-4.5307,-4.5307,-4.5364,-4.5449,-4.5449,-4.5889,-3.5661,-3.9328,-4.2174,0.0,-4.3515,-4.3515,-4.3515,0.0,0.0,0.0,0.0,0.0,0.0,0.0,0.0,0.0,0.0,0.0,0.0,0.0,0.0,0.0,0.0,0.0,0.0,0.0,0.0,0.0,0.0,0.0,-4.975,-4.9984,-5.0513,-5.1428,-5.159,0.0,-5.2705,-5.2285,-5.1851,-5.1391,-5.1047,-5.0665,-5.0302,-5.0302,-5.0302,-5.0302,-5.0302,-5.0302,-5.0302,-5.0302,-5.0302,-5.0302,-5.0302,-5.0302,-5.0302,-5.0302,-5.0302,-5.0302,-5.0302,-5.0302,-5.0302,-5.0302,-5.0302,-5.0302,-5.0302,-5.0302,-5.0302,-5.0302,-5.0302,-5.0302,-5.0302,-5.0302,-5.0302,-5.0302,-5.0302,-5.0302,-5.0302,-5.0302,-5.0302,-5.0302,-5.0302,-5.0302,-5.0302,-5.0302,-5.0302,-5.0302,-5.0302,-5.0302,-5.0302,-5.0302,-5.0302,-5.0302,-5.0302,-5.0302,-5.0302,-5.0302,-5.0302,-5.0302,-5.0302,-5.0302,-5.0302,-4.9156,-4.8296,-4.7807,-4.6156,-4.5307,-4.5307,-4.5307,-4.5307,-4.5307,-4.5307,-4.5488,0.0,0.0,-4.1679,-4.1679,-4.1679,-4.1827,0.0,0.0,0.0,0.0,0.0,0.0,0.0,0.0,0.0,0.0,0.0,0.0,0.0,0.0,0.0,0.0,0.0,0.0,0.0,0.0,0.0,0.0,0.0,0.0,-4.8569,-4.8732,-4.9306,-5.0363,-5.0545,-5.1059,-5.2005,-5.1465,-5.0885,-5.0302,-5.0302,-5.0302,-5.0302,-5.0302,-5.0302,-5.0302,-5.0302,-5.0302,-5.0302,-5.0302,-5.0302,-5.0302,-5.0302,-5.0302,-5.0302,-5.0302,-5.0302,-5.0302,-5.0302,-5.0302,-5.0302,-5.0302,-5.0302,-5.0302,-5.0302,-5.0302,-5.0302,-5.0302,-5.0302,-5.0302,-5.0302,-5.0302,-5.0302,-5.0302,-5.0302,-5.0302,-5.0302,-5.0302,-5.0302,-5.0302,-5.0302,-5.0302,-5.0302,-5.0302,-5.0302,-5.0302,-5.0302,-5.0302,-5.0302,-5.0302,-5.0302,-5.0302,-5.0302,-5.0302,-5.0302,-5.0302,-5.0302,-5.0302,-5.0302,-5.0302,-5.0302,-4.9519,-4.8697,-4.7807,-4.6347,-4.5488,-4.5307,-4.5307,-4.5307,-4.5307,-4.5307,-4.5307,0.0,-3.4688,0.0,-3.667,-3.667,0.0,0.0,0.0,0.0,0.0,0.0,0.0,0.0,0.0,0.0,0.0,0.0,0.0,0.0,0.0,0.0,0.0,0.0,0.0,0.0,0.0,0.0,0.0,0.0,0.0,-4.8513,-4.8587,-4.8803,-4.927,-4.9468,-4.9754,-5.0151,-5.0283,-5.034,-5.0302,-5.0302,-5.0302,-5.0302,-5.0302,-5.0302,-5.0302,-5.0302,-5.0302,-5.0302,-5.0302,-5.0302,-5.0302,-5.0302,-5.0302,-5.0302,-5.0302,-5.0302,-5.0302,-5.0302,-5.0302,-5.0302,-5.0302,-5.0302,-5.0302,-5.0302,-5.0302,-5.0302,-5.0302,-5.0302,-5.0302,-5.0302,-5.0302,-5.0302,-5.0302,-5.0302,-5.0302,-5.0302,-5.0302,-5.0302,-5.0302,-5.0302,-5.0302,-5.0302,-5.0302,-5.0302,-5.0302,-5.0302,-5.0302,-5.0302,-5.0302,-5.0302,-5.0302,-5.0302,-5.0302,-5.0302,-5.0302,-5.0302,-5.0302,-5.0302,-5.0302,-5.0302,-4.9519,-4.8697,-4.7807,-4.6901,-4.6061,-4.5307,-4.5307,-4.5307,-4.5307,-4.5307,-4.5307,0.0,0.0,0.0,-3.6303,-3.6303,-3.6523,0.0,0.0,0.0,0.0,0.0,0.0,0.0,0.0,0.0,0.0,0.0,0.0,0.0,0.0,0.0,0.0,0.0,0.0,0.0,0.0,0.0,0.0,0.0,0.0,-4.8363,-4.8476,-4.8678,-4.8995,-4.9193,-4.9518,-5.0005,-5.017,-5.0267,-5.0302,-5.0302,-5.0302,-5.0302,-5.0302,-5.0302,-5.0302,-5.0302,-5.0302,-5.0302,-5.0302,-5.0302,-5.0302,-5.0302,-5.0302,-5.0302,-5.0302,-5.0302,-5.0302,-5.0302,-5.0302,-5.0302,-5.0302,-5.0302,-5.0302,-5.0302,-5.0302,-5.0302,-5.0302,-5.0302,-5.0302,-5.0302,-5.0302,-5.0302,-5.0302,-5.0302,-5.0302,-5.0302,-5.0302,-5.0302,-5.0302,-5.0302,-5.0302,-5.0302,-5.0302,-5.0302,-5.0302,-5.0302,-5.0302,-5.0302,-5.0302,-5.0302,-5.0302,-5.0302,-5.0302,-5.0302,-5.0302,-5.0302,-5.0302,-5.0302,-5.0302,-5.0302,-5.0015,-4.948,-4.864,-4.778,-4.6653,-4.5307,-4.5307,-4.5307,-4.5307,-4.5307,-4.5307,-3.139,0.0,0.0,0.0,0.0,-3.4064,0.0,0.0,0.0,0.0,0.0,0.0,0.0,0.0,0.0,0.0,0.0,0.0,0.0,0.0,0.0,0.0,0.0,0.0,0.0,0.0,0.0,0.0,0.0,0.0,-4.8306,-4.8382,-4.8587,-4.8925,-4.9176,-4.9537,-5.0005,-5.0126,-5.0224,-5.0302,-5.0302,-5.029,-5.0267,-5.0267,-5.0255,-5.0231,-5.0231,-5.0255,-5.0302,-5.0302,-5.0302,-5.0302,-5.0302,-5.0302,-5.0302,-5.0302,-5.0302,-5.0302,-5.0302,-5.0302,-5.0302,-5.0302,-5.0302,-5.0302,-5.0302,-5.0302,-5.0302,-5.0302,-5.0302,-5.0302,-5.0302,-5.0302,-5.0302,-5.0302,-5.0302,-5.0302,-5.0302,-5.0302,-5.0302,-5.0302,-5.0302,-5.0302,-5.0302,-5.0302,-5.0302,-5.0302,-5.0302,-5.0302,-5.0302,-5.0302,-5.0302,-5.0302,-5.0302,-5.0302,-5.0302,-5.0302,-5.0302,-5.0302,-5.0302,-5.0302,-5.0302,-5.0302,-4.992,-4.9129,-4.8525,-4.7532,-4.6137,-4.5564,-4.5307,-4.5307,-4.5307,-4.5307,0.0,0.0,0.0,0.0,0.0,0.0,-3.1959,0.0,0.0,0.0,0.0,0.0,0.0,0.0,0.0,0.0,0.0,0.0,0.0,0.0,0.0,0.0,0.0,0.0,0.0,0.0,0.0,0.0,0.0,-4.8306,-4.8306,-4.8306,-4.8514,-4.8974,-4.9315,-4.9665,-4.9992,-5.0126,-5.0243,-5.0302,-5.0302,-5.0248,-5.02,-5.02,-5.0151,-5.0095,-5.0095,-5.017,-5.029,-5.0302,-5.0302,-5.0302,-5.0302,-5.0302,-5.0302,-5.0302,-5.0302,-5.0302,-5.0302,-5.0302,-5.0302,-5.0302,-5.0302,-5.0302,-5.0302,-5.0302,-5.0302,-5.0302,-5.0302,-5.0302,-5.0302,-5.0302,-5.0302,-5.0302,-5.0302,-5.0302,-5.0302,-5.0302,-5.0302,-5.0302,-5.0302,-5.0302,-5.0302,-5.0302,-5.0302,-5.0302,-5.0302,-5.0302,-5.0302,-5.0302,-5.0302,-5.0302,-5.0302,-5.0302,-5.0302,-5.0302,-5.0302,-5.0302,-5.0302,-5.0302,-5.0302,-5.0302,-4.992,-4.9148,-4.911,-4.8678,-4.7826,-4.6156,-4.5345,-4.5326,-4.5307,-4.5307,-2.9005,0.0,0.0,0.0,0.0,0.0,-2.9849,-3.1353,0.0,0.0,0.0,0.0,0.0,0.0,0.0,0.0,0.0,0.0,0.0,0.0,0.0,0.0,0.0,0.0,0.0,0.0,0.0,0.0,-4.8306,-4.8306,-4.8306,-4.8382,-4.8587,-4.8839,-4.9176,-4.9521,-4.9843,-5.0044,-5.0194,-5.0302,-5.0302,-5.0248,-5.02,-5.02,-5.0145,-5.0031,-5.0031,-5.0057,-5.0095,-5.0194,-5.0267,-5.0302,-5.0302,-5.0302,-5.0302,-5.0302,-5.0302,-5.0302,-5.0302,-5.0302,-5.0302,-5.0302,-5.0302,-5.0302,-5.0302,-5.0302,-5.0302,-5.0302,-5.0302,-5.0302,-5.0302,-5.0302,-5.0302,-5.0302,-5.0302,-5.0302,-5.0302,-5.0302,-5.0302,-5.0302,-5.0302,-5.0302,-5.0302,-5.0302,-5.0302,-5.0302,-5.0302,-5.0302,-5.0302,-5.0302,-5.0302,-5.0302,-5.0302,-5.0302,-5.0302,-5.0302,-5.0302,-5.0302,-5.0302,-5.0302,-5.0302,-5.0302,-5.0206,-4.9977,-4.9396,-4.8976,-4.8735,-4.7016,-4.6175,-4.6156,-4.5564,-4.5307,-2.9005,-2.9005,-2.9005,0.0,0.0,0.0,-2.9005,-3.0876,-3.2601,0.0,0.0,0.0,0.0,0.0,0.0,0.0,0.0,0.0,0.0,0.0,0.0,0.0,0.0,0.0,0.0,0.0,0.0,0.0,-4.8306,-4.8306,-4.8306,-4.8382,-4.8513,-4.8787,-4.9027,-4.9352,-4.975,-4.9925,-5.0076,-5.0219,-5.0219,-5.0182,-5.0133,-5.0089,-4.9999,-4.9871,-4.9843,-4.9811,-4.9805,-4.9933,-5.0082,-5.0219,-5.0255,-5.0267,-5.0267,-5.029,-5.0302,-5.0302,-5.0302,-5.0302,-5.0302,-5.0302,-5.0302,-5.0302,-5.0302,-5.0302,-5.0302,-5.0302,-5.0302,-5.0302,-5.0302,-5.0302,-5.0302,-5.0302,-5.0302,-5.0302,-5.0302,-5.0302,-5.0302,-5.0302,-5.0302,-5.0302,-5.0302,-5.0302,-5.0302,-5.0302,-5.0302,-5.0302,-5.0302,-5.0302,-5.0302,-5.0302,-5.0302,-5.0302,-5.0302,-5.0302,-5.0302,-5.0302,-5.0302,-5.0302,-5.0302,-5.0302,-5.0302,-5.0302,-4.9843,-4.9454,-4.911,-4.7723,-4.7043,-4.7035,-4.6557,-4.6156,-2.9005,-2.9005,-2.9005,0.0,0.0,0.0,-2.9005,-3.0876,-3.2601,0.0,0.0,0.0,0.0,0.0,0.0,0.0,0.0,0.0,0.0,0.0,0.0,0.0,0.0,0.0,0.0,0.0,-4.8306,-4.8306,-4.8306,-4.8306,-4.8306,-4.8306,-4.8439,-4.8751,-4.8907,-4.9209,-4.9648,-4.9802,-4.9952,-5.0095,-5.0095,-5.0057,-5.0005,-4.9939,-4.9816,-4.9663,-4.9589,-4.9525,-4.9454,-4.9566,-4.9802,-5.0082,-5.0139,-5.0175,-5.02,-5.0267,-5.029,-5.0302,-5.0302,-5.0302,-5.0302,-5.0302,-5.0302,-5.0302,-5.0302,-5.0302,-5.0302,-5.0302,-5.0302,-5.0302,-5.0302,-5.0302,-5.0302,-5.0302,-5.0302,-5.0302,-5.0302,-5.0302,-5.0302,-5.0302,-5.0302,-5.0302,-5.0302,-5.0302,-5.0302,-5.0302,-5.0302,-5.0302,-5.0302,-5.0302,-5.0302,-5.0302,-5.0302,-5.0302,-5.0302,-5.0302,-5.0302,-5.0302,-5.0302,-5.0302,-5.0302,-5.0302,-5.0302,-5.0302,-5.0302,-4.9939,-4.9243,-4.8372,-4.7884,-4.7788,-4.7788,-4.7368,0.0,0.0,0.0,0.0,0.0,0.0,-2.9005,-3.0876,-3.2601,0.0,0.0,0.0,0.0,0.0,0.0,0.0,0.0,0.0,0.0,0.0,0.0,0.0,0.0,0.0,0.0,0.0,-4.8306,-4.8306,-4.8306,-4.8306,-4.8306,-4.8306,-4.8382,-4.855,-4.8786,-4.9061,-4.9387,-4.9615,-4.983,-5.0031,-5.0031,-5.0018,-5.0005,-4.9939,-4.9741,-4.9446,-4.9387,-4.9257,-4.9108,-4.9125,-4.9457,-4.9952,-4.9999,-5.0101,-5.02,-5.0212,-5.0255,-5.0302,-5.0302,-5.0302,-5.0302,-5.0302,-5.0302,-5.0302,-5.0302,-5.0302,-5.0302,-5.0302,-5.0302,-5.0302,-5.0302,-5.0302,-5.0302,-5.0302,-5.0302,-5.0302,-5.0302,-5.0302,-5.0302,-5.0302,-5.0302,-5.0302,-5.0302,-5.0302,-5.0302,-5.0302,-5.0302,-5.0302,-5.0302,-5.0302,-5.0302,-5.0302,-5.0302,-5.0302,-5.0302,-5.0302,-5.0302,-5.0302,-5.0302,-5.0302,-5.0302,-5.0302,-5.0302,-5.0302,-5.0302,-5.0225,-5.0054,-4.9251,-4.8487,-4.7788,-4.7788,-4.7712,0.0,0.0,0.0,-2.9005,0.0,0.0,0.0,-3.0876,-3.2601,0.0,0.0,0.0,0.0,0.0,0.0,0.0,0.0,0.0,0.0,0.0,0.0,0.0,0.0,0.0,0.0,0.0,-4.8306,-4.8306,-4.8306,-4.8306,-4.8306,-4.8306,-4.8363,-4.8494,-4.866,-4.8873,-4.9113,-4.9273,-4.9461,-4.9655,-4.9679,-4.9726,-4.9788,-4.9698,-4.9521,-4.9289,-4.9144,-4.8993,-4.8802,-4.8873,-4.911,-4.9427,-4.9665,-4.9847,-5.0018,-5.0082,-5.0126,-5.0207,-5.0243,-5.0255,-5.0267,-5.029,-5.0302,-5.0302,-5.0302,-5.0302,-5.0302,-5.0302,-5.0302,-5.0302,-5.0302,-5.0302,-5.0302,-5.0302,-5.0302,-5.0302,-5.0302,-5.0302,-5.0302,-5.0302,-5.0302,-5.0302,-5.0302,-5.0302,-5.0302,-5.0302,-5.0302,-5.0302,-5.0302,-5.0302,-5.0302,-5.0302,-5.0302,-5.0302,-5.0302,-5.0302,-5.0302,-5.0302,-5.0302,-5.0302,-5.0302,-5.0302,-5.0302,-5.0302,-5.0302,-5.0302,-5.0302,-4.9901,-4.948,-4.906,-4.906,-4.8831,0.0,0.0,0.0,0.0,0.0,-2.9005,0.0,0.0,0.0,0.0,0.0,0.0,0.0,0.0,0.0,0.0,0.0,0.0,0.0,0.0,0.0,0.0,0.0,0.0,0.0,0.0,-4.7609,-4.7609,-4.7609,-4.7609,-4.7609,-4.8049,-4.8363,-4.8457,-4.855,-4.866,-4.8838,-4.8925,-4.9061,-4.9241,-4.9321,-4.9434,-4.9544,-4.9415,-4.9289,-4.9129,-4.896,-4.875,-4.855,-4.866,-4.875,-4.8855,-4.9286,-4.9566,-4.9731,-4.9885,-4.9992,-5.007,-5.0145,-5.0163,-5.0175,-5.0243,-5.0267,-5.029,-5.0302,-5.0302,-5.0302,-5.0302,-5.029,-5.0278,-5.0278,-5.0278,-5.0267,-5.0278,-5.0278,-5.029,-5.0302,-5.0302,-5.0302,-5.0302,-5.0302,-5.0302,-5.0302,-5.0302,-5.0302,-5.0302,-5.0302,-5.0302,-5.0302,-5.0302,-5.0302,-5.0302,-5.0302,-5.0302,-5.0302,-5.0302,-5.0302,-5.0302,-5.0302,-5.0302,-5.0302,-5.0302,-5.0302,-5.0302,-5.0302,-5.0302,-5.0302,-5.0302,-5.0302,-5.0302,-5.0302,-4.9939,0.0,0.0,0.0,0.0,-2.9005,0.0,0.0,0.0,0.0,0.0,0.0,0.0,0.0,0.0,0.0,0.0,0.0,0.0,0.0,0.0,0.0,0.0,0.0,0.0,0.0,0.0,0.0,-4.5095,-4.5095,-4.5095,-4.5095,-4.715,-4.8306,-4.8306,-4.8457,-4.855,-4.8623,-4.8768,-4.8891,-4.9044,-4.9162,-4.926,-4.934,-4.9324,-4.916,-4.8926,-4.8857,-4.8624,-4.8344,-4.8344,-4.8438,-4.8587,-4.9062,-4.9321,-4.9476,-4.9659,-4.9816,-4.992,-5.0005,-5.007,-5.012,-5.012,-5.017,-5.0212,-5.029,-5.0302,-5.0302,-5.0302,-5.0267,-5.02,-5.02,-5.017,-5.0145,-5.0207,-5.02,-5.0243,-5.029,-5.0302,-5.0302,-5.0302,-5.0302,-5.0302,-5.0302,-5.0302,-5.0302,-5.0302,-5.0302,-5.0302,-5.0302,-5.0302,-5.0302,-5.0302,-5.0302,-5.0302,-5.0302,-5.0302,-5.0302,-5.0302,-5.0302,-5.0302,-5.0302,-5.0302,-5.0302,-5.0302,-5.0302,-5.0302,-5.0302,-5.0302,-5.0302,-5.0302,-5.0302,-5.0245,0.0,0.0,0.0,0.0,0.0,0.0,-2.9005,0.0,-2.9005,0.0,0.0,0.0,0.0,0.0,0.0,0.0,0.0,0.0,0.0,0.0,0.0,0.0,0.0,0.0,0.0,0.0,0.0,0.0,0.0,-4.4691,-4.4691,-4.7003,-4.8306,-4.8306,-4.8363,-4.8401,-4.8439,-4.8476,-4.8587,-4.8715,-4.8803,-4.8907,-4.9012,-4.9012,-4.8909,-4.8732,-4.8661,-4.8495,-4.8306,-4.8306,-4.8325,-4.8401,-4.8678,-4.8926,-4.9127,-4.934,-4.9476,-4.964,-4.9816,-4.9925,-4.9986,-5.0114,-5.0194,-5.02,-5.0278,-5.0302,-5.029,-5.0255,-5.0212,-5.0175,-5.0101,-5.005,-5.0057,-5.0082,-5.0076,-5.0101,-5.0231,-5.0236,-5.0255,-5.029,-5.0302,-5.0302,-5.0302,-5.0302,-5.0302,-5.0302,-5.0302,-5.0302,-5.0302,-5.0302,-5.0302,-5.0302,-5.0302,-5.0302,-5.0302,-5.0302,-5.0302,-5.0302,-5.0302,-5.0302,-5.0302,-5.0302,-5.0302,-5.0302,-5.0302,-5.0302,-5.0302,-5.0302,-5.0302,-5.0302,-5.0302,-5.0302,-3.2687,0.0,0.0,0.0,0.0,0.0,0.0,0.0,0.0,0.0,0.0,0.0,0.0,0.0,0.0,0.0,0.0,0.0,0.0,0.0,0.0,0.0,0.0,0.0,0.0,0.0,0.0,0.0,0.0,0.0,-4.2763,-4.6269,-4.8012,-4.7333,-4.7976,-4.8306,-4.8306,-4.8306,-4.8363,-4.8438,-4.8532,-4.8624,-4.8715,-4.8751,-4.8678,-4.8569,-4.8532,-4.842,-4.8306,-4.8306,-4.8306,-4.8306,-4.8419,-4.8569,-4.8767,-4.8995,-4.9179,-4.9318,-4.9555,-4.9717,-4.9857,-5.005,-5.0114,-5.0126,-5.0219,-5.0267,-5.0267,-5.0175,-5.0151,-5.0101,-4.9978,-4.9912,-4.9898,-4.9912,-4.9912,-4.9965,-5.0101,-5.0158,-5.0163,-5.0267,-5.0278,-5.0278,-5.0302,-5.0302,-5.0302,-5.0302,-5.0302,-5.0302,-5.0302,-5.0302,-5.0302,-5.0302,-5.0302,-5.0302,-5.0302,-5.0302,-5.0302,-5.0302,-5.0302,-5.0302,-5.0302,-5.0302,-5.0302,-5.0302,-5.0302,-5.0302,-5.0302,-5.0302,-5.0302,-5.0302,-5.0302,-5.0302,0.0,0.0,0.0,-3.4821,0.0,0.0,0.0,0.0,-2.9005,0.0,0.0,0.0,0.0,0.0,0.0,-2.9005,0.0,0.0,0.0,0.0,0.0,0.0,0.0,0.0,0.0,0.0,0.0,0.0,0.0,0.0,-3.786,-4.4452,-4.7241,-4.4874,-4.7095,-4.8306,-4.8306,-4.8306,-4.8306,-4.8306,-4.8438,-4.8513,-4.8513,-4.8569,-4.8587,-4.8494,-4.8513,-4.842,-4.8306,-4.8306,-4.8306,-4.8306,-4.8306,-4.8306,-4.8363,-4.8678,-4.8891,-4.9025,-4.9179,-4.939,-4.9634,-4.9843,-4.9912,-4.992,-5.007,-5.0158,-5.0175,-5.012,-5.0057,-4.9978,-4.983,-4.9707,-4.9619,-4.9692,-4.9707,-4.9745,-4.9965,-5.0018,-5.0057,-5.0175,-5.02,-5.0212,-5.029,-5.0302,-5.0302,-5.0302,-5.0302,-5.0302,-5.0302,-5.0302,-5.0302,-5.0302,-5.0302,-5.0302,-5.0302,-5.0302,-5.0302,-5.0302,-5.0302,-5.0302,-5.0302,-5.0302,-5.0302,-5.0302,-5.0302,-5.0302,-5.0302,-5.0302,-5.0302,-5.0302,-5.0302,-5.0302,0.0,0.0,-3.5734,-3.5151,0.0,0.0,0.0,0.0,0.0,0.0,0.0,0.0,0.0,0.0,-3.1482,-2.9354,-2.9005,0.0,0.0,0.0,0.0,0.0,0.0,0.0,0.0,0.0,0.0,0.0,0.0,0.0,0.0,-4.3718,-4.6287,-4.7058,-4.7884,-4.8306,-4.8306,-4.8306,-4.8306,-4.8306,-4.8343,-4.8363,-4.8363,-4.8382,-4.8382,-4.8363,-4.8363,-4.8343,-4.8306,-4.8306,-4.8306,-4.8306,-4.8306,-4.8306,-4.8325,-4.8532,-4.866,-4.8784,-4.9096,-4.9276,-4.9434,-4.9577,-4.9698,-4.9774,-4.9871,-4.9978,-5.0038,-4.9992,-4.9946,-4.9866,-4.9596,-4.948,-4.9371,-4.9257,-4.9289,-4.9565,-5.03,-5.0563,-5.0878,-5.1649,-5.1809,-5.1891,-5.1933,-5.1945,-5.1582,-5.0474,-5.0302,-5.0302,-5.0302,-5.0302,-5.0302,-5.0302,-5.0302,-5.0302,-5.0302,-5.0302,-5.0302,-5.0302,-5.0302,-5.0302,-5.0302,-5.0302,-5.0302,-5.0302,-5.0302,-5.0302,-5.0302,-5.0302,-5.0302,-5.0302,-5.0302,-5.0302,-4.302,-4.113,0.0,0.0,-3.6431,0.0,-3.4426,0.0,0.0,0.0,0.0,0.0,0.0,0.0,0.0,-2.9757,-2.9189,-2.9005,0.0,-2.9005,0.0,0.0,0.0,0.0,0.0,0.0,0.0,0.0,0.0,0.0,0.0,0.0,-4.3754,-4.4433,-4.5296,-4.6159,-4.7021,-4.7021,-4.7462,-4.8306,-4.8306,-4.8306,-4.8306,-4.8306,-4.8306,-4.8306,-4.8306,-4.8306,-4.8306,-4.8306,-4.8306,-4.8306,-4.8306,-4.8306,-4.8306,-4.84,-4.8476,-4.8605,-4.8943,-4.9079,-4.9144,-4.9286,-4.938,-4.9461,-4.9585,-4.9712,-4.9824,-4.9802,-4.9769,-4.9693,-4.9399,-4.9241,-4.911,-4.8978,-4.9218,-4.9691,-5.044,-5.0936,-5.1481,-5.2309,-5.2534,-5.2627,-5.2736,-5.2748,-5.2417,-5.1353,-5.0951,-5.076,-5.076,-5.0493,-5.0302,-5.0302,-5.0302,-5.0302,-5.0302,-5.0302,-5.0302,-5.0302,-5.0302,-5.0302,-5.0302,-5.0302,-5.0302,-5.0302,-5.0302,-5.0302,-5.0302,-5.0302,-5.0302,-5.0302,-5.0302,-5.0302]},{"header":{"parameterUnit":"m.s-1","parameterCategory":1,"la1":30.6,"la2":29.2853,"lo1":-89.7004,"lo2":-87.6739,"dy":0.0162,"dx":0.0183,"nx":112,"ny":82,"refTime":"2024-04-11T12:00:00:Z","depth":0,"parameterNumber":3,"parameterNumberName":"V-component_of_WINDS"},"data":[0.0,0.0,0.0,0.0,0.0,0.0,0.0,0.0,0.0,0.0,0.0,0.0,0.0,0.0,0.0,0.0,0.0,0.0,0.0,0.0,0.0,0.0,0.0,0.0,0.0,0.0,0.0,0.0,0.0,0.0,0.0,0.0,0.0,0.0,0.0,0.0,0.0,0.0,0.0,0.0,0.0,0.0,0.0,0.0,0.0,0.0,0.0,0.0,0.0,0.0,0.0,0.0,0.0,0.0,0.0,0.0,0.0,0.0,0.0,0.0,0.0,0.0,0.0,0.0,0.0,0.0,0.0,0.0,0.0,0.0,0.0,0.0,0.0,0.0,0.0,0.0,0.0,0.0,0.0,0.0,0.0,0.0,0.0,0.0,0.0,0.0,0.0,0.0,0.0,0.0,0.2103,0.1567,0.1145,0.101,0.1277,0.1582,0.1893,0.2218,0.0,0.0,0.0,0.0,0.0,0.0,0.0,0.0,0.0,0.0,0.0,0.0,0.0,0.0,0.0,0.0,0.0,0.0,0.0,0.0,0.0,0.0,0.0,0.0,0.0,0.0,0.0,0.0,0.0,0.0,0.0,0.0,0.0,0.0,0.0,0.0,0.0,0.0,0.0,0.0,0.0,0.0,0.0,0.0,0.0,0.0,0.0,0.0,0.0,0.0,0.0,0.0,0.0,0.0,0.0,0.0,0.0,0.0,0.0,0.0,0.0,0.0,0.0,0.0,0.0,0.0,0.0,0.0,0.0,0.0,0.0,0.0,0.0,0.0,0.0,0.0,0.0,0.0,0.0,0.0,0.0,0.0,0.0,0.0,0.0,0.0,0.0,0.0,0.0,0.0,0.0,0.0,0.0,0.0,0.0,0.0,0.0,0.0,0.0,0.0,0.0,0.0,0.0,0.0,0.2012,0.1253,0.101,0.101,0.1277,0.1693,0.2093,0.2434,0.0,0.0,0.0,0.0,0.0,0.0,0.0,0.0,0.0,0.0,0.0,0.0,0.0,0.0,0.0,0.0,0.0,0.0,0.0,0.0,0.0,0.0,0.0,0.0,0.0,0.0,0.0,0.0,0.0,0.0,0.0,0.0,0.0,0.0,0.0,0.0,0.0,0.0,0.0,0.0,0.0,0.0,0.0,0.0,0.0,0.0,0.0,0.0,0.0,0.0,0.0,0.0,0.0,0.0,0.0,0.0,0.0,0.0,0.0,0.0,0.0,0.0,0.0,0.0,0.0,0.0,0.0,0.0,0.0,0.0,0.0,0.0,0.0,0.0,0.0,0.0,0.0,0.0,0.0,0.0,0.0,0.0,0.0,0.0,0.0,0.0,0.0,0.0,0.0,0.0,0.0,0.0,0.0,0.0,0.0,0.0,0.0,0.0,0.0,0.0,0.0,0.0,0.0,0.2237,0.1701,0.1164,0.1053,0.1121,0.1433,0.1904,0.2308,0.2649,0.2696,0.0,0.0,0.0,0.0,0.0,0.0,0.0,0.0,0.0,0.0,0.0,0.0,0.0,0.0,0.0,0.0,0.0,0.0,0.0,0.0,0.0,0.0,0.0,0.0,0.0,0.0,0.0,0.0,0.0,0.0,0.0,0.0,0.0,0.0,0.0,0.0,0.0,0.0,0.0,0.0,0.0,0.0,0.0,0.0,0.0,0.0,0.0,0.0,0.0,0.0,0.0,0.0,0.0,0.0,0.0,0.0,0.0,0.0,0.0,0.0,0.0,0.0,0.0,0.0,0.0,0.0,0.0,0.0,0.0,0.0,0.0,0.0,0.0,0.0,0.0,0.0,0.0,0.0,0.0,0.0,0.0,0.0,0.0,0.0,0.0,0.0,0.0,0.0,0.0,0.0,0.0,0.0,0.0,0.0,0.0,0.0,0.0,0.0,0.0,0.0,0.0,0.0,0.2016,0.1524,0.1208,0.1164,0.1299,0.1614,0.2103,0.2515,0.2817,0.2909,0.0,0.0,0.0,0.0,0.0,0.0,0.0,0.0,0.0,0.0,0.0,0.0,0.0,0.0,0.0,0.0,0.0,0.0,0.0,0.0,0.0,0.0,0.0,0.0,0.0,0.0,0.0,0.0,0.0,0.0,0.0,0.0,0.0,0.0,0.0,0.0,0.0,0.0,0.0,0.0,0.0,0.0,0.0,0.0,0.0,0.0,0.0,0.0,0.0,0.0,0.0,0.0,0.0,0.0,0.0,0.0,0.0,0.0,0.0,0.0,0.0,0.0,0.0,0.0,0.0,0.0,0.0,0.0,0.0,0.0,0.0,0.0,0.0,0.0,0.0,0.0,0.0,0.0,0.0,0.0,0.0,0.0,0.0,0.0,0.0,0.0,0.0,0.0,0.0,0.0,0.0,0.0,0.0,0.0,0.0,0.0,0.0,0.0,0.0,0.0,0.0,0.0,0.215,0.1681,0.1411,0.1389,0.1478,0.177,0.2328,0.2768,0.2976,0.3056,0.0,0.0,0.0,0.0,0.0,0.0,0.0,0.0,0.0,0.0,0.0,0.0,0.0,0.0,0.0,0.0,0.0,0.0,0.0,0.0,0.0,0.0,0.0,0.0,0.0,0.0,0.0,0.0,0.0,0.0,0.0,0.0,0.0,0.0,0.0,0.0,0.0,0.0,0.0,0.0,0.0,0.0,0.0,0.0,0.0,0.0,0.0,0.0,0.0,0.0,0.0,0.0,0.0,0.0,0.0,0.0,0.0,0.0,0.0,0.0,0.0,0.0,0.0,0.0,0.0,0.0,0.0,0.0,0.0,0.0,0.0,0.0,0.0,0.0,0.0,0.0,0.0,0.0,0.0,0.0,0.0,0.0,0.0,0.0,0.0,0.0,0.0,0.0,0.0,0.0,0.0,0.0,0.0,0.0,0.0,0.0,0.0,0.0,0.0,0.0,0.0,0.0,0.2326,0.1902,0.0,0.1658,0.1746,0.1967,0.2506,0.2909,0.3103,0.0,0.0,0.0,0.0,0.0,0.0,0.0,0.0,0.0,0.0,0.0,0.0,0.0,0.0,0.0,0.0,0.0,0.0,0.0,0.0,0.0,0.0,0.0,0.0,0.0,0.0,0.0,0.0,0.0,0.0,0.0,0.0,0.0,0.0,0.0,0.0,0.0,0.0,0.0,0.0,0.0,0.0,0.0,0.0,0.0,0.0,0.0,0.0,0.0,0.0,0.0,0.0,0.0,0.0,0.0,0.0,0.0,0.0,0.0,0.0,0.0,0.0,0.0,0.0,0.0,0.0,0.0,0.0,0.0,0.0,0.0,0.0,0.0,0.0,0.0,0.0,0.0,0.0,0.0,0.0,0.0,0.0,0.0,0.0,0.0,0.0,0.0,0.0,0.0,0.0,0.0,0.0,0.0,0.0,0.0,0.0,0.0,0.0,0.0,0.0,0.0,0.0,0.2934,0.246,0.2079,0.0,0.1906,0.1994,0.2146,0.2637,0.3018,0.3192,0.0,0.0,0.0,0.0,0.0,0.0,0.0,0.0,0.0,0.0,0.0,0.0,0.0,0.0,0.0,0.0,0.0,0.0,0.0,0.0,0.0,0.0,0.0,0.0,0.0,0.0,0.0,0.0,0.0,0.0,0.0,0.0,0.0,0.0,0.0,0.0,0.0,0.0,0.0,0.0,0.0,0.0,0.0,0.0,0.0,0.0,0.0,0.0,0.0,0.0,0.0,0.0,0.0,0.0,0.0,0.0,0.0,0.0,0.0,0.0,0.0,0.0,0.0,0.0,0.0,0.0,0.0,0.0,0.0,0.0,0.0,0.0,0.0,0.0,0.0,0.0,0.0,0.0,0.0,0.0,0.0,0.0,0.0,0.0,0.0,0.0,0.0,0.0,0.0,0.0,0.0,0.0,0.0,0.0,0.0,0.0,0.0,0.0,0.0,0.0,0.0,0.0,0.2934,0.2551,0.2215,0.2018,0.2109,0.2219,0.2304,0.2724,0.3056,0.0,0.0,0.0,0.0,0.0,0.0,0.0,0.0,0.0,0.0,0.0,0.0,0.0,0.0,0.0,0.0,0.0,0.0,0.0,0.0,0.0,0.0,0.0,0.0,0.0,0.0,0.0,0.0,0.0,0.0,0.0,0.0,0.0,0.0,0.0,0.0,0.0,0.0,0.0,0.0,0.0,0.0,0.0,0.0,0.0,0.0,0.0,0.0,0.0,0.0,0.0,0.0,0.0,0.0,0.0,0.0,0.0,0.0,0.0,0.0,0.0,0.0,0.0,0.0,0.0,0.0,0.0,0.0,0.0,0.0,0.0,0.0,0.0,0.0,0.0,0.0,0.0,0.0,0.0,0.0,0.0,0.0,0.0,0.0,0.0,0.0,0.0,0.0,0.0,0.0,0.0,0.0,0.0,0.0,0.0,0.0,0.0,0.0,0.0,0.0,0.0,0.0,0.0,0.2776,0.2442,0.2174,0.202,0.2109,0.2199,0.2219,0.2665,0.2973,0.3056,0.0,0.0,0.0,0.0,0.0,0.0,0.0,0.0,0.0,0.0,0.0,0.0,0.0,0.0,0.0,0.0,0.0,0.0,0.0,0.0,0.0,0.0,0.0,0.0,0.0,0.0,0.0,0.0,0.0,0.0,0.0,0.0,0.0,0.0,0.0,0.0,0.0,0.0,0.0,0.0,0.0,0.0,0.0,0.0,0.0,0.0,0.0,0.0,0.0,0.0,0.0,0.0,0.0,0.0,0.0,0.0,0.0,0.0,0.0,0.0,0.0,0.0,0.0,0.0,0.0,0.0,0.0,0.0,0.0,0.0,0.0,0.0,0.0,0.0,0.0,0.0,0.0,0.0,0.0,0.0,0.0,0.0,0.0,0.0,0.0,0.0,0.0,0.0,0.0,0.0,0.0,0.0,0.0,0.0,0.0,0.0,0.0,0.0,0.0,0.0,0.0,0.0,0.2571,0.2241,0.1973,0.1772,0.1928,0.2042,0.2042,0.2464,0.2773,0.2882,0.0,0.0,0.0,0.0,0.0,0.0,0.0,0.0,0.0,0.0,0.0,0.0,0.0,0.0,0.0,0.0,0.0,0.0,0.0,0.0,0.0,0.0,0.0,0.0,0.0,0.0,0.0,0.0,0.0,0.0,0.0,0.0,0.0,0.0,0.0,0.0,0.0,0.0,0.0,0.0,0.0,0.0,0.0,0.0,0.0,0.0,0.0,0.0,0.0,0.0,0.0,0.0,0.0,0.0,0.0,0.0,0.0,0.0,0.0,0.0,0.0,0.0,0.0,0.0,0.0,0.0,0.0,0.0,0.0,0.0,0.0,0.0,0.0,0.0,0.0,0.0,0.0,0.0,0.0,0.0,0.0,0.0,0.0,0.0,0.0,0.0,0.0,0.0,0.0,0.0,0.0,0.0,0.0,0.0,0.0,0.0,0.0,0.0,0.0,0.0,0.0,0.0,0.2304,0.1969,0.1658,0.1411,0.1591,0.1748,0.177,0.2194,0.2529,0.2662,0.0,0.0,0.0,0.0,0.0,0.0,0.0,0.0,0.0,0.0,0.0,0.0,0.0,0.0,0.0,0.0,0.0,0.0,0.0,0.0,0.0,0.0,0.0,0.0,0.0,0.0,0.0,0.0,0.0,0.0,0.0,0.0,0.0,0.0,0.0,0.0,0.0,0.0,0.0,0.0,0.0,0.0,0.0,0.0,0.0,0.0,0.0,0.0,0.0,0.0,0.0,0.0,0.0,0.0,0.0,0.0,0.0,0.0,0.0,0.0,0.3947,0.0,0.0,0.0,0.0,0.0,0.0,0.0,0.0,0.0,0.0,0.0,0.0,0.0,0.0,0.0,0.0,0.0,0.0,0.0,0.0,0.0,0.0,0.0,0.0,0.0,0.0,0.0,0.0,0.0,0.0,0.0,0.0,0.0,0.0,0.0,0.0,0.0,0.0,0.0,0.0,0.0,0.1971,0.1658,0.1411,0.1186,0.1321,0.1433,0.1478,0.186,0.2241,0.2526,0.2945,0.0,0.0,0.0,0.0,0.0,0.0,0.0,0.0,0.0,0.0,0.0,0.0,0.0,0.0,0.0,0.0,0.0,0.0,0.0,0.0,0.0,0.0,0.0,0.0,0.0,0.0,0.0,0.0,0.0,0.0,0.0,0.0,0.0,0.0,0.0,0.0,0.0,0.0,0.0,0.0,0.0,0.0,0.0,0.0,0.0,0.0,0.0,0.0,0.0,0.0,0.0,0.0,0.0,0.0,0.0,0.0,0.0,0.0,0.0,0.0,0.3646,0.0,0.0,0.0,0.0,0.0,0.0,0.0,0.0,0.0,0.0,0.0,0.0,0.0,0.0,0.0,0.0,0.0,0.0,0.0,0.0,0.0,0.0,0.0,0.0,0.0,0.0,0.0,0.0,0.0,0.0,0.0,0.0,0.0,0.0,0.0,0.0,0.0,0.0,0.0,0.0,0.1681,0.1411,0.1165,0.0942,0.1032,0.1144,0.1254,0.1591,0.1971,0.237,0.2818,0.0,0.0,0.0,0.0,0.0,0.0,0.0,0.0,0.0,0.0,0.0,0.0,0.0,0.0,0.0,0.0,0.0,0.0,0.0,0.0,0.0,0.0,0.0,0.0,0.0,0.0,0.0,0.0,0.0,0.0,0.0,0.0,0.0,0.0,0.0,0.0,0.0,0.0,0.0,0.0,0.0,0.0,0.0,0.0,0.0,0.0,0.0,0.0,0.0,0.0,0.0,0.0,0.0,0.0,0.5039,0.4756,0.4429,0.4368,0.4527,0.3999,0.402,0.4416,0.0,0.0,0.0,0.0,0.0,0.0,0.0,0.0,0.0,0.0,0.0,0.0,0.0,0.0,0.0,0.0,0.0,0.0,0.0,0.0,0.0,0.0,0.0,0.0,0.0,0.2278,0.2358,0.0,0.0,0.0,0.0,0.0,0.0,0.0,0.0,0.0,0.0,0.0,0.0,0.1448,0.1208,0.0984,0.0734,0.0821,0.0954,0.1132,0.144,0.1835,0.2302,0.2707,0.3037,0.0,0.0,0.0,0.0,0.0,0.0,0.0,0.0,0.0,0.0,0.0,0.0,0.0,0.0,0.0,0.0,0.0,0.0,0.0,0.0,0.0,0.0,0.0,0.0,0.0,0.0,0.0,0.0,0.0,0.0,0.0,0.0,0.5822,0.5334,0.0,0.0,0.0,0.0,0.0,0.0,0.0,0.0,0.0,0.0,0.0,0.0,0.0,0.0,0.7142,0.7149,0.7037,0.6889,0.6889,0.6753,0.6533,0.6255,0.5925,0.5568,0.5283,0.0,0.4336,0.4548,0.0,0.0,0.0,0.0,0.0,0.0,0.0,0.0,0.0,0.0,0.0,0.0,0.0,0.0,0.0,0.0,0.0,0.0,0.0,0.0,0.0,0.0,0.3168,0.2382,0.2222,0.2152,0.0,0.2075,0.2241,0.2368,0.0,0.0,0.0,0.0,0.0,0.0,0.0,0.0,0.1371,0.1144,0.0944,0.0795,0.0844,0.0992,0.1252,0.1579,0.1971,0.2437,0.2793,0.3095,0.3369,0.3423,0.0,0.0,0.0,0.0,0.0,0.0,0.0,0.0,0.0,0.0,0.0,0.0,0.0,0.0,0.0,0.0,0.0,0.0,0.0,0.0,0.0,0.0,0.0,0.0,0.0,0.0,0.0,0.0,0.0,0.5201,0.5566,0.4958,0.5262,0.5177,0.0,0.0,0.0,0.0,0.0,0.0,0.0,0.0,0.0,0.6485,0.659,0.6915,0.7495,0.7499,0.7389,0.7211,0.7211,0.7073,0.6891,0.6602,0.6411,0.6175,0.5942,0.5721,0.5507,0.527,0.5334,0.5539,0.0,0.0,0.0,0.0,0.0,0.5164,0.5735,0.0,0.0,0.0,0.0,0.0,0.0,0.0,0.0,0.0,0.0,0.0,0.0,0.0,0.0,0.2352,0.2215,0.2142,0.1854,0.1854,0.1923,0.0,0.2125,0.211,0.2251,0.0,0.0,0.0,0.0,0.0,0.1156,0.1048,0.0958,0.0806,0.0894,0.1058,0.1329,0.1732,0.2177,0.2641,0.2943,0.3236,0.3512,0.3432,0.3402,0.0,0.0,0.0,0.0,0.0,0.0,0.0,0.0,0.0,0.0,0.0,0.0,0.0,0.0,0.0,0.0,0.0,0.0,0.0,0.0,0.0,0.0,0.0,0.0,0.0,0.0,0.0,0.0,0.5146,0.546,0.5006,0.5453,0.544,0.0,0.0,0.0,0.0,0.0,0.0,0.6091,0.6203,0.6424,0.6915,0.7041,0.7278,0.7651,0.7655,0.7577,0.7416,0.7416,0.7324,0.7184,0.6986,0.6843,0.6795,0.661,0.6658,0.6721,0.6093,0.6156,0.658,0.6314,0.6151,0.6088,0.6091,0.6091,0.6169,0.6736,0.6929,0.6987,0.7322,0.0,0.7075,0.6403,0.0,0.0,0.0,0.0,0.4638,0.4285,0.0,0.3433,0.2713,0.2447,0.2285,0.1989,0.1868,0.1842,0.0,0.1806,0.1766,0.1888,0.0,0.0,0.0,0.0,0.1304,0.1151,0.1109,0.1038,0.0934,0.1081,0.1279,0.156,0.2024,0.2475,0.2879,0.3164,0.3388,0.3581,0.3466,0.343,0.3499,0.0,0.0,0.0,0.0,0.0,0.0,0.0,0.0,0.0,0.0,0.0,0.0,0.0,0.0,0.0,0.0,0.0,0.0,0.0,0.0,0.0,0.0,0.0,0.0,0.0,0.0,0.0,0.0,0.0,0.6214,0.6242,0.0,0.0,0.0,0.0,0.6721,0.6451,0.6641,0.7455,0.7109,0.7088,0.7539,0.7563,0.7641,0.7797,0.7801,0.7826,0.7965,0.7965,0.7968,0.7968,0.7918,0.777,0.7524,0.7524,0.7524,0.7502,0.7022,0.672,0.6616,0.6806,0.6624,0.6337,0.6719,0.6829,0.6896,0.7394,0.7553,0.7556,0.758,0.72,0.6725,0.6681,0.6234,0.0,0.0,0.6291,0.6121,0.5847,0.5527,0.4964,0.375,0.3142,0.2754,0.2377,0.2209,0.202,0.0,0.1273,0.1287,0.1413,0.0,0.1463,0.1564,0.1534,0.1488,0.1488,0.1368,0.1284,0.1284,0.1519,0.178,0.2042,0.2541,0.2943,0.3165,0.3439,0.3589,0.3607,0.3653,0.3623,0.3503,0.3609,0.0,0.0,0.0,0.0,0.0,0.0,0.0,0.0,0.0,0.0,0.0,0.0,0.0,0.0,0.0,0.0,0.0,0.0,0.0,0.0,0.0,0.0,0.0,0.0,0.0,0.0,0.0,0.0,0.5764,0.6231,0.0,0.6149,0.6366,0.6596,0.6866,0.7051,0.7261,0.7584,0.7533,0.757,0.7729,0.7831,0.7957,0.8106,0.8106,0.818,0.8323,0.8323,0.8323,0.8323,0.8323,0.8271,0.8172,0.8172,0.8122,0.8032,0.7875,0.768,0.7499,0.7594,0.75,0.7424,0.7537,0.7594,0.7617,0.7779,0.7833,0.7868,0.7767,0.7529,0.7261,0.7163,0.698,0.6844,0.705,0.6916,0.6659,0.6154,0.5863,0.5422,0.4476,0.4141,0.3951,0.3675,0.3588,0.3427,0.305,0.2391,0.1986,0.2192,0.187,0.1685,0.1992,0.1762,0.1625,0.1789,0.1779,0.1793,0.1877,0.208,0.2311,0.2581,0.298,0.3319,0.3574,0.3745,0.3825,0.3724,0.376,0.3733,0.3623,0.3623,0.357,0.0,0.0,0.0,0.0,0.0,0.0,0.0,0.0,0.0,0.0,0.0,0.0,0.0,0.0,0.0,0.0,0.0,0.0,0.0,0.0,0.0,0.0,0.0,0.0,0.0,0.0,0.617,0.5815,0.648,0.6807,0.6508,0.6932,0.7203,0.7253,0.758,0.777,0.7824,0.7916,0.7987,0.8035,0.8136,0.8238,0.834,0.8391,0.8387,0.8482,0.8482,0.8482,0.8482,0.8482,0.8482,0.8482,0.8482,0.8428,0.8391,0.8391,0.8282,0.818,0.8029,0.7988,0.7988,0.7988,0.7988,0.7988,0.7988,0.7988,0.7971,0.7874,0.7824,0.7729,0.7628,0.7597,0.7597,0.7597,0.7456,0.7247,0.6714,0.6444,0.6104,0.5434,0.5192,0.5042,0.4796,0.4749,0.4665,0.4524,0.3537,0.2862,0.3059,0.275,0.2558,0.2843,0.2523,0.2274,0.2509,0.2414,0.235,0.249,0.2687,0.2882,0.3128,0.3422,0.3681,0.3849,0.3994,0.4004,0.3873,0.3819,0.3767,0.3733,0.3646,0.3547,0.3437,0.0,0.0,0.0,0.0,0.0,0.0,0.0,0.0,0.0,0.0,0.0,0.0,0.0,0.0,0.0,0.0,0.0,0.0,0.0,0.0,0.0,0.0,0.0,0.5511,0.5951,0.6388,0.6528,0.7071,0.7499,0.7784,0.7814,0.7882,0.7985,0.7995,0.8113,0.832,0.833,0.8391,0.8479,0.8482,0.8482,0.8489,0.8489,0.8489,0.8496,0.8496,0.8496,0.8496,0.8496,0.8496,0.8496,0.8496,0.8492,0.8489,0.8489,0.8486,0.8455,0.816,0.7995,0.7995,0.7992,0.7988,0.7988,0.7988,0.7988,0.7988,0.7988,0.7988,0.7988,0.7988,0.7988,0.7988,0.7988,0.7988,0.7942,0.7696,0.7391,0.7089,0.6537,0.6239,0.5989,0.5687,0.5634,0.5634,0.5634,0.467,0.3835,0.3955,0.3946,0.3977,0.4136,0.3765,0.0,0.3641,0.3266,0.3027,0.3168,0.337,0.3536,0.3666,0.3893,0.4064,0.4061,0.4187,0.42,0.4048,0.3927,0.3846,0.3839,0.3726,0.3561,0.337,0.0,0.0,0.0,0.0,0.0,0.0,0.0,0.0,0.0,0.0,0.0,0.0,0.0,0.0,0.0,0.0,0.0,0.0,0.0,0.0,0.0,0.605,0.6395,0.6228,0.6726,0.7166,0.7272,0.7526,0.7723,0.7804,0.7913,0.8041,0.8197,0.8208,0.8269,0.8418,0.8425,0.8442,0.8479,0.8482,0.8533,0.8648,0.8648,0.8703,0.8815,0.8815,0.8815,0.8815,0.8815,0.8815,0.8815,0.8815,0.875,0.8648,0.8648,0.8581,0.8465,0.8279,0.8208,0.8194,0.8029,0.7988,0.7988,0.7988,0.7988,0.7988,0.7988,0.7988,0.7988,0.7988,0.7988,0.7988,0.7988,0.7988,0.7942,0.7696,0.7547,0.7391,0.7039,0.6939,0.6839,0.6786,0.6736,0.6736,0.6736,0.6466,0.6045,0.5531,0.5133,0.5013,0.5357,0.0,0.0,0.5001,0.4955,0.4902,0.5042,0.5114,0.5145,0.5186,0.5246,0.5292,0.5316,0.5339,0.5308,0.5165,0.5118,0.5043,0.4962,0.4921,0.488,0.0,0.0,0.0,0.0,0.0,0.0,0.0,0.0,0.0,0.0,0.0,0.0,0.0,0.0,0.0,0.0,0.0,0.0,0.0,0.0,0.0,0.0,0.6651,0.6966,0.7024,0.7282,0.7522,0.7672,0.7763,0.7862,0.7991,0.8085,0.8197,0.8347,0.836,0.8425,0.857,0.8577,0.8608,0.8672,0.8672,0.8716,0.8804,0.8804,0.8797,0.8885,0.8885,0.8885,0.8885,0.8885,0.8885,0.0,0.8885,0.8834,0.8804,0.8804,0.8754,0.0,0.0,0.0,0.0,0.0,0.8136,0.8126,0.8012,0.7988,0.7988,0.7988,0.7988,0.7988,0.7988,0.7988,0.7988,0.7988,0.7988,0.7942,0.7793,0.7743,0.7743,0.759,0.7537,0.7537,0.7537,0.7537,0.7537,0.7537,0.0,0.0,0.6942,0.6401,0.6164,0.6397,0.6005,0.5759,0.0,0.5894,0.5828,0.598,0.6018,0.6024,0.6018,0.5914,0.0,0.0,0.0,0.5739,0.5596,0.5589,0.0,0.0,0.0,0.5395,0.0,0.0,0.0,0.0,0.3218,0.3019,0.0,0.0,0.0,0.0,0.0,0.0,0.0,0.0,0.0,0.0,0.0,0.0,0.0,0.0,0.0,0.0,0.7329,0.7675,0.7818,0.7729,0.7695,0.7821,0.7851,0.797,0.8296,0.8337,0.8353,0.8499,0.8509,0.8574,0.8726,0.0,0.0,0.0,0.0,0.8908,0.8908,0.8925,0.8932,0.8932,0.8932,0.8932,0.8932,0.8932,0.8925,0.8908,0.8908,0.8898,0.8885,0.8885,0.8885,0.8854,0.8621,0.8499,0.8465,0.834,0.8347,0.0,0.0,0.0,0.0,0.8022,0.8015,0.8012,0.7995,0.7988,0.7988,0.7988,0.7988,0.7988,0.7988,0.7988,0.7988,0.7988,0.7988,0.7988,0.7988,0.7988,0.7988,0.7988,0.7988,0.7988,0.7988,0.7587,0.7288,0.7288,0.6926,0.0,0.6841,0.6489,0.6294,0.6461,0.0,0.0,0.6477,0.6308,0.6178,0.6145,0.6037,0.5898,0.5769,0.5766,0.5701,0.56,0.5597,0.5597,0.5597,0.5149,0.4764,0.4418,0.3459,0.2897,0.0,0.0,0.0,0.0,0.0,0.0,0.0,0.0,0.0,0.0,0.0,0.0,0.0,0.0,0.0,0.6994,0.7478,0.7824,0.7924,0.7921,0.7914,0.7941,0.8106,0.8204,0.8316,0.8374,0.8503,0.8655,0.8665,0.8733,0.8831,0.8841,0.0,0.8881,0.9052,0.9169,0.9169,0.9235,0.9296,0.9296,0.0,0.0,0.9296,0.9296,0.9228,0.9169,0.9169,0.9045,0.8885,0.8885,0.8885,0.8865,0.8737,0.8591,0.8479,0.8452,0.8442,0.8435,0.8404,0.8397,0.8377,0.8262,0.8225,0.8204,0.8025,0.7988,0.0,0.7988,0.7988,0.7988,0.7988,0.7988,0.7988,0.7988,0.7988,0.7988,0.7988,0.7988,0.7988,0.7988,0.7988,0.7988,0.7988,0.7889,0.7839,0.7839,0.7743,0.7719,0.7768,0.7671,0.7648,0.7648,0.7648,0.7645,0.7522,0.7482,0.7366,0.7129,0.6966,0.6825,0.6798,0.6798,0.6785,0.6755,0.6755,0.6755,0.6755,0.6168,0.5613,0.5152,0.3915,0.3251,0.0,0.0,0.0,0.0,0.0,0.0,0.0,0.0,0.0,0.0,0.0,0.6578,0.675,0.0,0.7024,0.7473,0.7732,0.7901,0.7978,0.8106,0.8153,0.8153,0.8221,0.833,0.8476,0.8554,0.8659,0.8815,0.8825,0.8804,0.8878,0.9008,0.9045,0.9045,0.9188,0.9323,0.9323,0.9344,0.9381,0.9381,0.9381,0.9381,0.9381,0.9381,0.934,0.932,0.9245,0.9169,0.9042,0.8967,0.8885,0.8875,0.8801,0.8777,0.8703,0.8625,0.8598,0.8584,0.8509,0.8482,0.8469,0.8397,0.8377,0.8364,0.8282,0.8262,0.8245,0.8174,0.8153,0.8136,0.8008,0.7988,0.7988,0.7988,0.7988,0.7988,0.7988,0.7988,0.7988,0.7988,0.7988,0.7988,0.7988,0.7988,0.7988,0.7988,0.7988,0.7988,0.7988,0.7988,0.7988,0.7988,0.7988,0.7958,0.7884,0.7855,0.7685,0.7436,0.7299,0.7221,0.7098,0.7095,0.7095,0.7095,0.7095,0.7095,0.7095,0.6659,0.6124,0.5539,0.4529,0.3781,0.0,0.0,0.0,0.0,0.0,0.0,0.0,0.0,0.713,0.6804,0.6858,0.7089,0.7451,0.7364,0.7425,0.7911,0.7988,0.8002,0.8029,0.8194,0.8344,0.835,0.8357,0.8448,0.8686,0.8737,0.8804,0.8875,0.8885,0.8895,0.8977,0.9089,0.9224,0.9255,0.9347,0.9425,0.9425,0.9452,0.9466,0.9466,0.9466,0.9466,0.9466,0.9466,0.9452,0.9415,0.9289,0.921,0.92,0.8998,0.8885,0.8885,0.8885,0.8885,0.8868,0.8801,0.8754,0.8737,0.8615,0.857,0.8567,0.8537,0.8526,0.852,0.8489,0.8482,0.8459,0.8343,0.8364,0.8279,0.8126,0.8032,0.8025,0.7995,0.7988,0.7988,0.7988,0.7988,0.7988,0.7988,0.7988,0.7988,0.7988,0.7988,0.7988,0.7988,0.7988,0.7988,0.7988,0.7988,0.7988,0.7988,0.7988,0.7988,0.7988,0.7899,0.7709,0.7472,0.7431,0.7346,0.7146,0.7139,0.7125,0.7095,0.7095,0.7095,0.7095,0.6881,0.6479,0.5808,0.5139,0.4251,1.0014,0.9734,0.9322,0.8788,0.7884,0.7094,0.0,0.0,0.7548,0.7262,0.7655,0.7995,0.7955,0.7891,0.7911,0.7978,0.7988,0.8039,0.8225,0.831,0.8367,0.8628,0.8662,0.8672,0.8706,0.8832,0.8865,0.8881,0.8885,0.8994,0.918,0.92,0.9272,0.9351,0.9503,0.9585,0.9585,0.9707,0.9771,0.9771,0.9771,0.9771,0.9771,0.9771,0.9703,0.9568,0.9333,0.921,0.92,0.8998,0.8885,0.8885,0.8885,0.8885,0.8881,0.8865,0.8858,0.8854,0.8838,0.8834,0.8811,0.873,0.8682,0.8659,0.8523,0.8482,0.8479,0.8462,0.8459,0.8425,0.8282,0.8245,0.8211,0.8022,0.7988,0.7988,0.7988,0.7988,0.7988,0.7988,0.7988,0.7988,0.7988,0.7988,0.7988,0.7988,0.7988,0.7988,0.7988,0.7988,0.7988,0.7988,0.7988,0.7988,0.7988,0.7899,0.7797,0.7763,0.7645,0.7506,0.7353,0.7346,0.7282,0.7098,0.7095,0.7095,0.7095,0.6881,0.6656,0.6296,0.5636,0.4567,1.0807,1.0254,0.9582,0.8935,0.8307,0.7749,0.7582,0.7779,0.7905,0.7625,0.7855,0.8065,0.8028,0.7988,0.7988,0.0,0.7988,0.8092,0.8248,0.8391,0.8472,0.8686,0.8791,0.879,0.879,0.8848,0.8885,0.8885,0.8885,0.9001,0.9204,0.9296,0.9357,0.951,0.9656,0.9734,0.9734,0.9791,0.9822,0.9822,0.9822,0.9822,0.9822,0.9822,0.9744,0.9598,0.9381,0.9292,0.92,0.8998,0.8885,0.8885,0.8885,0.8885,0.8885,0.8885,0.8885,0.8885,0.8885,0.8885,0.8871,0.8811,0.879,0.8832,0.8767,0.8747,0.873,0.8638,0.8615,0.8581,0.8431,0.8394,0.8357,0.8208,0.8174,0.815,0.8008,0.7988,0.7988,0.7988,0.7988,0.7988,0.7988,0.7988,0.7988,0.7988,0.7988,0.7988,0.7988,0.7988,0.7988,0.7988,0.7988,0.7988,0.7988,0.7931,0.7906,0.7818,0.7753,0.7655,0.7509,0.7417,0.7343,0.7275,0.7142,0.7095,0.7095,0.701,0.6877,0.6612,0.6169,0.5455,1.0837,1.0216,0.0,0.8908,0.8458,0.8135,0.7944,0.8045,0.8077,0.7875,0.7914,0.7988,0.7988,0.7988,0.7988,0.7988,0.8025,0.8157,0.8306,0.8455,0.8601,0.8754,0.8817,0.8885,0.8885,0.8885,0.8885,0.8885,0.8977,0.9062,0.9265,0.9361,0.9513,0.9663,0.9768,0.9822,0.9822,0.9822,0.9822,0.9822,0.9822,0.9822,0.9822,0.9822,0.9764,0.9659,0.951,0.9357,0.9262,0.9059,0.8974,0.8885,0.8885,0.8885,0.8885,0.8885,0.8885,0.8885,0.8885,0.8885,0.8885,0.8885,0.8885,0.8885,0.8885,0.8885,0.8861,0.8804,0.8774,0.8737,0.8584,0.8547,0.8509,0.8364,0.835,0.8241,0.8126,0.8019,0.7988,0.7988,0.7988,0.7988,0.7988,0.7988,0.7988,0.7988,0.7988,0.7988,0.7988,0.7988,0.7988,0.7988,0.7988,0.7988,0.7988,0.7988,0.7941,0.7882,0.7875,0.7811,0.7665,0.755,0.7475,0.7434,0.7282,0.7204,0.7204,0.7119,0.701,0.6881,0.6612,0.621,1.0207,0.9753,0.9618,0.8818,0.819,0.7845,0.7991,0.7978,0.7982,0.7982,0.7985,0.7988,0.7988,0.7988,0.7988,0.7988,0.8167,0.8313,0.8455,0.8608,0.876,0.8858,0.8881,0.8885,0.0,0.8885,0.8885,0.8885,0.9066,0.9268,0.9364,0.952,0.9666,0.9812,0.9819,0.9822,0.9822,0.9822,0.9822,0.9822,0.9822,0.9822,0.9822,0.9822,0.9819,0.9805,0.9663,0.9517,0.9361,0.9265,0.9062,0.8885,0.8885,0.8885,0.8885,0.8885,0.8885,0.8885,0.8885,0.8885,0.8885,0.8885,0.8885,0.8885,0.8885,0.8885,0.8881,0.8878,0.8875,0.8841,0.8743,0.8703,0.8665,0.8513,0.837,0.832,0.8316,0.8147,0.7988,0.7988,0.7988,0.7988,0.7988,0.7988,0.7988,0.7988,0.7988,0.7988,0.7988,0.7988,0.7988,0.7988,0.7988,0.7988,0.7988,0.7988,0.7988,0.7982,0.7982,0.7914,0.7811,0.7801,0.7733,0.7597,0.7441,0.7409,0.7409,0.7214,0.7095,0.7095,0.6881,0.6656,1.0888,1.0356,0.9694,0.8816,0.8282,0.7928,0.7978,0.7988,0.7988,0.7988,0.7675,0.7429,0.7577,0.7512,0.7432,0.758,0.7977,0.8371,0.8462,0.8615,0.8767,0.8865,0.8885,0.0,0.0,0.0,0.0,0.9076,0.9183,0.932,0.952,0.9581,0.9676,0.9815,0.9822,0.9822,0.9822,0.9822,0.9822,0.9822,0.9822,0.9822,0.9822,0.9822,0.9822,0.9815,0.9673,0.9581,0.9513,0.9316,0.918,0.9069,0.8977,0.8885,0.8885,0.8885,0.8885,0.8885,0.8885,0.8885,0.8885,0.8885,0.8885,0.8885,0.8885,0.8885,0.8885,0.8885,0.8885,0.8871,0.8821,0.8807,0.8821,0.8669,0.8598,0.8509,0.8313,0.8231,0.8163,0.8008,0.7988,0.7988,0.7988,0.7988,0.7988,0.7988,0.7988,0.7988,0.7988,0.7988,0.7988,0.7988,0.7988,0.7988,0.7988,0.7988,0.7988,0.7988,0.7988,0.7968,0.7914,0.7865,0.7787,0.774,0.7597,0.7522,0.7522,0.7472,0.7444,0.7444,0.7356,0.7168,1.1158,1.0566,0.9925,0.8915,0.8312,0.7988,0.7988,0.7988,0.7988,0.7988,0.7557,0.7255,0.7353,0.7288,0.7255,0.7402,0.7968,0.8377,0.8469,0.8662,0.8828,0.8871,0.8885,0.8885,0.0,0.0,0.0,0.9204,0.9262,0.9344,0.9595,0.9656,0.9727,0.9819,0.9822,0.9822,0.9822,0.9822,0.9822,0.9822,0.9822,0.9822,0.9822,0.9822,0.9822,0.9815,0.9724,0.9656,0.9595,0.9398,0.9309,0.92,0.9052,0.8984,0.8885,0.8885,0.8885,0.8885,0.8885,0.8885,0.8885,0.8885,0.8885,0.8885,0.8885,0.8885,0.8885,0.8885,0.8885,0.8885,0.8885,0.8885,0.8858,0.8815,0.875,0.8659,0.8469,0.8343,0.8241,0.814,0.8025,0.7988,0.7988,0.7988,0.7988,0.7988,0.7988,0.7988,0.7988,0.7988,0.7988,0.7988,0.7988,0.7988,0.7988,0.7988,0.7988,0.7988,0.7988,0.7988,0.7988,0.7894,0.7892,0.7892,0.775,0.7675,0.7675,0.7624,0.76,0.76,0.76,0.7503,1.0962,1.0454,1.0162,0.9072,0.8382,0.7988,0.7988,0.7988,0.8038,0.8038,0.7658,0.7374,0.0,0.0,0.734,0.7347,0.794,0.8438,0.8445,0.8723,0.8875,0.0,0.0,0.0,0.0,0.0,0.0,0.9221,0.0,0.9459,0.9612,0.9747,0.9822,0.9822,0.9822,0.9822,0.9822,0.9822,0.9822,0.9822,0.9822,0.9822,0.9822,0.9822,0.9822,0.9822,0.9822,0.9744,0.9618,0.9612,0.9439,0.9231,0.9224,0.9076,0.8895,0.8895,0.8892,0.8885,0.8885,0.8885,0.8885,0.8885,0.8885,0.8885,0.8885,0.8885,0.8885,0.8885,0.8885,0.8885,0.8885,0.8885,0.8885,0.8885,0.8828,0.872,0.8713,0.8486,0.833,0.8323,0.8147,0.7988,0.7988,0.7988,0.7988,0.7988,0.7988,0.7988,0.7988,0.7988,0.7988,0.7988,0.7988,0.7988,0.7988,0.7988,0.7988,0.7988,0.7988,0.7988,0.7988,0.7988,0.7988,0.7988,0.7896,0.7824,0.7821,0.7689,0.7621,0.7621,0.7621,0.7621,1.1693,1.1033,1.0162,0.9072,0.8382,0.7988,0.7988,0.8137,0.8287,0.8287,0.7688,0.7194,0.0,0.0,0.0,0.6352,0.719,0.0,0.7967,0.8435,0.0,0.8868,0.0,0.8885,0.8885,0.9069,0.0,0.0,0.9466,0.9615,0.9758,0.9802,0.9822,0.9822,0.9822,0.9822,0.9822,0.9822,0.9822,0.9822,0.9822,0.9822,0.9822,0.9822,0.9822,0.9822,0.9822,0.9798,0.9758,0.9652,0.9564,0.9483,0.9367,0.9232,0.9096,0.9096,0.9028,0.8885,0.8885,0.8885,0.8885,0.8885,0.8885,0.8885,0.8885,0.8885,0.8885,0.8885,0.8885,0.8885,0.8885,0.8885,0.8885,0.8885,0.8854,0.8849,0.8733,0.856,0.8397,0.8344,0.8147,0.7988,0.7988,0.7988,0.7988,0.7988,0.7988,0.7988,0.7988,0.7988,0.7988,0.7988,0.7988,0.7988,0.7988,0.7988,0.7988,0.7988,0.7988,0.7988,0.7988,0.7988,0.7988,0.7988,0.7951,0.7931,0.7931,0.7894,0.7877,0.7877,0.7877,0.7877,1.2133,1.1198,1.0162,0.9072,0.8382,0.797,0.7757,0.7984,0.8142,0.8044,0.753,0.7083,0.71,0.6662,0.0,0.0,0.0,0.0,0.8058,0.8455,0.8767,0.0,0.8885,0.0,0.9025,0.9167,0.9317,0.0,0.9561,0.9673,0.9815,0.9822,0.9822,0.9822,0.9822,0.9822,0.9822,0.9822,0.9822,0.9822,0.9822,0.9822,0.9822,0.9822,0.9822,0.9822,0.0,0.9822,0.9815,0.9734,0.9666,0.9602,0.9513,0.9388,0.9309,0.9309,0.9161,0.9032,0.9032,0.8991,0.8885,0.8885,0.8885,0.8885,0.8885,0.8885,0.8885,0.8885,0.8885,0.8885,0.8885,0.8885,0.8885,0.8885,0.8885,0.8861,0.8828,0.8638,0.8421,0.8211,0.8099,0.7988,0.7988,0.7988,0.7988,0.7988,0.7988,0.7988,0.7988,0.7988,0.7988,0.7988,0.7988,0.7988,0.7988,0.8088,0.8187,0.8187,0.8283,0.8287,0.8184,0.8187,0.8137,0.7988,0.7988,0.7988,0.7988,0.7988,0.7988,0.7988,0.7988,0.7988,1.2273,1.1198,1.0162,0.9072,0.8432,0.7938,0.7535,0.7773,0.796,0.7723,0.7446,0.7257,0.7183,0.6886,0.6704,0.678,0.0,0.7675,0.8225,0.8469,0.8676,0.8854,0.8885,0.8994,0.9193,0.935,0.9445,0.9598,0.9629,0.969,0.9815,0.9822,0.9822,0.9822,0.9822,0.9822,0.9822,0.9822,0.9822,0.9822,0.9822,0.9822,0.9822,0.9822,0.9822,0.9822,0.0,0.0,0.9822,0.9822,0.9747,0.9639,0.9639,0.9544,0.9412,0.9412,0.9313,0.9238,0.9217,0.9069,0.8908,0.8888,0.8885,0.8885,0.8885,0.8885,0.8885,0.8885,0.8885,0.8885,0.8885,0.8885,0.8885,0.8885,0.8885,0.8885,0.8885,0.8699,0.8401,0.8123,0.8005,0.7988,0.7988,0.7988,0.7988,0.7988,0.7988,0.7988,0.7988,0.7988,0.7988,0.7988,0.7988,0.7988,0.7988,0.8237,0.8382,0.8382,0.8627,0.8676,0.8482,0.8432,0.8283,0.8038,0.8041,0.7988,0.7988,0.7988,0.7988,0.7988,0.7988,0.7988,1.2273,1.1198,1.0162,0.9072,0.8577,0.8255,0.7901,0.8351,0.0,0.8537,0.8258,0.7992,0.7651,0.729,0.6737,0.5982,0.6418,0.6976,0.7277,0.7716,0.8208,0.0,0.8885,0.8994,0.9193,0.935,0.0,0.0,0.0,0.9795,0.9819,0.9822,0.9822,0.9822,0.9822,0.9822,0.9822,0.9822,0.9822,0.9822,0.9822,0.9822,0.9822,0.9822,0.9822,0.9822,0.0,0.0,0.9822,0.9822,0.9805,0.9785,0.9785,0.9696,0.9568,0.9568,0.9473,0.9323,0.9255,0.9193,0.9096,0.8977,0.8885,0.8885,0.8885,0.8885,0.8885,0.8885,0.8885,0.8885,0.8885,0.8885,0.8885,0.8885,0.8885,0.8885,0.8885,0.8699,0.8431,0.8262,0.8126,0.7988,0.7988,0.7988,0.7988,0.7988,0.7988,0.7988,0.7988,0.7988,0.7988,0.7988,0.7988,0.7988,0.7988,0.8237,0.8382,0.8382,0.8627,0.8775,0.8726,0.8531,0.8382,0.8333,0.8137,0.7988,0.7988,0.7988,0.7988,0.7988,0.7988,0.7988,1.2273,1.1198,1.0162,0.9072,0.8726,0.8464,0.7818,0.0,0.0,0.8447,0.8283,0.8147,0.7771,0.7421,0.6984,0.6235,0.6458,0.6885,0.7368,0.7675,0.8092,0.8794,0.8885,0.9025,0.0,0.9337,0.0,0.0,0.0,0.0,0.9822,0.9822,0.9822,0.9822,0.9822,0.9822,0.9822,0.9822,0.9822,0.9822,0.9822,0.9822,0.9822,0.9822,0.9822,0.9822,0.0,0.0,0.9822,0.9822,0.9822,0.9822,0.9822,0.9778,0.972,0.972,0.9625,0.9479,0.9323,0.9275,0.9187,0.8984,0.8885,0.8885,0.8885,0.8885,0.8885,0.8885,0.8885,0.8885,0.8885,0.8885,0.8885,0.8885,0.8885,0.8861,0.8835,0.8706,0.8557,0.8411,0.8319,0.8245,0.8174,0.816,0.8133,0.8002,0.7988,0.7988,0.7988,0.7988,0.7988,0.7988,0.7988,0.8038,0.8187,0.8432,0.868,0.8783,0.908,0.9175,0.9031,0.8882,0.8684,0.8382,0.8283,0.8137,0.7988,0.7988,0.7988,0.7988,0.7988,0.7988,1.227,1.1292,1.0261,0.932,0.9072,0.8821,0.7956,0.8563,0.9086,0.8337,0.8249,0.8209,0.7824,0.7552,0.7175,0.0,0.6497,0.6817,0.7563,0.7668,0.7984,0.0,0.8885,0.0,0.9354,0.9381,0.0,0.0,0.0,0.0,0.9822,0.9822,0.9822,0.9822,0.9822,0.9822,0.9822,0.9822,0.9822,0.9822,0.9822,0.9822,0.9822,0.9822,0.9822,0.9822,0.0,0.0,0.0,0.9822,0.9822,0.9822,0.9822,0.9822,0.9822,0.9822,0.9751,0.9632,0.9483,0.933,0.9234,0.9032,0.8908,0.8885,0.8885,0.8885,0.8885,0.8885,0.8885,0.8885,0.8885,0.8885,0.8885,0.8885,0.8885,0.8851,0.8784,0.8733,0.8676,0.8554,0.8506,0.8445,0.8336,0.834,0.8231,0.8106,0.8012,0.7988,0.7988,0.7988,0.8038,0.8088,0.8088,0.8187,0.8382,0.868,0.8977,0.9187,0.943,0.9529,0.9286,0.9236,0.8985,0.8584,0.8482,0.8287,0.8088,0.8038,0.7988,0.7988,0.7988,0.7988,1.2284,1.1585,1.0605,1.0019,0.9871,0.9671,0.8868,0.0,0.9751,0.8909,0.8721,0.8571,0.8084,0.7757,0.723,0.6131,0.6011,0.631,0.7055,0.7156,0.7587,0.8743,0.0,0.0,0.9354,0.0,0.0,0.0,0.0,0.0,0.0,0.9822,0.9822,0.9822,0.9822,0.9822,0.9822,0.9822,0.9822,0.9822,0.9822,0.9822,0.9822,0.9822,0.9822,0.9822,0.0,0.0,0.0,0.9822,0.9822,0.9822,0.9822,0.9822,0.9822,0.9822,0.9812,0.9781,0.9639,0.949,0.9337,0.9238,0.9045,0.8885,0.8885,0.8885,0.8885,0.8885,0.8885,0.8885,0.8885,0.8885,0.8885,0.8885,0.8885,0.8878,0.8865,0.8808,0.8706,0.8693,0.8577,0.8479,0.8465,0.8357,0.8316,0.8252,0.813,0.7988,0.7988,0.7988,0.8088,0.8333,0.8382,0.8382,0.8382,0.8882,0.9183,0.9187,0.943,0.9579,0.9579,0.9335,0.9183,0.9133,0.8634,0.8382,0.8382,0.8137,0.7988,0.7988,0.7988,0.7988,1.2548,1.198,1.1145,1.0609,1.0703,1.0677,0.9606,0.0,1.0412,0.9331,0.9022,0.8759,0.8209,0.7822,0.7281,0.6234,0.6019,0.0,0.6994,0.7095,0.754,0.874,0.9015,0.0,0.0,0.0,0.0,0.0,0.0,0.0,0.0,0.9822,0.9822,0.9822,0.9822,0.9822,0.9822,0.9822,0.9822,0.9822,0.9822,0.9822,0.9822,0.9822,0.9822,0.9822,0.0,0.0,0.0,0.9822,0.9822,0.9822,0.9822,0.9822,0.9822,0.9822,0.9822,0.9798,0.9659,0.951,0.9357,0.9258,0.9055,0.8885,0.8885,0.8885,0.8885,0.8885,0.8885,0.8885,0.8885,0.8885,0.8885,0.8885,0.9047,0.9213,0.9213,0.9164,0.9119,0.9119,0.8907,0.8726,0.8635,0.8574,0.8476,0.8347,0.8218,0.8143,0.8002,0.8137,0.8283,0.8382,0.8382,0.8531,0.8832,0.9084,0.9282,0.943,0.9529,0.9579,0.9579,0.948,0.9381,0.9187,0.8832,0.8577,0.8382,0.8137,0.7988,0.7988,0.7988,0.7988,1.2808,1.2512,1.1878,1.1487,1.1491,1.1338,1.0361,0.0,1.057,0.9577,0.9177,0.885,0.8366,0.7845,0.7197,0.6406,0.0,0.633,0.6861,0.7095,0.7539,0.0,0.0,0.0,0.0,0.0,0.0,0.0,0.0,0.0,0.0,0.9822,0.9822,0.9822,0.9822,0.9822,0.9822,0.9822,0.9822,0.9822,0.9883,0.994,0.994,1.0061,1.0061,0.0,0.0,0.0,0.0,0.9822,0.9822,0.9822,0.9822,0.9822,0.9822,0.9822,0.9883,0.9926,0.9827,0.9808,0.9713,0.9556,0.9402,0.9269,0.9172,0.9047,0.8885,0.8885,0.8885,0.8885,0.8885,0.8885,0.8937,0.9051,0.9213,0.9434,0.9485,0.9544,0.9489,0.9434,0.9213,0.8958,0.8798,0.874,0.8638,0.8431,0.8326,0.8282,0.822,0.8314,0.8482,0.8634,0.8634,0.8783,0.9183,0.9282,0.9381,0.9579,0.9579,0.9579,0.9579,0.9579,0.9529,0.9331,0.8977,0.8726,0.8531,0.8187,0.7988,0.7988,0.7988,0.7988,1.3038,1.3149,1.2813,1.2759,1.2179,1.151,1.1157,1.0684,1.0143,0.9622,0.9236,0.8888,0.8554,0.7787,0.7012,0.6482,0.644,0.0,0.6497,0.7037,0.7431,0.0,0.0,0.0,0.0,0.0,0.0,0.0,0.0,0.0,0.0,0.9822,0.9822,0.9822,0.9822,0.9822,0.9822,0.9822,0.9822,0.9822,1.0122,1.0304,1.0304,1.0668,0.0,0.0,0.0,0.0,0.0,0.9822,0.9822,0.9822,0.9822,0.9822,0.9822,0.9822,1.0004,1.0304,1.0304,1.0445,1.0524,1.0353,1.0185,1.0077,0.9861,0.9375,0.8885,0.8885,0.8885,0.8885,0.8885,0.8885,0.8992,0.9323,0.9379,0.9489,0.9761,0.9816,0.9706,0.9434,0.9379,0.9268,0.8937,0.8811,0.871,0.8706,0.8459,0.8371,0.8674,0.8532,0.8581,0.9137,0.9187,0.9187,0.9187,0.943,0.9579,0.9579,0.9579,0.9579,0.9579,0.9579,0.9579,0.9579,0.9076,0.8775,0.8775,0.8283,0.7988,0.7988,0.7988,0.7988,1.1603,1.1694,1.1431,1.1431,1.1502,1.1408,1.0756,1.0767,1.0695,0.9862,0.9498,0.9204,0.8791,0.8177,0.7702,0.7566,0.7364,0.0,0.0,0.0,0.0,0.7615,0.0,0.0,0.0,0.0,0.0,0.0,0.0,0.0,0.0,0.0,0.9822,0.9822,0.9822,0.9822,0.9822,0.9822,0.9943,1.0122,1.0243,1.0425,1.0668,1.0728,0.0,0.0,0.0,0.0,0.0,0.9879,0.9822,0.9822,0.9822,0.9822,0.9819,1.0061,1.0183,1.0304,1.0547,1.0628,1.0587,1.0357,1.0189,1.0077,0.9861,0.9541,0.9213,0.894,0.8885,0.8885,0.8885,0.8885,0.8992,0.9323,0.9541,0.9761,1.0091,1.0147,1.0147,1.0036,0.9816,0.9596,0.9268,0.9226,0.9047,0.8726,0.8705,0.8698,0.8688,0.8836,0.9034,0.9187,0.9381,0.948,0.948,0.9529,0.9579,0.9579,0.9579,0.9579,0.9579,0.9579,0.9529,0.9335,0.8977,0.8726,0.8531,0.8187,0.7988,0.7988,0.7988,0.7988,1.0966,1.1193,1.1117,1.1117,1.1199,1.1193,1.0769,1.0717,1.0575,1.0,0.9903,0.9753,0.9106,0.8788,0.8514,0.8119,0.8143,0.8034,0.0,0.0,0.0,0.0,0.0,0.0,0.0,0.0,0.0,0.0,0.0,0.0,0.0,0.0,1.0061,1.0183,0.994,0.9883,1.0001,1.0001,1.0061,1.0304,1.0547,1.0789,1.097,0.0,0.0,0.0,0.0,0.0,0.0,0.994,0.9822,0.9822,0.9822,0.9879,1.0004,1.0243,1.0486,1.0728,1.091,1.1026,1.1038,1.0805,1.0586,1.0362,1.0086,0.9706,0.9379,0.9158,0.8992,0.8885,0.8885,0.8992,0.9158,0.9489,0.9761,1.0088,1.0366,1.0472,1.0421,1.0312,1.0147,0.9871,0.9596,0.9489,0.9292,0.9029,0.899,0.8994,0.8939,0.9131,0.9306,0.9339,0.948,0.9579,0.9579,0.9579,0.9579,0.9579,0.9579,0.9579,0.9579,0.9579,0.9529,0.9331,0.8977,0.8726,0.8528,0.8184,0.7988,0.7988,0.7988,0.7988,0.0,1.1365,1.1417,1.1417,1.1051,1.0759,1.0949,1.0502,0.0,1.0015,1.0408,1.0442,0.948,0.9565,0.9381,0.8286,0.8844,0.8778,0.0,0.7718,0.0,0.0,0.0,0.0,0.0,0.0,0.0,0.0,0.0,0.0,0.0,0.0,1.0486,1.0849,1.0183,1.0004,1.0304,1.0365,1.0365,1.0365,1.097,1.1333,1.1333,0.0,0.0,0.0,0.0,0.0,0.0,1.0004,0.9822,0.9822,0.9819,1.0001,1.0304,1.0365,1.0789,1.1273,1.1333,1.1522,1.1744,1.1545,1.1248,1.0936,1.0477,0.9926,0.9434,0.9434,0.9158,0.8937,0.8885,0.9158,0.9489,0.9761,1.0036,1.0366,1.0637,1.0692,1.0637,1.0366,1.0312,1.0202,0.9871,0.9651,0.9434,0.9434,0.9352,0.9297,0.9298,0.9436,0.9567,0.9595,0.9579,0.9579,0.9579,0.9579,0.9579,0.9579,0.9579,0.9579,0.9579,0.9579,0.9579,0.9579,0.9027,0.8775,0.8726,0.8237,0.7988,0.7988,0.7988,0.7988,0.9314,0.0,0.9459,0.9459,0.9718,0.9972,0.0,1.0241,1.0371,1.0047,1.0585,1.0736,0.9518,0.9839,1.009,0.9411,0.9887,0.9853,0.843,0.0,0.0,0.0,0.0,0.0,0.0,0.0,0.0,0.0,0.0,0.0,0.0,0.0,1.0849,1.1152,1.0789,1.0607,1.0668,1.0668,1.0789,1.1091,1.1212,1.1458,1.1712,0.0,0.0,0.0,0.0,0.0,1.0668,1.0304,1.0001,0.9819,1.0061,1.0243,1.0365,1.091,1.1152,1.1333,1.1587,1.1712,1.1723,1.1395,1.1143,1.0936,1.0694,1.0363,0.9981,0.9544,0.9323,0.9213,0.8995,0.9158,0.9489,0.9761,1.0036,1.0366,1.0637,1.0692,1.0692,1.0637,1.0637,1.0527,1.0257,1.0147,0.9981,0.9761,0.9779,0.9773,0.9609,0.9741,0.9769,0.9599,0.9579,0.9579,0.9579,0.9579,0.9579,0.9579,0.9579,0.9579,0.9579,0.9579,0.9529,0.9286,0.8779,0.8382,0.8187,0.8038,0.7988,0.7988,0.7988,0.7988,0.8804,0.8804,0.8804,0.8804,0.9252,0.9715,0.9715,1.0171,1.0498,1.0206,1.0795,1.0988,0.0,1.0284,1.0563,0.0,1.0052,0.0,0.0,0.0,0.0,0.0,0.0,0.0,0.0,0.0,0.0,0.0,0.0,0.0,0.0,0.0,1.1156,1.1522,1.1341,1.1156,1.1031,1.1031,1.1091,1.1273,1.1462,1.1647,1.1776,1.1776,0.0,0.0,0.0,0.0,1.097,1.0668,1.0425,1.0304,1.0486,1.0607,1.0789,1.1152,1.1398,1.1587,1.1712,1.1776,1.1715,1.1342,1.1159,1.1037,1.0773,1.0582,1.0366,0.9926,0.9706,0.9541,0.9379,0.9544,0.9871,0.9981,1.0253,1.0527,1.0692,1.0692,1.0692,1.0692,1.0692,1.0637,1.0527,1.0366,1.0257,1.0036,1.0066,1.005,0.9879,0.9968,0.9945,0.9766,0.9673,0.9579,0.9579,0.9579,0.9579,0.9579,0.9579,0.9579,0.9579,0.9579,0.9426,0.9031,0.863,0.8283,0.7988,0.7988,0.7988,0.7988,0.7988,0.7988,0.8804,0.8804,0.8804,0.8804,0.9252,0.9715,0.9715,1.0171,1.053,1.0339,1.0931,0.0,0.0,1.0659,0.0,0.0,0.0,0.0,0.0,0.0,0.0,0.0,0.0,0.0,0.0,0.0,0.0,0.0,0.0,0.0,0.0,0.0,0.0,1.1776,1.1776,1.1651,1.1398,1.1398,1.1398,1.1398,1.1651,1.1776,1.1776,1.1776,0.0,0.0,0.0,0.0,1.1273,1.097,1.0849,1.0789,1.0849,1.1031,1.1333,1.1333,1.1587,1.1776,1.1776,1.1776,1.1719,1.1374,1.1244,1.1159,1.0834,1.0716,1.0637,1.0421,1.0147,0.9871,0.9816,1.0036,1.0312,1.0312,1.0472,1.0692,1.0692,1.0692,1.0692,1.0692,1.0692,1.0692,1.0692,1.0527,1.0363,1.0363,1.0363,1.03,1.0069,1.0136,1.0171,0.9908,0.9754,0.9657,0.9579,0.9579,0.9579,0.9579,0.9579,0.9579,0.9579,0.9579,0.9327,0.8825,0.8531,0.8283,0.7988,0.7988,0.7988,0.7988,0.7988,0.7988,0.8804,0.8804,0.8804,0.8804,0.9252,0.9715,0.9715,1.0171,1.053,0.0,0.0,0.0,0.0,1.0672,1.1164,0.0,0.0,0.0,0.0,0.0,0.0,0.0,0.0,0.0,0.0,0.0,0.0,0.0,0.0,0.0,0.0,0.0,0.0,1.1776,1.1776,1.1776,1.1712,1.1712,1.1712,1.1712,1.1776,1.1776,1.1776,1.1776,1.1776,0.0,0.0,0.0,1.1273,1.1212,1.1031,1.0849,1.1091,1.1273,1.1333,1.1647,1.1776,1.1776,1.1776,1.1776,1.174,1.1529,1.135,1.1183,1.0988,1.0818,1.0692,1.0637,1.0417,1.0147,0.9871,1.0036,1.0312,1.0312,1.0472,1.0692,1.0692,1.0692,1.0692,1.0692,1.0692,1.0692,1.0692,1.0692,1.0637,1.0637,1.0637,1.0577,1.0345,1.0354,1.0262,0.992,0.986,0.9786,0.9591,0.9579,0.9579,0.9579,0.9579,0.9579,0.9579,0.9381,0.913,0.8825,0.8531,0.8283,0.7988,0.7988,0.7988,0.7988,0.7988,0.7988,0.8804,0.8804,0.8844,0.8978,0.9365,0.9715,0.9715,1.0171,1.0561,0.0,0.0,0.0,0.0,0.0,1.1621,1.17,0.0,0.0,0.0,0.0,0.0,0.0,0.0,0.0,0.0,0.0,0.0,0.0,0.0,0.0,0.0,0.0,0.0,0.0,1.1776,1.1776,1.1776,1.1776,1.1776,1.1776,1.1776,1.1776,1.1776,1.1776,1.1776,0.0,0.0,1.1712,1.1587,1.1587,1.1466,1.1345,1.1526,1.1587,1.1587,1.1712,1.1776,1.1776,1.1776,1.1776,1.1732,1.1443,1.1293,1.1171,1.0899,1.0761,1.0692,1.0692,1.0637,1.0472,1.0308,1.0417,1.0531,1.0531,1.0637,1.0692,1.0692,1.0692,1.0692,1.0692,1.0692,1.0692,1.0692,1.0692,1.0692,1.0692,1.0692,1.0664,1.0586,1.0493,1.0318,1.0201,1.0002,0.9851,0.9774,0.9681,0.9579,0.9579,0.9579,0.9579,0.9579,0.9229,0.8928,0.8825,0.8382,0.8137,0.7988,0.7988,0.7988,0.7988,0.7988,0.8032,0.8804,0.8804,0.8878,0.9138,0.9459,0.9699,0.9773,1.0218,1.0593,1.0593,0.0,0.0,0.0,1.1529,0.0,0.0,0.0,0.0,0.0,0.0,0.0,0.0,0.0,0.0,0.0,0.0,0.0,0.0,0.0,0.0,0.0,0.0,0.0,0.0,1.1776,1.1776,1.1776,1.1776,1.1776,1.1776,1.1776,1.1776,1.1776,1.1776,1.1776,1.1776,1.1776,1.1776,1.1776,1.1776,1.1776,1.1776,1.1776,1.1752,1.1707,1.1663,1.1646,1.1646,1.1646,1.1646,1.1602,1.1313,1.1196,1.1114,1.0838,1.0724,1.0692,1.0692,1.0692,1.0692,1.0692,1.0692,1.0692,1.0692,1.0692,1.0692,1.0692,1.0692,1.0692,1.0692,1.0692,1.0692,1.0692,1.0692,1.0692,1.0692,1.0692,1.0692,1.0692,1.0578,1.0427,1.0387,1.0184,0.9977,0.9892,0.9726,0.9579,0.9579,0.9579,0.9579,0.9579,0.9126,0.8874,0.8825,0.8333,0.8088,0.7988,0.7988,0.8008,0.8092,0.8092,0.8174,0.8804,0.8804,0.8878,0.9138,0.9459,0.9753,1.002,1.0365,1.0593,1.0593,0.0,0.0,0.0,1.2212,0.0,0.0,0.0,0.0,0.0,0.0,0.0,0.0,0.0,0.0,0.0,0.0,0.0,0.0,0.0,0.0,0.0,0.0,0.0,0.0,0.0,1.1776,1.1776,1.1776,1.1776,1.1776,1.1776,1.1776,1.1776,1.1776,1.1776,1.1776,1.1776,1.1776,1.1776,1.1776,1.1776,1.1776,1.1776,1.1671,1.15,1.1325,1.1261,1.1261,1.1261,1.1261,1.1256,1.1232,1.1114,1.098,1.1012,1.083,1.0692,1.0692,1.0692,1.0692,1.0692,1.0692,1.0692,1.0692,1.0692,1.0692,1.0692,1.0692,1.0692,1.0692,1.0692,1.0692,1.0692,1.0692,1.0692,1.0692,1.0692,1.0692,1.0692,1.068,1.0611,1.0399,1.0358,1.0257,0.9912,0.9726,0.9579,0.9579,0.9579,0.9579,0.9579,0.9331,0.9031,0.8825,0.8531,0.8237,0.7988,0.7988,0.8113,0.8255,0.8255,0.833,0.8804,0.8911,0.9118,0.9446,0.9733,1.0127,1.0749,1.1162,1.1571,1.2091,1.1799,0.0,0.0,0.0,0.0,0.0,0.0,0.0,0.0,0.0,0.0,0.0,0.0,0.0,0.0,0.0,0.0,0.0,0.0,0.0,0.0,0.0,0.0,0.0,0.0,1.1776,1.1776,1.1776,1.1776,1.1776,1.1776,1.1776,1.1776,1.1776,1.1776,1.1776,1.1776,1.1776,1.1776,1.1776,1.1707,1.1593,1.1476,1.1386,1.1317,1.1248,1.1224,1.1224,1.1224,1.1224,1.1204,1.1098,1.1021,1.1004,1.0834,1.0749,1.0692,1.0692,1.0692,1.0692,1.0692,1.0692,1.0692,1.0692,1.0692,1.0692,1.0692,1.0692,1.0692,1.0692,1.0692,1.0692,1.0692,1.0692,1.0692,1.0692,1.0692,1.0692,1.0692,1.0692,1.0668,1.0603,1.0443,1.0286,0.9916,0.9823,0.9742,0.9583,0.9579,0.9579,0.9579,0.9331,0.9133,0.9031,0.8779,0.8531,0.8237,0.8237,0.8267,0.8323,0.8323,0.8397,0.8804,0.8991,0.9284,0.9613,0.99,1.0441,1.1668,1.1931,1.2161,1.3026,1.2792,1.2345,1.2094,0.0,0.0,0.0,0.0,0.0,0.0,0.0,0.0,0.0,0.0,0.0,0.0,0.0,0.0,0.0,0.0,0.0,0.0,0.0,0.0,0.0,0.0,0.0,1.1776,1.1776,1.1776,1.1776,1.1776,1.1776,1.1776,1.1776,1.1776,1.1776,1.1776,1.1776,1.1772,1.1711,1.1581,1.1395,1.1212,1.1143,1.1135,1.1078,1.1053,1.1053,1.1053,1.1053,1.1037,1.0919,1.0939,1.0858,1.0729,1.0692,1.0692,1.0692,1.0692,1.0692,1.0692,1.0692,1.0692,1.0692,1.0692,1.0692,1.0692,1.0692,1.0692,1.0692,1.0692,1.0692,1.0692,1.0692,1.0692,1.0692,1.0692,1.0692,1.0692,1.0692,1.0692,1.0692,1.0538,1.0335,1.0079,0.9953,0.9835,0.9713,0.9657,0.9579,0.9579,0.943,0.9286,0.9187,0.9031,0.8779,0.8531,0.8582,0.8643,0.8598,0.8698,0.8804,0.8811,0.9004,0.9297,0.9626,0.992,1.0643,1.2752,1.2532,1.2174,1.3039,1.342,1.3347,1.2485,0.0,0.0,0.0,0.0,0.0,0.0,0.0,0.0,0.0,0.0,0.0,0.0,0.0,0.0,0.0,0.0,0.0,0.0,0.0,0.0,0.0,0.0,0.0,1.1776,1.1776,1.1776,1.1776,1.1776,1.1776,1.1776,1.1776,1.1776,1.1776,1.1776,1.1772,1.1756,1.1573,1.1386,1.1204,1.1033,1.1024,1.0944,1.0761,1.0692,1.0692,1.0692,1.0692,1.0692,1.0692,1.0692,1.0692,1.0692,1.0692,1.0692,1.0692,1.0692,1.0692,1.0692,1.0692,1.0692,1.0692,1.0692,1.0692,1.0692,1.0692,1.0692,1.0692,1.0692,1.0692,1.0692,1.0692,1.0692,1.0692,1.0692,1.0692,1.0692,1.0692,1.0692,1.0692,1.0542,1.0383,1.0383,1.0099,0.9888,0.9888,0.9726,0.9579,0.9579,0.9579,0.948,0.9187,0.9187,0.908,0.8825,0.8993,0.9164,0.9279,0.9492,0.9656,0.9031,0.975,1.0541,1.0803,0.0,0.0,0.0,1.3447,0.0,0.0,1.4676,1.4603,1.3721,0.0,0.0,0.0,0.0,0.0,0.0,0.0,0.0,0.0,0.0,0.0,0.0,0.0,0.0,0.0,0.0,0.0,0.0,0.0,0.0,0.0,0.0,0.0,1.1776,1.1776,1.1776,1.1776,1.1776,1.1776,1.1776,1.1776,1.1707,1.1581,1.1581,1.1508,1.1374,1.12,1.1094,1.1025,1.0846,1.0773,1.0765,1.0712,1.0692,1.0692,1.0692,1.0692,1.0692,1.0692,1.0692,1.0692,1.0692,1.0692,1.0692,1.0692,1.0692,1.0692,1.0692,1.0692,1.0692,1.0692,1.0692,1.0692,1.0692,1.0692,1.0692,1.0692,1.0692,1.0692,1.0692,1.0692,1.0692,1.0692,1.0692,1.0692,1.0692,1.0692,1.0692,1.0692,1.0647,1.0566,1.0391,1.0335,1.0217,1.0139,0.9908,0.9754,0.9583,0.9579,0.9579,0.948,0.948,0.9331,0.9084,0.9299,0.937,0.9279,0.9492,0.9656,1.003,1.0589,1.1209,1.1349,1.165,1.2281,1.3674,0.0,0.0,0.0,1.5611,1.5825,1.4943,0.0,0.0,0.0,0.0,0.0,0.0,0.0,0.0,0.0,0.0,0.0,0.0,0.0,0.0,0.0,0.0,0.0,0.0,0.0,0.0,0.0,0.0,0.0,1.1776,1.1776,1.1776,1.1776,1.1776,1.174,1.1667,1.1667,1.1606,1.1496,1.1419,1.1285,1.1114,1.1013,1.0928,1.0846,1.0737,1.0692,1.0692,1.0692,1.0692,1.0692,1.0692,1.0692,1.0692,1.0692,1.0692,1.0692,1.0692,1.0692,1.0692,1.0692,1.0692,1.0692,1.0692,1.0692,1.0692,1.0692,1.0692,1.0692,1.0692,1.0692,1.0692,1.0692,1.0692,1.0692,1.0692,1.0692,1.0692,1.0692,1.0692,1.0692,1.0692,1.0692,1.0692,1.0692,1.0692,1.0647,1.0546,1.0473,1.0387,1.0278,1.0099,0.9912,0.9738,0.9665,0.9579,0.9579,0.9579,0.9529,0.9381,0.9551,0.9674,0.9646,0.9811,0.9981,1.1422,1.151,1.1515,1.1549,1.1911,0.0,1.316,1.4877,1.6086,1.5336,0.0,1.6991,0.0,0.0,0.0,0.0,0.0,0.0,0.0,0.0,0.0,0.0,0.0,0.0,0.0,0.0,0.0,0.0,0.0,0.0,0.0,0.0,0.0,0.0,0.0,0.0,1.1776,1.1776,1.1776,0.0,1.176,1.1663,1.15,1.15,1.1484,1.1439,1.1252,1.1086,1.0944,1.0944,1.0842,1.0692,1.0692,1.0692,1.0692,1.0692,1.0692,1.0692,1.0692,1.0692,1.0692,1.0692,1.0692,1.0692,1.0692,1.0692,1.0692,1.0692,1.0692,1.0692,1.0692,1.0692,1.0692,1.0692,1.0692,1.0692,1.0692,1.0692,1.0692,1.0692,1.0692,1.0692,1.0692,1.0692,1.0692,1.0692,1.0692,1.0692,1.0692,1.0692,1.0692,1.0692,1.0692,1.0692,1.0692,1.055,1.0407,1.0407,1.029,1.0163,0.9941,0.975,0.9644,0.9579,0.9579,0.9579,0.9579,0.9803,0.9973,1.0192,1.0327,1.0505,1.171,1.2147,0.0,1.2766,1.3908,1.485,1.4306,1.5471,1.656,1.6366,1.6947,0.0,0.0,0.0,0.0,0.0,0.0,0.0,0.0,0.0,0.0,0.0,0.0,0.0,0.0,0.0,0.0,0.0,0.0,0.0,0.0,0.0,0.0,0.0,0.0,1.2005,1.1776,1.1776,1.1776,0.0,1.163,1.1537,1.15,1.15,1.1346,1.1074,1.0887,1.0785,1.0753,1.0753,1.0729,1.0692,1.0692,1.0692,1.0692,1.0692,1.0692,1.0692,1.0692,1.0692,1.0692,1.0692,1.0692,1.0692,1.0692,1.0692,1.0692,1.0692,1.0692,1.0692,1.0692,1.0692,1.0692,1.0692,1.0692,1.0692,1.0692,1.0692,1.0692,1.0692,1.0692,1.0692,1.0692,1.0692,1.0692,1.0692,1.0692,1.0692,1.0692,1.0692,1.0692,1.0692,1.0692,1.0692,1.0692,1.066,1.0635,1.0635,1.0473,1.0359,1.0265,1.0002,0.9766,0.9579,0.9579,0.9579,0.9579,0.9803,0.9904,0.9949,1.0188,1.0318,1.2518,1.2839,0.0,1.3694,0.0,1.5551,1.4723,1.5651,1.6707,1.6707,0.0,0.0,0.0,0.0,0.0,0.0,0.0,0.0,0.0,0.0,0.0,0.0,0.0,0.0,0.0,0.0,0.0,0.0,0.0,0.0,0.0,0.0,0.0,0.0,1.2226,1.1974,1.1776,1.1691,1.1646,1.1642,1.1455,1.1325,1.1244,1.1244,1.1098,1.083,1.0737,1.0692,1.0692,1.0692,1.0692,1.0692,1.0692,1.0692,1.0692,1.0692,1.0692,1.0692,1.0692,1.0692,1.0692,1.0692,1.0692,1.0692,1.0692,1.0692,1.0692,1.0692,1.0692,1.0692,1.0692,1.0692,1.0692,1.0692,1.0692,1.0692,1.0692,1.0692,1.0692,1.0692,1.0692,1.0692,1.0692,1.0692,1.0692,1.0692,1.0692,1.0692,1.0692,1.0692,1.0692,1.0692,1.0692,1.0692,1.0692,1.0692,1.0692,1.0692,1.0607,1.0521,1.0387,1.0168,0.9933,0.9754,0.9669,0.9579,0.9579,0.9717,0.9803,0.9888,0.9985,1.0128,1.3293,1.35,1.3647,1.4529,1.5291,0.0,1.4865,1.5765,1.6707,0.0,0.0,0.0,0.0,0.0,0.0,0.0,0.0,0.0,0.0,0.0,0.0,0.0,0.0,0.0,0.0,0.0,0.0,0.0,0.0,0.0,0.0,0.0,1.3819,1.3033,1.239,1.1938,1.1799,1.1588,1.1451,1.1451,1.1265,1.109,1.0923,1.0923,1.0838,1.0692,1.0692,1.0692,1.0692,1.0692,1.0692,1.0692,1.0692,1.0692,1.0692,1.0692,1.0692,1.0692,1.0692,1.0692,1.0692,1.0692,1.0692,1.0692,1.0692,1.0692,1.0692,1.0692,1.0692,1.0692,1.0692,1.0692,1.0692,1.0692,1.0692,1.0692,1.0692,1.0692,1.0692,1.0692,1.0692,1.0692,1.0692,1.0692,1.0692,1.0692,1.0692,1.0692,1.0692,1.0692,1.0692,1.0692,1.0692,1.0692,1.0692,1.0692,1.0692,1.0692,1.0692,1.0627,1.0485,1.0274,1.0143,0.9937,0.9734,0.9579,0.9579,0.9579,0.9701,0.9839,0.9839,0.9937,1.3347,0.0,1.4556,0.0,1.5691,1.5751,0.0,0.0,1.6707,0.0,0.0,0.0,0.0,0.0,0.0,0.0,0.0,0.0,0.0,0.0,0.0,0.0,0.0,0.0,0.0,0.0,0.0,0.0,0.0,0.0,0.0,1.5823,1.4823,1.3389,1.2816,1.2254,1.1703,1.1388,1.1256,1.1256,1.1086,1.0907,1.0729,1.0729,1.0716,1.0692,1.0692,1.0692,1.0692,1.0692,1.0692,1.0692,1.0692,1.0692,1.0692,1.0692,1.0692,1.0692,1.0692,1.0692,1.0692,1.0692,1.0692,1.0692,1.0692,1.0692,1.0692,1.0692,1.0692,1.0692,1.0692,1.0692,1.0692,1.0692,1.0692,1.0692,1.0692,1.0692,1.0692,1.0692,1.0692,1.0692,1.0692,1.0692,1.0692,1.0692,1.0692,1.0692,1.0692,1.0692,1.0692,1.0692,1.0692,1.0692,1.0692,1.0692,1.0692,1.0692,1.0692,1.068,1.066,1.0339,1.0204,1.018,0.9795,0.9579,0.9579,0.9579,0.9591,0.9661,0.9661,0.9754,1.2979,1.4266,1.5298,0.0,1.5784,1.5784,1.5784,0.0,0.0,0.0,0.0,0.0,0.0,0.0,0.0,0.0,0.0,0.0,0.0,0.0,0.0,0.0,0.0,0.0,0.0,0.0,0.0,0.0,0.0,0.0,1.6707,1.612,1.5143,1.378,1.3162,0.0,1.1684,1.1412,1.1199,1.0923,1.085,1.0769,1.0692,1.0692,1.0692,1.0692,1.0692,1.0692,1.0692,1.0692,1.0692,1.0692,1.0692,1.0692,1.0692,1.0692,1.0692,1.0692,1.0692,1.0692,1.0692,1.0692,1.0692,1.0692,1.0692,1.0692,1.0692,1.0692,1.0692,1.0692,1.0692,1.0692,1.0692,1.0692,1.0692,1.0692,1.0692,1.0692,1.0692,1.0692,1.0692,1.0692,1.0692,1.0692,1.0692,1.0692,1.0692,1.0692,1.0692,1.0692,1.0692,1.0692,1.0692,1.0692,1.0692,1.0692,1.0692,1.0692,1.0692,1.0692,1.0692,1.0448,1.0266,1.0216,0.9811,0.9579,0.9579,0.9579,0.9579,0.9579,0.9579,0.9669,0.0,0.0,1.5118,1.5118,1.5118,1.5224,0.0,0.0,0.0,0.0,0.0,0.0,0.0,0.0,0.0,0.0,0.0,0.0,0.0,0.0,0.0,0.0,0.0,0.0,0.0,0.0,0.0,0.0,0.0,0.0,1.6842,1.6365,1.5546,1.4263,1.3603,1.279,1.1768,1.141,1.1048,1.0692,1.0692,1.0692,1.0692,1.0692,1.0692,1.0692,1.0692,1.0692,1.0692,1.0692,1.0692,1.0692,1.0692,1.0692,1.0692,1.0692,1.0692,1.0692,1.0692,1.0692,1.0692,1.0692,1.0692,1.0692,1.0692,1.0692,1.0692,1.0692,1.0692,1.0692,1.0692,1.0692,1.0692,1.0692,1.0692,1.0692,1.0692,1.0692,1.0692,1.0692,1.0692,1.0692,1.0692,1.0692,1.0692,1.0692,1.0692,1.0692,1.0692,1.0692,1.0692,1.0692,1.0692,1.0692,1.0692,1.0692,1.0692,1.0692,1.0692,1.0692,1.0692,1.0526,1.0351,1.0216,0.9851,0.9669,0.9579,0.9579,0.9579,0.9579,0.9579,0.9579,0.0,1.2625,0.0,1.3347,1.3347,0.0,0.0,0.0,0.0,0.0,0.0,0.0,0.0,0.0,0.0,0.0,0.0,0.0,0.0,0.0,0.0,0.0,0.0,0.0,0.0,0.0,0.0,0.0,0.0,0.0,1.7179,1.6849,1.6152,1.5005,1.4126,1.3157,1.1982,1.1147,1.07,1.0692,1.0692,1.0692,1.0692,1.0692,1.0692,1.0692,1.0692,1.0692,1.0692,1.0692,1.0692,1.0692,1.0692,1.0692,1.0692,1.0692,1.0692,1.0692,1.0692,1.0692,1.0692,1.0692,1.0692,1.0692,1.0692,1.0692,1.0692,1.0692,1.0692,1.0692,1.0692,1.0692,1.0692,1.0692,1.0692,1.0692,1.0692,1.0692,1.0692,1.0692,1.0692,1.0692,1.0692,1.0692,1.0692,1.0692,1.0692,1.0692,1.0692,1.0692,1.0692,1.0692,1.0692,1.0692,1.0692,1.0692,1.0692,1.0692,1.0692,1.0692,1.0692,1.0526,1.0351,1.0216,0.9969,0.9791,0.9579,0.9579,0.9579,0.9579,0.9579,0.9579,0.0,0.0,0.0,1.3213,1.3213,1.3293,0.0,0.0,0.0,0.0,0.0,0.0,0.0,0.0,0.0,0.0,0.0,0.0,0.0,0.0,0.0,0.0,0.0,0.0,0.0,0.0,0.0,0.0,0.0,0.0,1.7483,1.7166,1.6583,1.5624,1.4922,1.3732,1.2005,1.1295,1.0857,1.0692,1.0692,1.0692,1.0692,1.0692,1.0692,1.0692,1.0692,1.0692,1.0692,1.0692,1.0692,1.0692,1.0692,1.0692,1.0692,1.0692,1.0692,1.0692,1.0692,1.0692,1.0692,1.0692,1.0692,1.0692,1.0692,1.0692,1.0692,1.0692,1.0692,1.0692,1.0692,1.0692,1.0692,1.0692,1.0692,1.0692,1.0692,1.0692,1.0692,1.0692,1.0692,1.0692,1.0692,1.0692,1.0692,1.0692,1.0692,1.0692,1.0692,1.0692,1.0692,1.0692,1.0692,1.0692,1.0692,1.0692,1.0692,1.0692,1.0692,1.0692,1.0692,1.0631,1.0517,1.0339,1.0156,0.9916,0.9579,0.9579,0.9579,0.9579,0.9579,0.9579,1.1464,0.0,0.0,0.0,0.0,1.2398,0.0,0.0,0.0,0.0,0.0,0.0,0.0,0.0,0.0,0.0,0.0,0.0,0.0,0.0,0.0,0.0,0.0,0.0,0.0,0.0,0.0,0.0,0.0,0.0,1.7582,1.743,1.6849,1.5779,1.4976,1.3738,1.2005,1.14,1.0962,1.0692,1.0692,1.0747,1.0857,1.0857,1.0911,1.1021,1.1021,1.0911,1.0692,1.0692,1.0692,1.0692,1.0692,1.0692,1.0692,1.0692,1.0692,1.0692,1.0692,1.0692,1.0692,1.0692,1.0692,1.0692,1.0692,1.0692,1.0692,1.0692,1.0692,1.0692,1.0692,1.0692,1.0692,1.0692,1.0692,1.0692,1.0692,1.0692,1.0692,1.0692,1.0692,1.0692,1.0692,1.0692,1.0692,1.0692,1.0692,1.0692,1.0692,1.0692,1.0692,1.0692,1.0692,1.0692,1.0692,1.0692,1.0692,1.0692,1.0692,1.0692,1.0692,1.0692,1.0611,1.0387,1.0314,1.0103,0.9807,0.9685,0.9579,0.9579,0.9579,0.9579,0.0,0.0,0.0,0.0,0.0,0.0,1.1672,0.0,0.0,0.0,0.0,0.0,0.0,0.0,0.0,0.0,0.0,0.0,0.0,0.0,0.0,0.0,0.0,0.0,0.0,0.0,0.0,0.0,0.0,1.7582,1.7582,1.7582,1.6942,1.5559,1.4374,1.3192,1.206,1.14,1.0966,1.0692,1.0692,1.0852,1.1072,1.1072,1.1291,1.1623,1.1623,1.1295,1.0747,1.0692,1.0692,1.0692,1.0692,1.0692,1.0692,1.0692,1.0692,1.0692,1.0692,1.0692,1.0692,1.0692,1.0692,1.0692,1.0692,1.0692,1.0692,1.0692,1.0692,1.0692,1.0692,1.0692,1.0692,1.0692,1.0692,1.0692,1.0692,1.0692,1.0692,1.0692,1.0692,1.0692,1.0692,1.0692,1.0692,1.0692,1.0692,1.0692,1.0692,1.0692,1.0692,1.0692,1.0692,1.0692,1.0692,1.0692,1.0692,1.0692,1.0692,1.0692,1.0692,1.0692,1.0611,1.0391,1.0383,1.0347,1.022,0.9811,0.9587,0.9583,0.9579,0.9579,1.0593,0.0,0.0,0.0,0.0,0.0,1.0901,1.145,0.0,0.0,0.0,0.0,0.0,0.0,0.0,0.0,0.0,0.0,0.0,0.0,0.0,0.0,0.0,0.0,0.0,0.0,0.0,0.0,1.7582,1.7582,1.7582,1.743,1.6908,1.6105,1.4976,1.3792,1.2659,1.1841,1.1185,1.0692,1.0692,1.0852,1.1072,1.1072,1.1404,1.1896,1.1896,1.1787,1.1623,1.1185,1.0857,1.0692,1.0692,1.0692,1.0692,1.0692,1.0692,1.0692,1.0692,1.0692,1.0692,1.0692,1.0692,1.0692,1.0692,1.0692,1.0692,1.0692,1.0692,1.0692,1.0692,1.0692,1.0692,1.0692,1.0692,1.0692,1.0692,1.0692,1.0692,1.0692,1.0692,1.0692,1.0692,1.0692,1.0692,1.0692,1.0692,1.0692,1.0692,1.0692,1.0692,1.0692,1.0692,1.0692,1.0692,1.0692,1.0692,1.0692,1.0692,1.0692,1.0692,1.0692,1.0672,1.0623,1.0443,1.0354,1.0359,0.9994,0.9815,0.9811,0.9685,0.9579,1.0593,1.0593,1.0593,0.0,0.0,0.0,1.0593,1.1276,1.1906,0.0,0.0,0.0,0.0,0.0,0.0,0.0,0.0,0.0,0.0,0.0,0.0,0.0,0.0,0.0,0.0,0.0,0.0,0.0,1.7582,1.7582,1.7582,1.743,1.706,1.6324,1.5458,1.4385,1.3098,1.2332,1.1618,1.1076,1.1076,1.124,1.1459,1.1564,1.1946,1.255,1.2659,1.2708,1.2649,1.2219,1.1678,1.1076,1.0911,1.0857,1.0857,1.0747,1.0692,1.0692,1.0692,1.0692,1.0692,1.0692,1.0692,1.0692,1.0692,1.0692,1.0692,1.0692,1.0692,1.0692,1.0692,1.0692,1.0692,1.0692,1.0692,1.0692,1.0692,1.0692,1.0692,1.0692,1.0692,1.0692,1.0692,1.0692,1.0692,1.0692,1.0692,1.0692,1.0692,1.0692,1.0692,1.0692,1.0692,1.0692,1.0692,1.0692,1.0692,1.0692,1.0692,1.0692,1.0692,1.0692,1.0692,1.0692,1.0595,1.0455,1.0383,1.0144,1.0053,0.9998,0.9896,0.9811,1.0593,1.0593,1.0593,0.0,0.0,0.0,1.0593,1.1276,1.1906,0.0,0.0,0.0,0.0,0.0,0.0,0.0,0.0,0.0,0.0,0.0,0.0,0.0,0.0,0.0,0.0,0.0,1.7582,1.7582,1.7582,1.7582,1.7582,1.7582,1.7213,1.643,1.5832,1.4869,1.3478,1.2822,1.2223,1.1623,1.1623,1.1787,1.2005,1.2278,1.2767,1.3423,1.3694,1.3851,1.3889,1.363,1.2822,1.1678,1.1345,1.1181,1.1072,1.0857,1.0747,1.0692,1.0692,1.0692,1.0692,1.0692,1.0692,1.0692,1.0692,1.0692,1.0692,1.0692,1.0692,1.0692,1.0692,1.0692,1.0692,1.0692,1.0692,1.0692,1.0692,1.0692,1.0692,1.0692,1.0692,1.0692,1.0692,1.0692,1.0692,1.0692,1.0692,1.0692,1.0692,1.0692,1.0692,1.0692,1.0692,1.0692,1.0692,1.0692,1.0692,1.0692,1.0692,1.0692,1.0692,1.0692,1.0692,1.0692,1.0692,1.0615,1.0411,1.0282,1.0233,1.0212,1.0212,1.0122,0.0,0.0,0.0,0.0,0.0,0.0,1.0593,1.1276,1.1906,0.0,0.0,0.0,0.0,0.0,0.0,0.0,0.0,0.0,0.0,0.0,0.0,0.0,0.0,0.0,0.0,0.0,1.7582,1.7582,1.7582,1.7582,1.7582,1.7582,1.743,1.7014,1.6264,1.5351,1.4337,1.3527,1.2713,1.1896,1.1896,1.1951,1.2005,1.2278,1.298,1.4062,1.4337,1.4708,1.5131,1.5078,1.3948,1.2223,1.1946,1.1509,1.1072,1.1017,1.0911,1.0692,1.0692,1.0692,1.0692,1.0692,1.0692,1.0692,1.0692,1.0692,1.0692,1.0692,1.0692,1.0692,1.0692,1.0692,1.0692,1.0692,1.0692,1.0692,1.0692,1.0692,1.0692,1.0692,1.0692,1.0692,1.0692,1.0692,1.0692,1.0692,1.0692,1.0692,1.0692,1.0692,1.0692,1.0692,1.0692,1.0692,1.0692,1.0692,1.0692,1.0692,1.0692,1.0692,1.0692,1.0692,1.0692,1.0692,1.0692,1.0676,1.0639,1.0469,1.0306,1.0212,1.0212,1.0196,0.0,0.0,0.0,1.0593,0.0,0.0,0.0,1.1276,1.1906,0.0,0.0,0.0,0.0,0.0,0.0,0.0,0.0,0.0,0.0,0.0,0.0,0.0,0.0,0.0,0.0,0.0,1.7582,1.7582,1.7582,1.7582,1.7582,1.7582,1.7483,1.7232,1.6636,1.5939,1.525,1.4654,1.4008,1.3305,1.3137,1.3034,1.2876,1.3142,1.3792,1.46,1.5083,1.5565,1.6092,1.5939,1.519,1.4056,1.3192,1.2486,1.1951,1.1678,1.14,1.1131,1.0966,1.0911,1.0857,1.0747,1.0692,1.0692,1.0692,1.0692,1.0692,1.0692,1.0692,1.0692,1.0692,1.0692,1.0692,1.0692,1.0692,1.0692,1.0692,1.0692,1.0692,1.0692,1.0692,1.0692,1.0692,1.0692,1.0692,1.0692,1.0692,1.0692,1.0692,1.0692,1.0692,1.0692,1.0692,1.0692,1.0692,1.0692,1.0692,1.0692,1.0692,1.0692,1.0692,1.0692,1.0692,1.0692,1.0692,1.0692,1.0692,1.0607,1.0517,1.0428,1.0428,1.0379,0.0,0.0,0.0,0.0,0.0,1.0593,0.0,0.0,0.0,0.0,0.0,0.0,0.0,0.0,0.0,0.0,0.0,0.0,0.0,0.0,0.0,0.0,0.0,0.0,0.0,0.0,1.7328,1.7328,1.7328,1.7328,1.7328,1.7488,1.7483,1.7279,1.6955,1.6577,1.6045,1.5779,1.5351,1.4761,1.4493,1.4175,1.3856,1.4169,1.46,1.5196,1.5731,1.6311,1.6836,1.6636,1.6371,1.5992,1.4541,1.363,1.3093,1.2495,1.206,1.1732,1.1404,1.1236,1.1181,1.0966,1.0857,1.0747,1.0692,1.0692,1.0692,1.0692,1.0747,1.0802,1.0802,1.0802,1.0857,1.0802,1.0802,1.0747,1.0692,1.0692,1.0692,1.0692,1.0692,1.0692,1.0692,1.0692,1.0692,1.0692,1.0692,1.0692,1.0692,1.0692,1.0692,1.0692,1.0692,1.0692,1.0692,1.0692,1.0692,1.0692,1.0692,1.0692,1.0692,1.0692,1.0692,1.0692,1.0692,1.0692,1.0692,1.0692,1.0692,1.0692,1.0692,1.0615,0.0,0.0,0.0,0.0,1.0593,0.0,0.0,0.0,0.0,0.0,0.0,0.0,0.0,0.0,0.0,0.0,0.0,0.0,0.0,0.0,0.0,0.0,0.0,0.0,0.0,0.0,0.0,1.6469,1.6469,1.6469,1.6469,1.7161,1.7582,1.7582,1.7279,1.6955,1.6624,1.6318,1.5945,1.5405,1.5089,1.4767,1.4498,1.4552,1.503,1.5838,1.6111,1.6743,1.7477,1.7477,1.7272,1.6908,1.541,1.4493,1.3954,1.3364,1.2767,1.2273,1.2005,1.1732,1.1514,1.1514,1.1295,1.1017,1.0747,1.0692,1.0692,1.0692,1.0857,1.1072,1.1072,1.1295,1.1404,1.1131,1.1072,1.0966,1.0747,1.0692,1.0692,1.0692,1.0692,1.0692,1.0692,1.0692,1.0692,1.0692,1.0692,1.0692,1.0692,1.0692,1.0692,1.0692,1.0692,1.0692,1.0692,1.0692,1.0692,1.0692,1.0692,1.0692,1.0692,1.0692,1.0692,1.0692,1.0692,1.0692,1.0692,1.0692,1.0692,1.0692,1.0692,1.068,0.0,0.0,0.0,0.0,0.0,0.0,1.0593,0.0,1.0593,0.0,0.0,0.0,0.0,0.0,0.0,0.0,0.0,0.0,0.0,0.0,0.0,0.0,0.0,0.0,0.0,0.0,0.0,0.0,0.0,1.6321,1.6321,1.7108,1.7582,1.7582,1.7483,1.7378,1.7213,1.7107,1.6849,1.6477,1.6152,1.5832,1.5571,1.5571,1.5891,1.6365,1.6696,1.7113,1.7582,1.7582,1.7529,1.7378,1.6583,1.5838,1.5137,1.4498,1.3954,1.3359,1.2767,1.2332,1.2001,1.1455,1.1185,1.1072,1.0802,1.0692,1.0747,1.0911,1.1017,1.1181,1.1509,1.1728,1.1787,1.1678,1.1618,1.1509,1.1021,1.0907,1.0911,1.0747,1.0692,1.0692,1.0692,1.0692,1.0692,1.0692,1.0692,1.0692,1.0692,1.0692,1.0692,1.0692,1.0692,1.0692,1.0692,1.0692,1.0692,1.0692,1.0692,1.0692,1.0692,1.0692,1.0692,1.0692,1.0692,1.0692,1.0692,1.0692,1.0692,1.0692,1.0692,1.0692,1.1897,0.0,0.0,0.0,0.0,0.0,0.0,0.0,0.0,0.0,0.0,0.0,0.0,0.0,0.0,0.0,0.0,0.0,0.0,0.0,0.0,0.0,0.0,0.0,0.0,0.0,0.0,0.0,0.0,0.0,1.5565,1.684,1.7475,1.7228,1.7462,1.7582,1.7582,1.7582,1.7483,1.7331,1.7008,1.6743,1.6537,1.643,1.6583,1.6842,1.7067,1.7325,1.7582,1.7582,1.7582,1.7582,1.7384,1.6902,1.6258,1.5624,1.5035,1.4433,1.3743,1.3147,1.2604,1.1728,1.1455,1.14,1.1076,1.0857,1.0857,1.1181,1.1291,1.1509,1.2114,1.2387,1.2441,1.2387,1.2387,1.2169,1.1509,1.135,1.1236,1.0857,1.0802,1.0802,1.0692,1.0692,1.0692,1.0692,1.0692,1.0692,1.0692,1.0692,1.0692,1.0692,1.0692,1.0692,1.0692,1.0692,1.0692,1.0692,1.0692,1.0692,1.0692,1.0692,1.0692,1.0692,1.0692,1.0692,1.0692,1.0692,1.0692,1.0692,1.0692,1.0692,0.0,0.0,0.0,1.2717,0.0,0.0,0.0,0.0,1.0593,0.0,0.0,0.0,0.0,0.0,0.0,1.0593,0.0,0.0,0.0,0.0,0.0,0.0,0.0,0.0,0.0,0.0,0.0,0.0,0.0,0.0,1.3733,1.6179,1.7194,1.6388,1.7141,1.7582,1.7582,1.7582,1.7582,1.7582,1.7331,1.7179,1.7179,1.6842,1.6849,1.7173,1.7179,1.7325,1.7582,1.7582,1.7582,1.7582,1.7582,1.7582,1.7424,1.6583,1.5945,1.5399,1.5035,1.4396,1.3532,1.2659,1.2387,1.2273,1.1732,1.135,1.1181,1.1514,1.1787,1.2114,1.2713,1.3261,1.3586,1.3315,1.3261,1.3039,1.2169,1.1951,1.1787,1.1181,1.1072,1.1017,1.0747,1.0692,1.0692,1.0692,1.0692,1.0692,1.0692,1.0692,1.0692,1.0692,1.0692,1.0692,1.0692,1.0692,1.0692,1.0692,1.0692,1.0692,1.0692,1.0692,1.0692,1.0692,1.0692,1.0692,1.0692,1.0692,1.0692,1.0692,1.0692,1.0692,0.0,0.0,1.3006,1.2837,0.0,0.0,0.0,0.0,0.0,0.0,0.0,0.0,0.0,0.0,1.1497,1.072,1.0593,0.0,0.0,0.0,0.0,0.0,0.0,0.0,0.0,0.0,0.0,0.0,0.0,0.0,0.0,1.5912,1.6847,1.7128,1.7428,1.7582,1.7582,1.7582,1.7582,1.7582,1.7536,1.7483,1.7483,1.7371,1.7371,1.7483,1.7483,1.7536,1.7582,1.7582,1.7582,1.7582,1.7582,1.7582,1.7529,1.7067,1.6636,1.6146,1.5303,1.4713,1.4175,1.3516,1.3142,1.293,1.255,1.2114,1.1782,1.206,1.2164,1.2491,1.3521,1.4013,1.439,1.4708,1.46,1.4213,1.3537,1.3076,1.2626,1.1924,1.1664,1.1385,1.1098,1.1041,1.0964,1.0729,1.0692,1.0692,1.0692,1.0692,1.0692,1.0692,1.0692,1.0692,1.0692,1.0692,1.0692,1.0692,1.0692,1.0692,1.0692,1.0692,1.0692,1.0692,1.0692,1.0692,1.0692,1.0692,1.0692,1.0692,1.0692,1.0692,1.5658,1.497,0.0,0.0,1.326,0.0,1.2488,0.0,0.0,0.0,0.0,0.0,0.0,0.0,0.0,1.0868,1.066,1.0593,0.0,1.0593,0.0,0.0,0.0,0.0,0.0,0.0,0.0,0.0,0.0,0.0,0.0,0.0,1.5925,1.6172,1.6486,1.68,1.7114,1.7114,1.7275,1.7582,1.7582,1.7582,1.7582,1.7582,1.7582,1.7582,1.7582,1.7582,1.7582,1.7582,1.7582,1.7582,1.7582,1.7582,1.7582,1.7437,1.7166,1.6736,1.5785,1.5357,1.5083,1.4541,1.4218,1.4008,1.3635,1.3088,1.2654,1.2822,1.2871,1.3083,1.4223,1.4761,1.519,1.5678,1.5696,1.5429,1.4702,1.4246,1.3734,1.2861,1.2431,1.2029,1.145,1.1393,1.1261,1.0915,1.083,1.0789,1.0789,1.0733,1.0692,1.0692,1.0692,1.0692,1.0692,1.0692,1.0692,1.0692,1.0692,1.0692,1.0692,1.0692,1.0692,1.0692,1.0692,1.0692,1.0692,1.0692,1.0692,1.0692,1.0692,1.0692]}]]